     2              OBSERVATION DATA    GPS                 RINEX VERSION / TYPE
teqc 2000Jul20 Karen Wendt 20030304 00:38:01UTC             PGM / RUN BY / DATE
                                                            COMMENT
L2: 1 -> 1; 150 -> 5; 250 -> 9                              COMMENT
L2: 1 -> 1; 150 -> 5; 250 -> 9                              COMMENT
L2: 1 -> 1; 150 -> 5; 250 -> 9                              COMMENT
L2: 1 -> 1; 150 -> 5; 250 -> 9                              COMMENT
L2: 1 -> 1; 150 -> 5; 250 -> 9                              COMMENT
L2: 1 -> 1; 150 -> 5; 250 -> 9                              COMMENT
L2: 1 -> 1; 150 -> 5; 250 -> 9                              COMMENT
L2: 1 -> 1; 150 -> 5; 250 -> 9                              COMMENT
L2: 1 -> 1; 150 -> 5; 250 -> 9                              COMMENT
L2: 1 -> 1; 150 -> 5; 250 -> 9                              COMMENT
L2: 1 -> 1; 150 -> 5; 250 -> 9                              COMMENT
L2: 1 -> 1; 150 -> 5; 250 -> 9                              COMMENT
L2: 1 -> 1; 150 -> 5; 250 -> 9                              COMMENT
L2: 1 -> 1; 150 -> 5; 250 -> 9                              COMMENT
Original Marker Name: oldw Old_Woman_1935_USC&GS            COMMENT
Campaign Name: USGS 2003                                    COMMENT
4-Character Station Name: OLDW                              COMMENT
6-Character Antenna Code: DMRCHT                            COMMENT
Vertical Measurement Point: BCR                             COMMENT
Vertical Offset to Rinex Ref. Point: 0.0348                 COMMENT
Radial Measurement Point: ECF                               COMMENT
Radial Offset to Rinex Ref. Point: 0.1897                   COMMENT
Antenna Height from Field Measurement: 1.2710 m             COMMENT
Additional Antenna Identification Info.:                    COMMENT
Turborogue and Ashtech Choke Ring                           COMMENT
Original XYZ: -2372164.6184 -4705966.4300 3582801.4675      COMMENT
New XYZ position is based on association with SCEC monument COMMENT
E1F2C9L4+0011. Position of that monument is believed to be  COMMENT
valid to within 1 m horizontally; vertical accuracy         COMMENT
should be no worse than 3-times this value.                 COMMENT
                                                            COMMENT
Revised Rinex header created by UCSD GPS archive for        COMMENT
GSAC on 11-Jul-2003 (2003:192) 16:34:41 GMT                 COMMENT
For assistance contact dagnew@ucsd.edu                      COMMENT
or anderson@python.ucsd.edu                                 COMMENT
                                                            COMMENT
OLD WOMAN 1935                                              MARKER NAME
CS US GEOLOGICAL SURVEY                                     OBSERVER / AGENCY
ZE120023208 RECEIVER UNKNOWN ZC00                           REC # / TYPE / VERS
CR14330 DORNE-MARGOL. TYPE T                                ANT # / TYPE
 -2372180.5099 -4705937.5443  3582783.5174                  APPROX POSITION XYZ
        1.2220        0.0000        0.0000                  ANTENNA: DELTA H/E/N
     1     1     0                                          WAVELENGTH FACT L1/2
     5    C1    L1    L2    P1    P2                        # / TYPES OF OBSERV
    30                                                      INTERVAL
  2003     2    28     0     0    0.000000                  TIME OF FIRST OBS
  2003     2    28    16    25   30.000000                  TIME OF LAST OBS
                                                            END OF HEADER
 03  2 28  0  0  0.0000000  0 10G17G10G 6G26G16G15G29G23G18G30
  21091710.492   -23323701.29044 -18130050.00542  21091711.967    21091708.642
  24523578.920    -4257433.27443  -3302576.61742  24523580.566    24523580.359
  20456509.702   -28736844.75144 -22361070.98242  20456511.889    20456507.955
  21729976.247   -18855049.01943 -14681836.70142  21729979.025    21729976.649
  23862903.331   -10925575.93043  -8467427.12642  23862905.479    23862902.400
  22436177.529   -16732764.92643 -13024451.87942  22436179.274    22436177.103
  22719019.840   -14760914.97143 -11466959.44442  22719022.620    22719019.895
  20660400.125   -23197103.04344 -18063023.84542  20660402.231    20660398.608
  21896151.634   -18886486.51543 -14533692.60142  21896153.947    21896150.559
  24056380.286    -7117930.25443  -5530162.55542  24056382.250    24056384.701
 03  2 28  0  0 30.0000000  0 10G17G10G 6G26G16G15G29G23G18G30
  21087165.640   -23347584.52844 -18148660.29242  21087167.122    21087163.783
  24543722.061    -4151580.73743  -3220094.17042  24543723.556    24543723.368
  20462482.883   -28705455.45044 -22336611.79942  20462485.057    20462481.163
  21724340.247   -18884666.19043 -14704914.95342  21724342.980    21724340.612
  23855140.138   -10966371.55543  -8499215.88742  23855142.299    23855139.224
  22424266.145   -16795359.28943 -13073226.63842  22424267.909    22424265.719
  22720630.547   -14752450.51143 -11460363.72442  22720633.304    22720630.528
  20656119.004   -23219600.36044 -18080554.17842  20656121.088    20656117.452
  21881628.060   -18962808.05143 -14593163.81942  21881630.354    21881626.946
  24075707.825    -7016364.12343  -5451020.37142  24075709.861    24075712.402
 03  2 28  0  1  0.0000000  0 10G17G10G 6G26G16G15G29G23G18G30
  21082647.082   -23371329.55444 -18167162.87942  21082648.592    21082645.225
  24563866.964    -4045718.51143  -3137604.14242  24563868.543    24563868.303
  20468545.298   -28673597.29044 -22311787.26942  20468547.462    20468543.581
  21718815.961   -18913696.24443 -14727535.71242  21718818.676    21718816.302
  23847471.854   -11006668.74943  -8530616.28442  23847473.946    23847470.881
  22412374.491   -16857850.05443 -13121920.67542  22412376.235    22412374.060
  22722342.291   -14743455.39043 -11453354.50742  22722345.030    22722342.196
  20651924.489   -23241642.40144 -18097729.75242  20651926.590    20651922.947
  21867168.954   -19038790.74043 -14652371.00842  21867171.266    21867167.783
  24095026.424    -6914844.93143  -5371914.77342  24095028.569    24095031.102
 03  2 28  0  1 30.0000000  0 10G17G10G 6G26G16G15G29G23G18G30
  21078154.583   -23394937.84343 -18185558.92342  21078156.074    21078152.688
  24584013.079    -3939850.20743  -3055109.40042  24584014.670    24584014.398
  20474696.669   -28641271.65944 -22286598.47242  20474698.837    20474694.939
  21713403.505   -18942138.50443 -14749698.44542  21713406.232    21713403.851
  23839898.329   -11046467.94443  -8561628.62342  23839900.431    23839897.369
  22400502.353   -16920238.29143 -13170534.80942  22400504.091    22400501.872
  22724154.759   -14733930.85943 -11445932.76542  22724157.425    22724154.624
  20647816.308   -23263230.83544 -18114551.86142  20647818.400    20647814.768
  21852774.333   -19114434.56343 -14711314.13642  21852776.640    21852773.127
  24114335.382    -6813376.59043  -5292848.79442  24114337.530    24114340.143
 03  2 28  0  2  0.0000000  0 10G17G10G 6G26G16G15G29G23G18G30
  21073687.073   -23418414.58043 -18203852.45542  21073688.569    21073685.167
  24604158.864    -3833983.38143  -2972615.80742  24604160.501    24604160.159
  20480935.906   -28608484.30644 -22261049.88842  20480938.090    20480934.164
  21708102.171   -18969997.05443 -14771406.33442  21708104.902    21708102.492
  23832418.634   -11085773.85543  -8592256.58342  23832420.759    23832417.700
  22388648.593   -16982529.85243 -13219073.60542  22388650.315    22388648.077
  22726066.903   -14723882.64343 -11438102.95742  22726069.568    22726066.697
  20643793.292   -23284371.83944 -18131025.33042  20643795.368    20643791.702
  21838443.313   -19189744.09843 -14769996.79242  21838445.620    21838442.055
  24133633.080    -6711967.53843  -5213829.01842  24133635.232    24133637.864
 03  2 28  0  2 30.0000000  0 10G17G10G 6G26G16G15G29G23G18G30
  21069248.395   -23441739.90144 -18222028.00542  21069249.881    21069246.494
  24624307.955    -3728099.39743  -2890108.86842  24624309.617    24624309.335
  20487266.924   -28575214.79044 -22235125.60442  20487269.089    20487265.135
  21702916.178   -18997249.54743 -14792641.96542  21702918.888    21702916.452
  23825037.002   -11124564.80643  -8622483.28342  23825039.146    23825036.000
  22376817.244   -17044703.87043 -13267520.82642  22376818.949    22376816.644
  22728082.627   -14713289.98143 -11429848.90842  22728085.307    22728082.398
  20639859.245   -23305045.19244 -18147134.39842  20639861.336    20639857.642
  21824180.015   -19264697.68643 -14828402.08442  21824182.324    21824178.738
  24152922.943    -6610600.05243  -5134841.62942  24152925.010    24152927.774
 03  2 28  0  3  0.0000000  0 10G17G10G 6G26G16G15G29G23G18G30
  21064834.880   -23464932.87544 -18240100.42942  21064836.358    21064833.012
  24644456.200    -3622219.93643  -2807605.43042  24644457.816    24644457.538
  20493685.996   -28541482.42344 -22208840.64342  20493688.149    20493684.212
  21697842.179   -19023913.46443 -14813418.96442  21697844.887    21697842.416
  23817749.749   -11162859.09643  -8652322.97042  23817751.948    23817748.829
  22365004.596   -17106779.56043 -13315891.42942  22365006.318    22365003.956
  22730198.345   -14702171.97643 -11421185.51142  22730201.013    22730198.086
  20636010.415   -23325270.69144 -18162894.49142  20636012.491    20636008.808
  21809981.020   -19339313.53243 -14886544.20542  21809983.331    21809979.698
  24172200.641    -6509296.06743  -5055903.74842  24172202.719    24172205.577
 03  2 28  0  3 30.0000000  0 10G17G10G 6G26G16G15G29G23G18G30
  21060454.055   -23487954.32244 -18258039.19242  21060455.515    21060452.148
  24664610.669    -3516307.38643  -2725076.15942  24664612.374    24664611.899
  20500200.578   -28507248.08944 -22182164.54842  20500202.738    20500198.803
  21692887.925   -19049947.92943 -14833705.47642  21692890.651    21692888.148
  23810564.743   -11200616.53543  -8681744.33042  23810566.939    23810563.822
  22353218.086   -17168717.69843 -13364154.83642  22353219.839    22353217.463
  22732421.434   -14690489.64843 -11412082.38042  22732424.066    22732421.150
  20632254.195   -23345009.64944 -18178275.45842  20632256.256    20632252.563
  21795854.010   -19413551.10643 -14944391.57142  21795856.331    21795852.663
  24191473.312    -6408019.13143  -4976986.94842  24191475.346    24191478.140
 03  2 28  0  4  0.0000000  0 10G17G10G 6G26G16G15G29G23G18G30
  21056104.947   -23510809.00644 -18275848.01342  21056106.419    21056102.994
  24684769.968    -3410369.12343  -2642526.85942  24684771.725    24684771.416
  20506809.709   -28472516.79944 -22155101.21542  20506811.889    20506807.945
  21688052.815   -19075356.28143 -14853504.10542  21688055.560    21688053.025
  23803481.024   -11237841.38243  -8710750.68642  23803483.234    23803480.124
  22341456.832   -17230523.21443 -13412314.89742  22341458.586    22341456.201
  22734750.940   -14678247.94443 -11402543.37342  22734753.567    22734750.665
  20628589.515   -23364267.52744 -18193281.56042  20628591.583    20628587.867
  21781798.242   -19487414.38243 -15001947.27842  21781800.543    21781796.861
  24210739.313    -6306776.90243  -4898097.21142  24210741.365    24210744.157
 03  2 28  0  4 30.0000000  0 10G17G10G 6G26G16G15G29G23G18G30
  21051779.417   -23533539.77044 -18293560.27342  21051780.905    21051777.427
  24704925.688    -3304450.38243  -2559992.77742  24704927.414    24704927.118
  20513505.155   -28437331.93544 -22127684.45242  20513507.333    20513503.414
  21683328.930   -19100180.07943 -14872847.23342  21683331.685    21683329.102
  23796490.700   -11274575.96343  -8739375.01942  23796492.825    23796489.702
  22329712.582   -17292239.29943 -13460405.27542  22329714.329    22329711.955
  22737178.696   -14665490.09943 -11392602.18142  22737181.277    22737178.406
  20625008.006   -23383088.24744 -18207947.01842  20625010.077    20625006.355
  21767805.666   -19560945.50143 -15059244.16242  21767807.996    21767804.251
  24229990.017    -6205615.23243  -4819270.23642  24229991.997    24229994.951
 03  2 28  0  5  0.0000000  0 10G17G10G 6G26G16G15G29G23G18G30
  21047485.033   -23556106.82944 -18311144.97342  21047486.532    21047483.021
  24725085.055    -3198512.66143  -2477443.91142  24725086.561    24725086.452
  20520294.570   -28401653.34544 -22099882.96642  20520296.739    20520292.828
  21678724.244   -19124377.42843 -14891702.20942  21678727.023    21678724.357
  23789601.395   -11310779.10843  -8767585.23142  23789603.553    23789600.432
  22317993.059   -17353825.57643 -13508394.51442  22317994.793    22317992.406
  22739712.327   -14652175.78943 -11382227.38342  22739714.912    22739712.031
  20621517.299   -23401432.04444 -18222240.85342  20621519.334    20621515.606
  21753884.230   -19634102.86943 -15116249.81142  21753886.529    21753882.771
  24249232.509    -6104496.56143  -4740476.77242  24249234.448    24249237.525
 03  2 28  0  5 30.0000000  0  9G17G 6G26G16G15G29G23G18G30
  21043218.500   -23578527.49644 -18328615.60342  21043220.002    21043216.475
  20527174.594   -28365498.54644 -22071710.40542  20527176.773    20527172.865
  21674235.799   -19147964.12843 -14910081.35342  21674238.555    21674235.837
  23782810.125   -11346467.14343  -8795394.06642  23782812.326    23782809.252
  22306294.930   -17415299.31443 -13556296.06142  22306296.673    22306294.268
  22742348.537   -14638322.43343 -11371432.55642  22742351.138    22742348.213
  20618113.910   -23419316.83444 -18236177.02242  20618115.940    20618112.214
  21740030.778   -19706902.86643 -15172976.99142  21740033.065    21740029.287
  24268462.957    -6003440.96743  -4661732.46042  24268464.818    24268468.094
 03  2 28  0  6  0.0000000  0  9G17G 6G26G16G15G29G23G18G30
  21038982.371   -23600788.35244 -18345961.70442  21038983.876    21038980.347
  20534147.717   -28328854.58544 -22043156.67442  20534149.907    20534146.001
  21669866.357   -19170925.32443 -14927973.08742  21669869.144    21669866.395
  23776119.611   -11381626.21143  -8822790.71642  23776121.781    23776118.728
  22294620.731   -17476647.36943 -13604099.67142  22294622.467    22294620.051
  22745089.761   -14623917.24243 -11360207.72042  22745092.395    22745089.441
  20614800.294   -23436729.94144 -18249745.64242  20614802.321    20614798.574
  21726248.060   -19779331.21743 -15229414.58142  21726250.332    21726246.527
  24287683.381    -5902437.98843  -4583029.14142  24287685.242    24287688.605
 03  2 28  0  6 30.0000000  0  9G17G 6G26G16G15G29G23G18G30
  21034773.191   -23622907.64543 -18363197.49242  21034774.691    21034771.162
  20541210.414   -28291739.83644 -22014236.10642  20541212.611    20541208.701
  21665612.756   -19193277.81143 -14945390.50342  21665615.542    21665612.785
  23769526.409   -11416273.75043  -8849788.77042  23769528.581    23769525.446
  22282966.991   -17537887.91043 -13651819.50842  22282968.726    22282966.285
  22747932.561   -14608978.19343 -11348566.90042  22747935.180    22747932.239
  20611572.850   -23453690.14644 -18262961.34942  20611574.887    20611571.133
  21712532.895   -19851404.49443 -15285575.49442  21712535.178    21712531.344
  24306889.834    -5801508.26143  -4504382.93942  24306891.831    24306895.129
 03  2 28  0  7  0.0000000  0  9G17G 6G26G16G15G29G23G18G30
  21030588.055   -23644900.65243 -18380334.87342  21030589.521    21030586.014
  20548359.689   -28254170.17144 -21984961.05442  20548361.896    20548357.955
  21661472.324   -19215035.46943 -14962344.41542  21661475.112    21661472.334
  23763027.794   -11450424.44843  -8876399.69442  23763029.882    23763026.785
  22271330.828   -17599036.18743 -13699467.46142  22271332.552    22271330.059
  22750873.938   -14593521.10643 -11336522.40642  22750876.516    22750873.616
  20608428.532   -23470213.54944 -18275836.69842  20608430.560    20608426.813
  21698882.410   -19923138.00443 -15341471.65542  21698884.675    21698880.816
  24326078.982    -5700670.08043  -4425808.03642  24326080.888    24326084.298
 03  2 28  0  7 30.0000000  0  9G17G 6G26G16G15G29G23G18G30
  21026430.312   -23666749.71343 -18397360.09342  21026431.767    21026428.253
  20555598.852   -28216128.09544 -21955317.89742  20555601.068    20555597.125
  21657448.714   -19236179.42643 -14978820.12042  21657451.450    21657448.680
  23756627.255   -11484059.93243  -8902609.14642  23756629.223    23756626.183
  22259715.601   -17660074.47843 -13747029.68842  22259717.294    22259714.784
  22753917.212   -14577528.41743 -11324060.55642  22753919.748    22753916.921
  20605370.552   -23486283.15344 -18288358.43242  20605372.594    20605368.842
  21685300.034   -19994513.44043 -15397088.79942  21685302.290    21685298.440
  24345253.482    -5599908.54343  -4347292.86742  24345255.453    24345258.859
 03  2 28  0  8  0.0000000  0  9G17G 6G26G16G15G29G23G18G30
  21022308.059   -23688412.20744 -18414239.93042  21022309.513    21022306.000
  20562936.007   -28177571.38944 -21925273.72442  20562938.189    20562934.222
  21653550.227   -19256665.63043 -14994783.29442  21653552.978    21653550.167
  23750332.895   -11517136.95743  -8928383.44242  23750334.883    23750331.845
  22248129.379   -17720960.23743 -13794473.06442  22248131.081    22248128.511
  22757070.414   -14560957.97243 -11311148.49042  22757072.952    22757070.154
  20602406.858   -23501857.20944 -18300494.01142  20602408.921    20602405.169
  21671794.183   -20065486.72543 -15452392.58142  21671796.432    21671792.583
  24364420.971    -5499183.83743  -4268806.41242  24364423.061    24364426.429
 03  2 28  0  8 30.0000000  0  9G17G 6G26G16G15G29G23G18G30
  21018218.768   -23709901.34544 -18430984.69542  21018220.231    21018216.751
  20570368.408   -28138513.78244 -21894839.24242  20570370.615    20570366.621
  21649774.659   -19276505.96243 -15010243.19842  21649777.435    21649774.584
  23744142.423   -11549668.08243  -8953732.36542  23744144.410    23744141.380
  22236569.610   -17781706.95843 -13841808.09442  22236571.319    22236568.710
  22760330.963   -14543823.38643 -11297796.83542  22760333.500    22760330.742
  20599534.813   -23516949.74444 -18312254.39042  20599536.877    20599533.130
  21658362.541   -20136070.13143 -15507392.56242  21658364.772    21658360.918
  24383578.498    -5398511.72343  -4190360.92842  24383580.518    24383584.042
 03  2 28  0  9  0.0000000  0  9G17G 6G26G16G15G29G23G18G30
  21014156.916   -23731246.24343 -18447617.06842  21014158.388    21014154.935
  20577890.613   -28098984.39844 -21864037.14642  20577892.827    20577888.825
  21646116.785   -19295727.99143 -15025221.31542  21646119.565    21646116.646
  23738050.369   -11581681.51343  -8978677.88942  23738052.443    23738049.433
  22225030.875   -17842343.21643 -13889057.05842  22225032.571    22225029.922
  22763693.362   -14526153.63943 -11284028.17542  22763695.910    22763693.184
  20596748.763   -23531590.35944 -18323662.62742  20596750.820    20596747.073
  21644999.754   -20206291.78043 -15562110.65742  21645001.980    21644998.103
  24402719.943    -5297923.96343  -4111981.18442  24402721.941    24402725.601
 03  2 28  0  9 30.0000000  0  9G17G 6G26G16G15G29G23G18G30
  21010123.911   -23752439.70543 -18464131.43642  21010125.364    21010121.938
  20585503.871   -28058976.59944 -21832862.26042  20585506.075    20585502.061
  21642578.149   -19314323.36043 -15039711.12542  21642580.922    21642577.983
  23732058.450   -11613169.59443  -9003214.05042  23732060.433    23732057.423
  22213514.508   -17902861.77543 -13936214.30442  22213516.216    22213513.550
  22767158.840   -14507942.02343 -11269837.26942  22767161.443    22767158.727
  20594049.949   -23545772.65344 -18334713.72842  20594052.004    20594048.228
  21631707.412   -20276143.39543 -15616540.41542  21631709.601    21631705.704
  24421846.192    -5197416.06343  -4033663.68742  24421848.105    24421851.957
 03  2 28  0 10  0.0000000  0  9G17G 6G26G16G15G29G23G18G30
  21006118.739   -23773486.91644 -18480531.84342  21006120.188    21006116.751
  20593207.054   -28018496.15244 -21801319.07342  20593209.264    20593205.251
  21639157.982   -19332296.14843 -15053715.81142  21639160.751    21639157.782
  23726165.485   -11644137.32343  -9027344.72842  23726167.461    23726164.459
  22202019.503   -17963268.01943 -13983284.02942  22202021.217    22202018.559
  22770726.357   -14489194.40143 -11255228.70042  22770728.969    22770726.261
  20591437.153   -23559502.91244 -18345412.60542  20591439.182    20591435.397
  21618484.587   -20345629.53243 -15670685.38642  21618486.792    21618482.857
  24440955.766    -5096996.02943  -3955414.63842  24440957.649    24440961.551
 03  2 28  0 10 30.0000000  0  9G17G 6G26G16G15G29G23G18G30
  21002138.803   -23794401.44343 -18496828.86742  21002140.241    21002136.839
  20600997.472   -27977557.27744 -21769418.66942  20600999.665    20600995.690
  21635853.884   -19349658.91143 -15067245.16042  21635856.666    21635853.678
  23720368.941   -11674597.57543  -9051079.97142  23720371.048    23720368.028
  22190543.262   -18023575.69543 -14030276.94542  22190544.966    22190542.358
  22774393.142   -14469924.87343 -11240213.44642  22774395.778    22774393.112
  20588907.587   -23572795.69744 -18355770.58442  20588909.632    20588905.822
  21605328.858   -20414763.05643 -15724555.59742  21605331.050    21605327.119
  24460045.479    -4996680.35543  -3877246.91342  24460047.360    24460051.319
 03  2 28  0 11  0.0000000  0  9G17G 6G26G16G15G29G23G18G30
  20998186.279   -23815172.06143 -18513013.75242  20998187.687    20998184.284
  20608877.264   -27936148.78044 -21737152.32942  20608879.449    20608875.489
  21632668.351   -19366398.86143 -15080289.19842  21632671.102    21632668.096
  23714671.369   -11704538.58643  -9074410.62242  23714673.470    23714670.431
  22179087.942   -18083773.36643 -14077184.15442  22179089.640    22179087.082
  22778161.398   -14450122.31243 -11224782.85342  22778164.037    22778161.356
  20586463.296   -23585640.28244 -18365779.31442  20586465.345    20586461.529
  21592242.579   -20483531.55543 -15778141.37542  21592244.774    21592240.831
  24479117.007    -4896460.19243  -3799153.61742  24479118.865    24479122.898
 03  2 28  0 11 30.0000000  0  9G17G 6G26G16G15G29G23G18G30
  20994263.962   -23835783.88243 -18529074.90042  20994265.370    20994261.960
  20616849.079   -27894256.71144 -21704509.17942  20616851.253    20616847.321
  21629604.311   -19382500.31943 -15092835.70942  21629607.043    21629603.988
  23709075.497   -11733945.00743  -9097324.68942  23709077.578    23709074.592
  22167656.376   -18143846.35143 -14123994.19342  22167658.059    22167655.516
  22782033.785   -14429772.55743 -11208925.86642  22782036.405    22782033.723
  20584106.903   -23598022.96744 -18375428.12242  20584108.958    20584105.136
  21579228.703   -20551919.61643 -15831430.70542  21579230.890    21579226.941
  24498172.655    -4796323.68543  -3721125.51642  24498174.502    24498178.517
 03  2 28  0 12  0.0000000  0  9G17G 6G26G16G15G29G23G18G30
  20990370.543   -23856244.01644 -18545017.85042  20990371.948    20990368.496
  20624911.465   -27851888.63544 -21671495.11542  20624913.646    20624909.731
  21626660.664   -19397969.09543 -15104889.22642  21626663.388    21626660.261
  23703580.103   -11762823.43543  -9119827.35642  23703582.185    23703579.222
  22156247.205   -18203801.72143 -14170712.59742  22156248.891    22156246.313
  22786008.927   -14408883.02343 -11192648.28042  22786011.539    22786008.834
  20581836.938   -23609951.50144 -18384723.05142  20581839.003    20581835.169
  21566286.022   -20619933.61743 -15884428.56042  21566288.192    21566284.240
  24517210.517    -4696280.45443  -3643170.08542  24517212.361    24517216.377
 03  2 28  0 12 30.0000000  0  9G17G 6G26G16G15G29G23G18G30
  20986506.283   -23876550.90644 -18560841.39942  20986507.689    20986504.183
  20633064.687   -27809043.33344 -21638109.19442  20633066.839    20633062.947
  21623837.889   -19412802.65743 -15116447.77342  21623840.623    21623837.418
  23698185.349   -11791172.19143  -9141917.27442  23698187.586    23698184.624
  22144860.751   -18263637.78643 -14217338.03942  22144862.455    22144859.810
  22790086.962   -14387452.83143 -11175949.40742  22790089.512    22790086.822
  20579653.535   -23621425.23844 -18393663.59942  20579655.597    20579651.754
  21553415.013   -20687570.96443 -15937132.92242  21553417.176    21553413.217
  24536230.455    -4596331.62543  -3565288.23142  24536232.227    24536236.328
 03  2 28  0 13  0.0000000  0  9G17G 6G26G16G15G29G23G18G30
  20982671.826   -23896700.96544 -18576542.72842  20982673.258    20982669.720
  20641309.353   -27765717.48844 -21604348.81542  20641311.505    20641307.602
  21621136.923   -19426996.05343 -15127507.49042  21621139.643    21621136.404
  23692892.418   -11818986.63143  -9163590.83742  23692894.654    23692891.648
  22133497.755   -18323350.49643 -14263867.35442  22133499.475    22133496.788
  22794268.520   -14365478.65243 -11158826.64842  22794271.061    22794268.319
  20577557.235   -23632441.24144 -18402247.47542  20577559.304    20577555.455
  21540616.571   -20754826.97243 -15989540.13442  21540618.724    21540614.759
  24555232.566    -4496475.98343  -3487478.99542  24555234.322    24555238.564
 03  2 28  0 13 30.0000000  0  9G17G 6G26G16G15G29G23G18G30
  20978866.315   -23916698.87544 -18592125.50742  20978867.763    20978864.232
  20649644.326   -27721917.04444 -21570218.62342  20649646.468    20649642.561
  21618556.951   -19440553.72043 -15138071.83242  21618559.655    21618556.403
  23687700.228   -11846271.76743  -9184851.96842  23687702.443    23687699.439
  22122157.178   -18382945.42643 -14310304.90342  22122158.900    22122156.173
  22798552.472   -14342966.28743 -11141284.51942  22798555.042    22798552.205
  20575546.841   -23643005.79644 -18410479.56842  20575548.916    20575545.066
  21527889.799   -20821706.29343 -16041653.82142  21527891.954    21527887.991
  24574215.440    -4396721.36943  -3409748.48042  24574217.304    24574221.678
 03  2 28  0 14  0.0000000  0  9G17G 6G26G16G15G29G23G18G30
  20975090.819   -23936539.26043 -18607585.54142  20975092.254    20975088.713
  20658070.579   -27677636.91244 -21535714.64942  20658072.702    20658068.811
  21616099.224   -19453468.90243 -15148135.54142  21616101.925    21616098.680
  23682609.961   -11873021.72143  -9205696.07742  23682612.065    23682609.052
  22110840.120   -18442416.68743 -14356646.10042  22110841.841    22110839.092
  22802939.780   -14319910.67843 -11123319.08542  22802942.367    22802939.517
  20573623.245   -23653114.19244 -18418356.21442  20573625.316    20573621.484
  21515235.932   -20888202.40343 -16093468.90342  21515238.099    21515234.131
  24593179.577    -4297065.05043  -3332094.55342  24593181.533    24593186.007
 03  2 28  0 14 30.0000000  0  9G17G 6G26G16G15G29G23G18G30
  20971340.371   -23956247.99944 -18622942.99442  20971341.793    20971338.264
  20666583.072   -27632903.56844 -21500857.52242  20666585.203    20666581.312
  21613759.040   -19465766.39543 -15157717.93442  21613761.727    21613758.461
  23677616.660   -11899261.96243  -9226143.00642  23677618.680    23677615.675
  22099541.649   -18501790.10043 -14402911.04642  22099543.368    22099540.655
  22807425.455   -14296338.22043 -11104950.90442  22807428.040    22807425.103
  20571781.359   -23662793.29244 -18425898.33942  20571783.413    20571779.575
  21502650.201   -20954340.48043 -16145004.99342  21502652.362    21502648.410
  24612119.644    -4197535.41343  -3254539.34742  24612121.655    24612126.235
 03  2 28  0 15  0.0000000  0  9G17G 6G26G16G15G29G23G18G30
  20967620.143   -23975797.94543 -18638176.71342  20967621.575    20967618.026
  20675186.829   -27587690.67744 -21465626.72842  20675188.949    20675185.069
  21611541.627   -19477418.61243 -15166797.51942  21611544.308    21611541.039
  23672725.483   -11924965.25843  -9246171.54642  23672727.483    23672724.431
  22088266.945   -18561038.78243 -14449078.79542  22088268.639    22088265.923
  22812014.469   -14272222.67143 -11086159.53042  22812017.044    22812014.109
  20570026.125   -23672017.08544 -18433085.67642  20570028.175    20570024.315
  21490137.822   -21020093.02743 -16196240.66942  21490139.996    21490136.047
  24631040.294    -4098108.25043  -3177064.00442  24631042.301    24631046.965
 03  2 28  0 15 30.0000000  0  9G17G 6G26G16G15G29G23G18G30
  20963929.182   -23995194.09143 -18653290.58842  20963930.623    20963927.052
  20683880.725   -27542004.11144 -21430026.83942  20683882.834    20683878.962
  21609446.214   -19488429.74243 -15175377.56342  21609448.874    21609445.608
  23667935.458   -11950136.47143  -9265785.48242  23667937.658    23667934.510
  22077015.043   -18620167.91543 -14495153.40042  22077016.700    22077013.953
  22816705.625   -14247570.18343 -11066949.75942  22816708.243    22816705.288
  20568356.330   -23680791.87344 -18439923.14642  20568358.402    20568354.492
  21477698.009   -21085464.54243 -16247179.43742  21477700.169    21477696.198
  24649939.907    -3998791.38143  -3099674.58642  24649942.012    24649946.654
 03  2 28  0 16  0.0000000  0  9G17G 6G26G16G15G29G23G18G30
  20960269.531   -24014425.67143 -18668276.23042  20960270.961    20960267.395
  20692666.679   -27495833.73044 -21394049.94742  20692668.791    20692664.906
  21607475.019   -19498787.94243 -15183448.83442  21607477.694    21607474.456
  23663248.953   -11974764.53543  -9284976.18042  23663251.091    23663247.907
  22065788.038   -18679166.20843 -14541126.05242  22065789.663    22065786.880
  22821500.989   -14222370.17343 -11047313.35142  22821503.592    22821500.633
  20566773.841   -23689107.74644 -18446403.01742  20566775.910    20566772.004
  21465332.937   -21150443.23243 -16297812.11142  21465335.094    21465331.105
  24668820.198    -3899576.49343  -3022364.65342  24668822.303    24668826.950
 03  2 28  0 16 30.0000000  0  8G17G 6G26G16G15G29G23G18
  20956637.878   -24033510.09743 -18683147.20742  20956639.311    20956635.748
  20701541.298   -27449197.49044 -21357710.04142  20701543.402    20701539.504
  21605624.946   -19508509.73943 -15191024.20842  21605627.604    21605624.414
  23658662.607   -11998866.16543  -9303756.66242  23658664.700    23658661.543
  22054582.595   -18738051.15643 -14587010.38342  22054584.196    22054581.381
  22826397.135   -14196640.63943 -11027264.33042  22826399.724    22826396.777
  20565275.195   -23696983.09444 -18452539.62742  20565277.257    20565273.343
  21453039.440   -21215045.78643 -16348151.68842  21453041.622    21453037.588
 03  2 28  0 17  0.0000000  0  8G17G 6G26G16G15G29G23G18
  20953042.304   -24052404.93843 -18697870.44942  20953043.730    20953040.183
  20710512.422   -27402054.01444 -21320974.88742  20710514.541    20710510.624
  21603904.134   -19517552.25843 -15198070.27442  21603906.812    21603903.661
  23654184.381   -12022399.36743  -9322094.21242  23654186.447    23654183.368
  22043406.668   -18796780.80043 -14632773.69242  22043408.285    22043405.467
  22831401.898   -14170340.24143 -11006770.47342  22831404.517    22831401.529
  20563868.183   -23704376.86844 -18458300.98642  20563870.243    20563866.327
  21440825.665   -21279229.42643 -16398164.84442  21440827.842    21440823.781
 03  2 28  0 17 30.0000000  0  8G17G 6G26G16G15G29G23G18
  20949471.614   -24071168.96443 -18712491.75842  20949473.026    20949469.505
  20719568.631   -27354463.18744 -21283891.14542  20719570.794    20719566.864
  21602301.506   -19525973.84043 -15204632.49942  21602304.184    21602301.016
  23649803.150   -12045423.20243  -9340034.87642  23649805.149    23649802.069
  22032249.132   -18855413.82943 -14678461.71542  22032250.795    22032247.918
  22836503.890   -14143528.98443 -10985878.54942  22836506.494    22836503.532
  20562541.369   -23711349.23344 -18463733.95842  20562543.430    20562539.511
  21428680.429   -21343052.69743 -16447897.18542  21428682.633    21428678.552
 03  2 28  0 18  0.0000000  0  8G17G 6G26G16G15G29G23G18
  20945923.552   -24089814.02943 -18727020.36942  20945924.966    20945921.476
  20728707.688   -27306437.12444 -21246468.26942  20728709.843    20728705.935
  21600814.971   -19533785.36243 -15210719.35442  21600817.622    21600814.480
  23645516.607   -12067948.67243  -9357587.17542  23645518.670    23645515.586
  22021107.777   -18913961.85143 -14724083.50642  22021109.463    22021106.558
  22841700.778   -14116219.14143 -10964598.13342  22841703.335    22841700.389
  20561292.366   -23717912.67144 -18468848.27842  20561294.444    20561290.505
  21416601.727   -21406526.32043 -16497357.07742  21416603.948    21416599.846
 03  2 28  0 18 30.0000000  0  8G17G 6G26G16G15G29G23G18
  20942411.321   -24108270.79443 -18741402.24342  20942412.721    20942409.254
  20737942.606   -27257907.37144 -21208652.89842  20737944.748    20737940.847
  21599457.896   -19540916.66043 -15216276.16642  21599460.540    21599457.393
  23641338.246   -12089906.50543  -9374697.17142  23641340.222    23641337.173
  22009995.805   -18972355.36043 -14769584.89242  22009997.525    22009994.594
  22847005.547   -14088342.14343 -10942875.76842  22847008.141    22847005.161
  20560134.141   -23723999.05944 -18473590.87342  20560136.231    20560132.263
  21404602.902   -21469580.35743 -16546490.02142  21404605.104    21404600.992
 03  2 28  0 19  0.0000000  0  8G17G 6G26G16G15G29G23G18
  20938930.724   -24126561.46643 -18755654.69742  20938932.136    20938928.643
  20747268.911   -27208897.24944 -21170463.21342  20747271.058    20747267.187
  21598226.037   -19547389.77843 -15221320.11342  21598228.673    21598225.543
  23637263.430   -12111319.10743  -9391382.31042  23637265.503    23637262.442
  21998908.965   -19030616.94443 -14814983.48342  21998910.670    21998907.762
  22852413.798   -14059921.43943 -10920729.74942  22852416.360    22852413.415
  20559062.192   -23729632.03744 -18477980.17142  20559064.291    20559060.304
  21392679.673   -21532236.99443 -16595313.30242  21392681.900    21392677.757
 03  2 28  0 19 30.0000000  0  8G17G 6G26G16G15G29G23G18
  20935475.262   -24144720.21244 -18769804.35242  20935476.652    20935473.139
  20756680.056   -27159441.46444 -21131926.26342  20756682.182    20756678.342
  21597113.149   -19553237.94743 -15225877.08242  21597115.772    21597112.619
  23633286.106   -12132220.32243  -9407668.97242  23633288.144    23633285.083
  21987840.726   -19088780.54143 -14860305.71342  21987842.468    21987839.549
  22857918.903   -14030991.80043 -10898187.15542  22857921.472    22857918.504
  20558069.857   -23734846.63744 -18482043.45842  20558071.944    20558067.963
  21380825.763   -21594529.50343 -16643852.84642  21380827.997    21380823.810
 03  2 28  0 20  0.0000000  0  8G17G 6G26G16G15G29G23G18
  20932047.127   -24162735.14444 -18783841.93942  20932048.522    20932045.022
  20766178.038   -27109529.31444 -21093033.69542  20766180.156    20766176.357
  21596121.420   -19558449.06243 -15229937.65042  21596124.137    21596120.918
  23629408.418   -12152598.56843  -9423548.11442  23629410.311    23629407.257
  21976793.424   -19146834.45143 -14905542.47242  21976795.104    21976792.224
  22863522.918   -14001542.63743 -10875239.74942  22863525.444    22863522.478
  20557159.123   -23739632.45344 -18485772.63742  20557161.203    20557157.202
  21369043.524   -21656445.46443 -16692098.97842  21369045.724    21369041.516
 03  2 28  0 20 30.0000000  0  8G17G 6G26G16G15G29G23G18
  20928651.241   -24180580.33043 -18797747.24942  20928652.695    20928649.193
  20775767.604   -27059135.81344 -21053766.05242  20775769.727    20775765.965
  21595256.029   -19562996.56343 -15233481.10842  21595258.771    21595255.497
  23625634.918   -12172427.78143  -9438999.44342  23625636.919    23625633.874
  21965771.895   -19204752.64743 -14950673.48142  21965773.573    21965770.697
  22869230.577   -13971548.63343 -10851867.78342  22869233.131    22869230.139
  20556334.672   -23743964.77144 -18489148.44042  20556336.762    20556332.734
  21357337.921   -21717958.52544 -16740031.16242  21357340.130    21357335.900
 03  2 28  0 21  0.0000000  0  8G17G 6G26G16G15G29G23G18
  20925284.446   -24198272.91643 -18811533.65542  20925285.884    20925282.394
  20785445.271   -27008279.25744 -21014137.58142  20785447.424    20785443.696
  21594513.735   -19566897.44343 -15236520.72042  21594516.426    21594513.123
  23621962.587   -12191725.63743  -9454036.72342  23621964.725    23621961.592
  21954772.831   -19262552.68043 -14995712.41042  21954774.543    21954771.674
  22875038.409   -13941028.43543 -10828085.79742  22875040.944    22875037.959
  20555592.968   -23747862.29744 -18492185.44242  20555595.055    20555591.027
  21345705.744   -21779085.68643 -16787662.64442  21345707.960    21345703.708
 03  2 28  0 21 30.0000000  0  8G17G 6G26G16G15G29G23G18
  20921947.504   -24215808.53744 -18825197.74942  20921948.967    20921945.478
  20795211.784   -26956956.03644 -20974145.48842  20795213.912    20795210.204
  21593895.408   -19570146.66543 -15239052.53442  21593898.105    21593894.761
  23618392.452   -12210487.41743  -9468656.27942  23618394.426    23618391.337
  21943797.237   -19320229.69443 -15040655.48442  21943798.914    21943796.078
  22880947.035   -13909978.30643 -10803890.86842  22880949.613    22880946.620
  20554934.655   -23751321.61744 -18494880.98142  20554936.739    20554932.703
  21334148.003   -21839821.73843 -16834989.36542  21334150.208    21334145.939
 03  2 28  0 22  0.0000000  0  8G17G 6G26G16G15G29G23G18
  20918637.599   -24233202.07744 -18838751.11742  20918639.082    20918635.577
  20805063.990   -26905182.40844 -20933802.41742  20805066.130    20805062.403
  21593398.229   -19572759.08743 -15241088.14742  21593400.917    21593397.616
  23614921.354   -12228728.36843  -9482870.00842  23614923.371    23614920.215
  21932842.126   -19377798.92643 -15085514.57042  21932843.818    21932840.995
  22886953.356   -13878414.72643 -10779295.84042  22886955.964    22886952.971
  20554356.588   -23754359.25444 -18497247.93942  20554358.690    20554354.621
  21322661.822   -21900181.61843 -16882022.96942  21322664.047    21322659.746
 03  2 28  0 22 30.0000000  0  8G17G 6G26G16G15G29G23G18
  20915362.612   -24250412.10644 -18852161.49142  20915364.090    20915360.602
  20815009.631   -26852917.88344 -20893076.83442  20815011.769    20815008.003
  21593030.181   -19574692.87643 -15242594.95842  21593032.897    21593029.596
  23611557.053   -12246407.38443  -9496645.85542  23611559.197    23611556.047
  21921915.383   -19435218.99243 -15130257.41742  21921917.119    21921914.258
  22893065.111   -13846297.11143 -10754269.09442  22893067.692    22893064.725
  20553866.415   -23756935.00044 -18499254.97942  20553868.500    20553864.435
  21311255.192   -21960123.53644 -16928730.88442  21311257.422    21311253.102
 03  2 28  0 23  0.0000000  0  8G17G 6G26G16G15G29G23G18
  20912119.073   -24267456.82344 -18865443.05342  20912120.538    20912117.079
  20825045.081   -26800181.29244 -20851983.39742  20825047.224    20825043.468
  21592787.947   -19575965.72143 -15243586.75242  21592790.650    21592787.351
  23608296.345   -12263542.53343  -9509997.90442  23608298.521    23608295.338
  21911013.607   -19492507.87643 -15174898.04242  21911015.361    21911012.502
  22899278.624   -13813644.59643 -10728825.53142  22899281.240    22899278.284
  20553460.472   -23759068.21944 -18500917.19842  20553462.528    20553458.449
  21299924.819   -22019664.82944 -16975126.62542  21299927.049    21299922.670
 03  2 28  0 23 30.0000000  0  8G17G 6G26G16G15G29G23G18
  20908900.996   -24284367.65243 -18878620.29442  20908902.479    20908899.017
  20835164.132   -26747005.35943 -20810547.62342  20835166.257    20835162.527
  21592665.550   -19576608.94343 -15244087.92942  21592668.204    21592664.918
  23605132.985   -12280165.64543  -9522950.95142  23605135.250    23605132.035
  21900130.817   -19549697.08843 -15219460.99642  21900132.562    21900129.711
  22905587.755   -13780489.88743 -10702990.65442  22905590.370    22905587.362
  20553132.438   -23760791.95844 -18502260.34642  20553134.484    20553130.397
  21288664.737   -22078836.72644 -17021234.52642  21288666.955    21288662.556
 03  2 28  0 24  0.0000000  0  8G17G 6G26G16G15G29G23G18
  20905714.527   -24301112.70543 -18891668.35142  20905715.976    20905712.498
  20845372.592   -26693359.43543 -20768745.62542  20845374.736    20845371.026
  21592669.014   -19576590.59143 -15244073.59142  21592671.655    21592668.392
  23602073.100   -12296245.15543  -9535480.42442  23602075.399    23602072.102
  21889273.046   -19606755.02543 -15263921.66242  21889274.747    21889271.849
  22911998.222   -13746802.61543 -10676740.78442  22912000.831    22911997.764
  20552888.103   -23762075.79944 -18503260.71642  20552890.149    20552886.061
  21277480.970   -22137607.50044 -17067029.86242  21277483.197    21277478.782
 03  2 28  0 24 30.0000000  0  8G17G 6G26G16G15G29G23G18
  20902557.038   -24317705.17544 -18904597.51142  20902558.519    20902555.003
  20855667.793   -26639257.78643 -20726588.51442  20855669.930    20855666.251
  21592795.920   -19575923.60843 -15243553.81842  21592798.563    21592795.271
  23599114.179   -12311794.65943  -9547596.89742  23599116.458    23599113.100
  21878437.726   -19663694.76643 -15308290.21642  21878439.451    21878436.507
  22918507.340   -13712596.92343 -10650086.94742  22918509.948    22918506.841
  20552724.729   -23762934.22544 -18503929.59042  20552726.766    20552722.678
  21266371.148   -22195989.67243 -17112522.39042  21266373.364    21266368.946
 03  2 28  0 25  0.0000000  0  8G17G 6G26G16G15G29G23G18
  20899426.491   -24334156.19444 -18917416.45242  20899427.969    20899424.433
  20866047.372   -26584712.78443 -20684085.92642  20866049.523    20866045.840
  21593044.136   -19574619.08243 -15242537.25342  21593046.784    21593043.510
  23596254.052   -12326825.39943  -9559309.12942  23596256.243    23596252.774
  21867622.763   -19720527.58743 -15352575.45542  21867624.494    21867621.493
  22925112.723   -13677885.20043 -10623038.80942  22925115.361    22925112.162
  20552639.892   -23763379.89444 -18504276.83242  20552641.926    20552637.833
  21255333.203   -22253994.14643 -17157720.60242  21255335.416    21255330.984
 03  2 28  0 25 30.0000000  0  8G17G 6G26G16G15G29G23G18
  20896325.570   -24350451.45144 -18930114.02642  20896327.050    20896323.508
  20876513.841   -26529711.35643 -20641227.68942  20876515.961    20876512.287
  21593416.452   -19572662.52143 -15241012.61042  21593419.091    21593415.793
  23593495.024   -12341323.77543  -9570606.54542  23593497.330    23593493.744
  21856830.885   -19777239.05643 -15396766.14242  21856832.621    21856829.571
  22931816.875   -13642654.47643 -10595586.24142  22931819.540    22931816.312
  20552636.041   -23763400.06144 -18504292.51542  20552638.066    20552633.973
  21244369.885   -22311606.42143 -17202613.20942  21244372.103    21244367.655
 03  2 28  0 26  0.0000000  0  8G17G 6G26G16G15G29G23G18
  20893258.230   -24366570.30144 -18942674.13042  20893259.680    20893256.155
  20887070.746   -26474234.44143 -20597998.93542  20887072.878    20887069.192
  21593916.707   -19570033.61343 -15238964.04842  21593919.320    21593916.029
  23590841.183   -12355269.77943  -9581473.52442  23590843.522    23590839.914
  21846065.927   -19833809.05143 -15440846.58642  21846067.641    21846064.618
  22938623.431   -13606885.85743 -10567714.52942  22938626.051    22938622.818
  20552716.726   -23762975.89144 -18503961.95642  20552718.752    20552714.675
  21233485.125   -22368805.84544 -17247184.10942  21233487.348    21233482.900
 03  2 28  0 26 30.0000000  0  8G17G 6G26G16G15G29G23G18
  20890220.224   -24382535.06444 -18955114.17242  20890221.659    20890218.118
  20897713.816   -26418304.91643 -20554417.50542  20897715.906    20897712.231
  21594540.710   -19566754.18043 -15236408.58042  21594543.342    21594540.041
  23588288.166   -12368685.26843  -9591927.12642  23588290.571    23588287.020
  21835323.750   -19890259.50143 -15484833.88942  21835325.440    21835322.368
  22945527.898   -13570602.39243 -10539441.63942  22945530.504    22945527.294
  20552877.562   -23762130.54044 -18503303.20342  20552879.608    20552875.508
  21222674.834   -22425614.08344 -17291450.19442  21222677.044    21222672.577
 03  2 28  0 27  0.0000000  0  8G17G 6G26G16G15G29G23G18
  20887213.667   -24398334.57444 -18967425.44442  20887215.104    20887211.523
  20908444.798   -26361913.22043 -20510475.93842  20908446.912    20908443.248
  21595290.652   -19562813.25743 -15233337.67542  21595293.248    21595289.914
  23585838.272   -12381559.92943  -9601959.29142  23585840.510    23585837.079
  21824606.480   -19946579.13343 -15528719.25142  21824608.130    21824605.020
  22952532.177   -13533794.34343 -10510759.99142  22952534.739    22952531.572
  20553120.361   -23760854.56144 -18502308.89942  20553122.395    20553118.290
  21211941.106   -22482019.76444 -17335402.59642  21211943.317    21211938.874
 03  2 28  0 27 30.0000000  0  8G17G 6G26G16G15G29G23G18
  20884236.647   -24413978.76044 -18979615.67842  20884238.091    20884234.502
  20919261.666   -26305070.33543 -20466182.79142  20919263.771    20919260.087
  21596164.586   -19558220.62343 -15229758.93342  21596167.184    21596163.811
  23583489.120   -12393904.01443  -9611578.01442  23583491.422    23583488.083
  21813912.100   -20002777.89843 -15572510.42842  21813913.792    21813910.696
  22959634.110   -13496473.03543 -10481678.38942  22959636.677    22959633.525
  20553442.934   -23759159.23444 -18500987.82642  20553444.993    20553440.865
  21201282.141   -22538032.67843 -17379048.94442  21201284.328    21201279.912
 03  2 28  0 28  0.0000000  0  8G17G 6G26G16G15G29G23G18
  20881289.123   -24429467.97044 -18991685.15342  20881290.575    20881286.992
  20930163.987   -26247778.36243 -20421539.70842  20930166.087    20930162.408
  21597162.323   -19552977.24143 -15225673.12142  21597164.919    21597161.503
  23581240.764   -12405719.02943  -9620784.50242  23581243.028    23581239.757
  21803240.620   -20058856.48743 -15616207.96742  21803242.294    21803239.210
  22966833.371   -13458640.44243 -10452198.38542  22966835.917    22966832.800
  20553844.838   -23757046.99344 -18499341.89042  20553846.915    20553842.779
  21190697.849   -22593653.22244 -17422389.54842  21190699.997    21190695.601
 03  2 28  0 28 30.0000000  0  8G17G 6G26G16G15G29G23G18
  20878370.134   -24444807.19544 -19003637.75542  20878371.607    20878368.008
  20941150.617   -26190043.24443 -20376551.31942  20941152.745    20941149.054
  21598282.958   -19547087.96643 -15221084.01442  21598285.569    21598282.125
  23579092.149   -12417010.11043  -9629582.69642  23579094.332    23579091.132
  21792591.083   -20114819.82043 -15659815.68942  21792592.734    21792589.646
  22974128.636   -13420303.13943 -10422325.11142  22974131.233    22974128.095
  20554324.893   -23754524.14544 -18497375.99442  20554326.962    20554322.810
  21180187.253   -22648886.33044 -17465428.25642  21180189.421    21180185.027
 03  2 28  0 29  0.0000000  0  8G17G 6G26G16G15G29G23G18
  20875489.477   -24459944.96944 -19015433.38442  20875490.950    20875487.344
  20952231.090   -26131815.01943 -20331178.68642  20952233.225    20952229.541
  21599536.219   -19540501.73243 -15215951.82742  21599538.835    21599535.384
  23577052.955   -12427726.27143  -9637932.92042  23577055.077    23577051.869
  21781973.222   -20170616.74243 -15703293.73342  21781974.882    21781971.765
  22981529.545   -13381410.96543 -10392019.47742  22981532.140    22981528.991
  20554892.554   -23751540.87044 -18495051.32742  20554894.618    20554890.473
  21169760.249   -22703680.33644 -17508124.80342  21169762.415    21169757.984
 03  2 28  0 29 30.0000000  0  8G17G 6G26G16G15G29G23G18
  20872639.131   -24474923.53244 -19027104.95842  20872640.618    20872636.987
  20963397.102   -26073137.16643 -20285455.69842  20963399.246    20963395.570
  21600914.047   -19533260.78143 -15210309.46542  21600916.687    21600913.240
  23575114.872   -12437910.34543  -9645868.52342  23575117.081    23575113.869
  21771379.053   -20226289.27643 -15746674.85542  21771380.696    21771377.549
  22989027.742   -13342007.61843 -10361315.52142  22989030.300    22989027.132
  20555539.547   -23748140.89044 -18492401.95242  20555541.591    20555537.413
  21159408.831   -22758077.14544 -17550511.84842  21159410.994    21159406.526
 03  2 28  0 30  0.0000000  0  8G17G 6G26G16G15G29G23G18
  20869815.742   -24489760.43444 -19038666.14442  20869817.231    20869813.592
  20974645.128   -26014028.45143 -20239396.97742  20974647.269    20974643.623
  21602413.175   -19525382.63143 -15204170.58642  21602415.791    21602412.350
  23573274.719   -12447580.48043  -9653403.66642  23573276.850    23573273.630
  21760805.241   -20281854.67043 -15789972.48542  21760806.907    21760803.723
  22996619.622   -13302111.86843 -10330227.88442  22996622.180    22996618.985
  20556262.169   -23744343.34144 -18489442.78542  20556264.220    20556260.041
  21149129.666   -22812094.30544 -17592603.06042  21149131.820    21149127.323
 03  2 28  0 30 30.0000000  0  8G17G 6G26G16G15G29G23G18
  20867021.560   -24504443.88344 -19050107.76242  20867023.037    20867019.393
  20985977.060   -25954478.83443 -20192994.69542  20985979.212    20985975.560
  21604035.670   -19516856.09543 -15197526.47742  21604038.308    21604034.833
  23571534.383   -12456725.61543  -9660529.70842  23571536.494    23571533.372
  21750253.982   -20337301.56243 -15833177.77942  21750255.667    21750252.434
  23004307.092   -13261713.75143 -10298748.80442  23004309.638    23004306.434
  20557062.335   -23740138.23244 -18486166.03542  20557064.395    20557060.212
  21138924.981   -22865719.94444 -17634389.18942  21138927.147    21138922.631
 03  2 28  0 31  0.0000000  0  8G17G 6G26G16G15G29G23G18
  20864257.668   -24518968.14344 -19061425.33542  20864259.143    20864255.492
  20997393.743   -25894483.96943 -20146245.46542  20997395.889    20997392.211
  21605782.570   -19507675.82943 -15190372.97042  21605785.216    21605781.723
  23569894.930   -12465340.75743  -9667242.79142  23569897.073    23569893.883
  21739726.327   -20392624.27043 -15876286.30542  21739728.056    21739724.794
  23012090.902   -13220809.22843 -10266875.11842  23012093.464    23012090.228
  20557940.844   -23735521.52744 -18482568.55542  20557942.898    20557938.711
  21128795.847   -22918948.49544 -17675865.89942  21128798.036    21128793.512
 03  2 28  0 31 30.0000000  0  8G17G 6G26G16G15G29G23G18
  20861525.171   -24533327.27644 -19072614.23842  20861526.663    20861523.014
  21008895.973   -25834039.56943 -20099145.95042  21008898.095    21008894.396
  21607654.888   -19497836.46843 -15182705.87542  21607657.554    21607654.043
  23568357.238   -12473420.79443  -9673538.89042  23568359.429    23568356.243
  21729223.428   -20447817.19043 -15919293.70242  21729225.131    21729221.856
  23019971.926   -13179393.96743 -10234603.47042  23019974.528    23019971.256
  20558898.442   -23730489.14744 -18478647.17742  20558900.495    20558896.291
  21118743.410   -22971774.01743 -17717028.56242  21118745.612    21118741.081
 03  2 28  0 32  0.0000000  0  8G17G 6G26G16G15G29G23G18
  20858825.579   -24547513.61844 -19083668.49542  20858827.063    20858823.408
  21020484.970   -25773139.15743 -20051691.09542  21020487.093    21020483.362
  21609654.070   -19487330.32943 -15174519.21942  21609656.737    21609653.250
  23566922.846   -12480958.81143  -9679412.63242  23566924.984    23566921.815
  21718746.722   -20502872.33343 -15962193.74042  21718748.425    21718745.148
  23027951.278   -13137461.69243 -10201928.95442  23027953.926    23027950.699
  20559936.322   -23725034.80844 -18474396.99542  20559938.395    20559934.172
  21108769.211   -23024188.55744 -17757870.97642  21108771.391    21108766.849
 03  2 28  0 32 30.0000000  0  8G17G 6G26G16G15G29G23G18
  20856157.777   -24561532.74644 -19094592.46542  20856159.259    20856155.624
  21032159.371   -25711789.90043 -20003886.49742  21032161.493    21032157.734
  21611778.977   -19476163.65843 -15165817.86142  21611781.617    21611778.144
  23565590.314   -12487960.92743  -9684868.81742  23565592.493    23565589.297
  21708295.251   -20557795.06143 -16004990.60142  21708296.914    21708293.647
  23036027.682   -13095019.67743 -10168857.23042  23036030.305    23036027.137
  20561053.120   -23719165.85544 -18469823.74242  20561055.179    20561050.955
  21098872.081   -23076197.87044 -17798397.63342  21098874.272    21098869.727
 03  2 28  0 33  0.0000000  0  8G17G 6G26G16G15G29G23G18
  20853517.967   -24575404.92544 -19105401.92442  20853519.445    20853515.794
  21043914.976   -25650013.74243 -19955749.24542  21043917.130    21043913.357
  21614025.577   -19464357.25843 -15156618.02042  21614028.213    21614024.759
  23564355.832   -12494448.55243  -9689924.09242  23564357.916    23564354.715
  21697865.042   -20612606.02443 -16047700.37142  21697866.683    21697863.387
  23044196.893   -13052090.04343 -10135405.56442  23044199.525    23044196.387
  20562244.590   -23712904.56944 -18464944.77642  20562246.640    20562242.390
  21089048.172   -23127822.50744 -17838624.53842  21089050.359    21089045.806
 03  2 28  0 33 30.0000000  0  8G17G 6G26G16G15G29G23G18
  20850908.834   -24589115.79144 -19116085.68642  20850910.308    20850906.660
  21055754.229   -25587798.06843 -19907269.51942  21055756.388    21055752.637
  21616396.584   -19451897.29743 -15146908.91442  21616399.214    21616395.722
  23563221.818   -12500408.15343  -9694567.90842  23563223.858    23563220.609
  21687458.815   -20667290.83843 -16090311.84042  21687460.478    21687457.137
  23052461.310   -13008660.32143 -10101564.21242  23052463.852    23052460.737
  20563513.078   -23706238.34044 -18459750.26642  20563515.148    20563510.890
  21079300.215   -23179048.05244 -17878540.46642  21079302.409    21079297.816
 03  2 28  0 34  0.0000000  0  8G17G 6G26G16G15G29G23G18
  20848335.087   -24602640.84044 -19126624.65542  20848336.557    20848332.891
  21067681.503   -25525119.86643 -19858429.38342  21067683.646    21067679.928
  21618896.562   -19438759.81943 -15136671.86642  21618899.168    21618895.652
  23562192.702   -12505815.88243  -9698781.68942  23562194.813    23562191.485
  21677081.180   -20721825.30743 -16132806.15742  21677082.859    21677079.500
  23060825.318   -12964707.39643 -10067315.17542  23060827.800    23060824.669
  20564862.990   -23699144.26644 -18454222.38042  20564865.058    20564860.794
  21069632.816   -23229850.21644 -17918126.49242  21069635.014    21069630.400
 03  2 28  0 34 30.0000000  0  8G17G 6G26G16G15G29G23G18
  20845794.656   -24615990.89244 -19137027.25942  20845796.121    20845792.416
  21079694.467   -25461991.33443 -19809238.33942  21079696.621    21079692.906
  21621523.256   -19424956.41043 -15125915.91742  21621525.857    21621522.277
  23561266.418   -12510683.67043  -9702574.74342  23561268.462    23561265.096
  21666730.069   -20776220.15743 -16175191.68042  21666731.790    21666728.430
  23069286.435   -12920244.08343 -10032668.42942  23069288.876    23069285.747
  20566291.906   -23691635.06944 -18448371.02342  20566293.965    20566289.688
  21060043.971   -23280239.64644 -17957390.90342  21060046.171    21060041.512
 03  2 28  0 35  0.0000000  0  8G17G 6G26G16G15G29G23G18
  20843285.677   -24629175.62644 -19147301.04442  20843287.137    20843283.398
  21091790.958   -25398423.85943 -19759705.25442  21091793.104    21091789.408
  21624274.722   -19410497.19143 -15114648.94142  21624277.340    21624273.720
  23560440.786   -12515021.99143  -9705955.22642  23560442.892    23560439.489
  21656403.750   -20830485.12043 -16217475.99642  21656405.455    21656402.065
  23077842.486   -12875281.74343  -9997632.84242  23077844.954    23077841.750
  20567797.612   -23683722.33944 -18442205.22542  20567799.671    20567795.396
  21050531.796   -23330226.12344 -17996341.32642  21050533.990    21050529.312
 03  2 28  0 35 30.0000000  0  8G17G 6G26G16G15G29G23G18
  20840807.170   -24642200.14144 -19157449.98742  20840808.649    20840804.864
  21103969.717   -25334424.00243 -19709835.25942  21103971.860    21103968.167
  21627149.905   -19395387.75443 -15102875.30042  21627152.554    21627148.922
  23559714.825   -12518836.99943  -9708927.93642  23559716.902    23559713.541
  21646101.233   -20884625.07643 -16259662.90742  21646102.907    21646099.513
  23086492.263   -12829827.04143  -9962213.58742  23086494.690    23086491.470
  20569378.848   -23675412.64244 -18435730.10042  20569380.918    20569376.653
  21041095.322   -23379814.79544 -18034981.76942  21041097.528    21041092.824
 03  2 28  0 36  0.0000000  0  8G17G 6G26G16G15G29G23G18
  20838357.105   -24655075.17644 -19167482.45042  20838358.575    20838354.774
  21116228.338   -25270004.41143 -19659638.19942  21116230.497    21116226.829
  21630146.626   -19379639.78843 -15090604.11442  21630149.268    21630145.606
  23559086.138   -12522140.40943  -9711502.00242  23559088.207    23559084.937
  21635820.404   -20938650.99943 -16301760.95942  21635822.080    21635818.640
  23095233.215   -12783892.83743  -9926420.69042  23095235.698    23095232.433
  20571033.172   -23666718.89844 -18428955.71542  20571035.253    20571030.966
  21031732.405   -23429016.98944 -18073321.06042  21031734.591    21031729.888
 03  2 28  0 36 30.0000000  0  8G17G 6G26G16G15G29G23G18
  20835938.526   -24667784.65144 -19177385.90942  20835939.999    20835936.183
  21128569.584   -25205150.60043 -19609102.78542  21128571.751    21128568.136
  21633267.773   -19363237.92343 -15077823.39642  21633270.419    21633266.730
  23558557.698   -12524917.06343  -9713665.60142  23558559.814    23558556.583
  21625564.308   -20992546.92543 -16343757.71542  21625565.952    21625562.517
  23104068.175   -12737464.71743  -9890242.94242  23104070.676    23104067.406
  20572763.336   -23657626.66944 -18421870.82342  20572765.424    20572761.120
  21022446.099   -23477816.51444 -18111346.58042  21022448.300    21022443.567
 03  2 28  0 37  0.0000000  0  8G17G 6G26G16G15G29G23G18
  20833550.332   -24680334.67644 -19187165.11942  20833551.779    20833547.961
  21140991.993   -25139870.39043 -19558235.11542  21140994.155    21140990.562
  21636512.004   -19346189.10343 -15064538.55742  21636514.675    21636510.958
  23558128.244   -12527174.20743  -9715424.39442  23558130.269    23558127.102
  21615331.747   -21046319.06843 -16385658.02342  21615333.413    21615329.956
  23112995.591   -12690550.67443  -9853686.54142  23112998.090    23112994.896
  20574567.785   -23648144.03744 -18414481.71742  20574569.864    20574565.555
  21013235.275   -23526219.51944 -18149063.13042  21013237.468    21013232.680
 03  2 28  0 37 30.0000000  0  8G17G 6G26G16G15G29G23G18
  20831195.389   -24692709.78244 -19196808.03342  20831196.853    20831193.037
  21153498.204   -25074149.98543 -19507024.44042  21153500.336    21153496.779
  21639882.240   -19328478.34243 -15050737.92442  21639884.877    21639881.146
  23557800.343   -12528897.36943  -9716767.09542  23557802.369    23557799.166
  21605125.781   -21099951.57643 -16427449.52342  21605127.428    21605123.968
  23122018.073   -12643137.06343  -9816740.87942  23122020.579    23122017.428
  20576449.183   -23638257.15144 -18406777.60742  20576451.247    20576446.922
  21004102.702   -23574211.16844 -18186459.14442  21004104.905    21004100.078
 03  2 28  0 38  0.0000000  0  8G17G 6G26G16G15G29G23G18
  20828871.015   -24704924.26644 -19206325.78542  20828872.493    20828868.668
  21166085.075   -25008005.75343 -19455483.50942  21166087.195    21166083.636
  21643375.405   -19310121.37843 -15036433.75642  21643378.014    21643374.332
  23557571.126   -12530102.21043  -9717705.90442  23557573.097    23557569.835
  21594943.573   -21153459.16343 -16469143.68742  21594945.249    21594941.760
  23131132.475   -12595240.58843  -9779418.96442  23131135.011    23131131.831
  20578404.300   -23627982.78144 -18398771.56142  20578406.355    20578402.032
  20995045.695   -23621805.77444 -18223545.77442  20995047.906    20995043.041
 03  2 28  0 38 30.0000000  0  8G17G 6G26G16G15G29G23G18
  20826584.475   -24716940.04244 -19215688.69742  20826585.945    20826582.108
  21178759.503   -24941401.44343 -19403584.07742  21178761.597    21178758.056
  21646998.648   -19291080.89843 -15021596.98642  21647001.229    21646997.564
  23557447.402   -12530751.67243  -9718211.97142  23557449.426    23557446.193
  21584792.380   -21206803.89143 -16510710.95142  21584794.052    21584790.543
  23140345.656   -12546825.01043  -9741692.54742  23140348.182    23140344.981
  20580440.051   -23617284.61944 -18390435.28942  20580442.102    20580437.804
  20986071.422   -23668965.67944 -18260293.67942  20986073.613    20986068.731
 03  2 28  0 39  0.0000000  0  8G17G 6G26G16G15G29G23G18
  20824326.216   -24728807.09344 -19224935.71642  20824327.683    20824323.863
  21191511.638   -24874388.67843 -19351366.36642  21191513.717    21191510.182
  21650742.283   -19271407.69543 -15006267.18542  21650744.850    21650741.222
  23557419.831   -12530896.88343  -9718325.10142  23557421.778    23557418.587
  21574662.653   -21260035.71643 -16552190.23442  21574664.338    21574660.822
  23149647.816   -12497942.02943  -9703601.92642  23149650.339    23149647.088
  20582546.591   -23606214.44844 -18381809.13842  20582548.653    20582544.343
  20977170.308   -23715741.02844 -18296741.92842  20977172.493    20977167.591
 03  2 28  0 39 30.0000000  0  8G17G 6G26G16G15G29G23G18
  20822103.408   -24740487.85344 -19234037.57142  20822104.898    20822101.054
  21204348.268   -24806931.81843 -19298802.61042  21204350.336    21204346.804
  21654613.275   -19251065.26543 -14990415.91642  21654615.849    21654612.224
  23557494.950   -12530501.51443  -9718017.01342  23557497.052    23557493.761
  21564561.551   -21313117.14143 -16593552.32042  21564563.233    21564559.721
  23159045.626   -12448556.29543  -9665119.53742  23159048.132    23159044.874
  20584730.691   -23594736.79844 -18372865.47442  20584732.753    20584728.409
  20968349.421   -23762094.81644 -18332861.68942  20968351.596    20968346.668
 03  2 28  0 40  0.0000000  0  8G17G 6G26G16G15G29G23G18
  20819908.497   -24752022.18444 -19243025.32642  20819909.974    20819906.098
  21217261.510   -24739072.37043 -19245925.14042  21217263.583    21217260.038
  21658603.843   -19230094.29143 -14974074.86742  21658606.423    21658602.819
  23557665.152   -12529606.84643  -9717319.86442  23557667.258    23557664.000
  21554481.457   -21366087.92643 -16634828.19242  21554483.146    21554479.657
  23168531.252   -12398709.48643  -9626277.88342  23168533.701    23168530.407
  20586984.392   -23582893.43644 -18363636.84242  20586986.453    20586982.081
  20959601.127   -23808067.05744 -18368684.13942  20959603.335    20959598.361
 03  2 28  0 40 30.0000000  0  8G17G 6G26G16G15G29G23G18
  20817746.250   -24763384.71444 -19251879.21142  20817747.738    20817743.859
  21230255.841   -24670786.75243 -19192715.59542  21230257.918    21230254.376
  21662718.666   -19208470.56343 -14957225.18442  21662721.258    21662717.642
  23557935.269   -12528188.32143  -9716214.48142  23557937.192    23557933.905
  21544427.281   -21418922.56743 -16675997.97542  21544428.940    21544425.496
  23178108.986   -12348378.09443  -9587058.61942  23178111.461    23178108.150
  20589312.167   -23570660.79144 -18354104.87942  20589314.210    20589309.839
  20950930.237   -23853632.55244 -18404189.64742  20950932.429    20950927.450
 03  2 28  0 41  0.0000000  0  8G17G 6G26G16G15G29G23G18
  20815617.085   -24774573.40844 -19260597.64242  20815618.569    20815614.703
  21243331.251   -24602075.05143 -19139174.03442  21243333.355    21243329.801
  21666957.918   -19186193.13343 -14939866.12542  21666960.485    21666956.877
  23558305.127   -12526245.48543  -9714700.58042  23558306.855    23558303.677
  21534399.326   -21471619.48243 -16717060.43842  21534400.971    21534397.529
  23187778.869   -12297562.61243  -9547462.14442  23187781.275    23187777.984
  20591713.968   -23558039.15844 -18344269.80442  20591715.999    20591711.639
  20942337.037   -23898789.75044 -18439377.00142  20942339.232    20942334.243
 03  2 28  0 41 30.0000000  0  9G17G22G 6G26G16G15G29G23G18
  20813520.641   -24785590.13644 -19269182.07242  20813522.144    20813518.255
  24468428.806     -348163.37453   -270780.51352  24468429.527    24468427.600
  21256487.073   -24532940.78543 -19085303.20142  21256489.173    21256485.628
  21671321.014   -19163264.79943 -14921999.85542  21671323.584    21671319.929
  23558773.835   -12523781.34543  -9712780.46742  23558775.772    23558772.576
  21524397.297   -21524180.26543 -16758016.82842  21524398.940    21524395.489
  23197540.185   -12246266.52943  -9507491.16942  23197542.589    23197539.295
  20594189.139   -23545031.92744 -18334134.26642  20594191.167    20594186.785
  20933821.165   -23943540.74944 -18474247.83142  20933823.335    20933818.338
 03  2 28  0 42  0.0000000  0  9G17G22G 6G26G16G15G29G23G18
  20811461.708   -24796409.77444 -19277612.92042  20811463.210    20811459.303
  24466691.010     -357295.57143   -277896.47942  24466691.741    24466689.789
  21269727.632   -24463361.21743 -19031085.37442  21269729.719    21269726.179
  21675812.474   -19139661.87043 -14903607.93242  21675815.038    21675811.380
  23559346.347   -12520772.49143  -9710435.89842  23559348.306    23559345.090
  21514425.905   -21576580.15843 -16798847.84742  21514427.562    21514424.044
  23207397.196   -12194467.31743  -9467128.13842  23207399.619    23207396.386
  20596741.982   -23531616.50344 -18323680.66142  20596744.006    20596739.617
  20925387.164   -23987861.37344 -18508783.30442  20925389.337    20925384.331
 03  2 28  0 42 30.0000000  0  9G17G22G 6G26G16G15G29G23G18
  20809433.108   -24807070.18244 -19285919.69942  20809434.578    20809430.639
  24465049.526     -365922.84243   -284618.99742  24465049.949    24465048.084
  21283045.367   -24393376.08543 -18976551.52942  21283047.457    21283043.911
  21680424.884   -19115423.40843 -14884720.78042  21680427.434    21680423.730
  23560015.229   -12517257.88743  -9707697.20842  23560017.141    23560013.909
  21504477.913   -21628856.99643 -16839582.98142  21504479.590    21504476.031
  23217342.375   -12142204.89743  -9426404.15142  23217344.811    23217341.591
  20599364.910   -23517832.79444 -18312940.07842  20599366.926    20599362.538
  20917027.856   -24031789.56744 -18543012.99242  20917030.023    20917025.009
 03  2 28  0 43  0.0000000  0 10G17G22G 6G26G16G15G29G 2G23G18
  20807433.653   -24817577.20344 -19294106.95642  20807435.122    20807431.172
  24463502.741     -374052.04443   -290953.40042  24463503.016    24463501.002
  21296438.775   -24322993.29743 -18921707.82642  21296440.884    21296437.335
  21685156.864   -19090556.58143 -14865343.99442  21685159.390    21685155.698
  23560778.627   -12513245.05743  -9704570.31642  23560780.744    23560777.529
  21494552.176   -21681016.78943 -16880226.91142  21494553.878    21494550.283
  23227374.176   -12089487.16443  -9385325.37942  23227376.639    23227373.451
  25117813.751    -7510676.78053  -5820210.53952  25117815.594    25117814.178
  20602056.444   -23503688.46944 -18301918.49642  20602058.493    20602054.085
  20908742.022   -24075331.65844 -18576941.82042  20908744.188    20908739.143
 03  2 28  0 43 30.0000000  0 10G17G22G 6G26G16G15G29G 2G23G18
  20805469.853   -24827896.91444 -19302148.25842  20805471.315    20805467.379
  24462056.863     -381650.15343   -296873.95842  24462057.071    24462055.189
  21309913.959   -24252180.92743 -18866529.37442  21309916.053    21309912.498
  21690014.637   -19065028.65743 -14845452.05942  21690017.163    21690013.433
  23561643.144   -12508701.31743  -9701029.70942  23561645.387    23561642.174
  21484655.206   -21733025.59743 -16920753.19142  21484656.877    21484653.263
  23237498.602   -12036282.53943  -9343867.20742  23237501.095    23237497.898
  25112792.279    -7537064.59643  -5840772.44042  25112794.126    25112792.715
  20604822.659   -23489151.89344 -18290591.26342  20604824.654    20604820.281
  20900536.014   -24118454.22744 -18610543.75342  20900538.189    20900533.112
 03  2 28  0 44  0.0000000  0 10G17G22G 6G26G16G15G29G 2G23G18
  20803539.504   -24838040.81244 -19310052.56542  20803540.964    20803537.048
  24460709.584     -388729.58043   -302390.36642  24460709.888    24460707.960
  21323468.309   -24180952.41743 -18811026.65642  21323470.420    21323466.875
  21694995.741   -19038852.47143 -14825054.97542  21694998.307    21694994.541
  23562606.455   -12503639.84343  -9697085.68642  23562608.625    23562605.330
  21474784.767   -21784894.94943 -16961170.80042  21474786.410    21474782.784
  23247713.153   -11982604.65843  -9302040.25942  23247715.640    23247712.421
  25107850.687    -7563032.20143  -5861006.91942  25107852.648    25107851.266
  20607660.897   -23474236.68444 -18278968.99242  20607662.896    20607658.532
  20892407.561   -24161169.39144 -18643828.22442  20892409.715    20892404.611
 03  2 28  0 44 30.0000000  0 10G17G22G 6G26G16G15G29G 2G23G18
  20801644.073   -24848001.32344 -19317813.97342  20801645.535    20801641.594
  24459462.275     -395283.49643   -307497.28242  24459462.704    24459460.753
  21337102.978   -24109301.85943 -18755195.07942  21337105.080    21337101.534
  21700101.474   -19012021.44943 -14804147.63542  21700104.060    21700100.248
  23563669.457   -12498054.10043  -9692733.14642  23563671.628    23563668.175
  21464942.347   -21836616.91343 -17001473.57142  21464944.014    21464940.324
  23258018.814   -11928447.86743  -9259840.13142  23258021.278    23258018.106
  25102990.583    -7588572.06443  -5880908.08942  25102992.604    25102991.255
  20610572.271   -23458937.10144 -18267047.21142  20610574.290    20610569.911
  20884358.039   -24203469.61844 -18676789.37042  20884360.193    20884355.078
 03  2 28  0 45  0.0000000  0 10G17G22G 6G26G16G15G29G 2G23G18
  20799784.910   -24857771.21244 -19325426.84442  20799786.353    20799782.437
  24458316.428     -401305.94443   -312190.06042  24458316.673    24458314.627
  21350818.876   -24037224.41443 -18699030.85842  21350820.990    21350817.453
  21705332.864   -18984529.93643 -14782725.62042  21705335.497    21705331.656
  23564833.292   -12491938.86943  -9687968.01242  23564835.330    23564831.821
  21455129.237   -21888184.84243 -17041656.31542  21455130.922    21455127.202
  23268416.528   -11873807.62643  -9217263.29142  23268418.959    23268415.794
  25098213.146    -7613677.45043  -5900470.70842  25098215.152    25098213.740
  20613557.737   -23443248.20644 -18254822.07142  20613559.766    20613555.393
  20876388.642   -24245348.75644 -18709422.39742  20876390.803    20876385.663
 03  2 28  0 45 30.0000000  0 10G17G22G 6G26G16G15G29G 2G23G18
  20797959.266   -24867364.85144 -19332902.37342  20797960.718    20797956.811
  24457268.505     -406812.55443   -316480.91342  24457268.702    24457266.739
  21364612.822   -23964736.79543 -18642547.02142  21364614.926    21364611.412
  21710686.903   -18956394.09243 -14760801.52642  21710689.539    21710685.668
  23566094.441   -12485309.97043  -9682802.63042  23566096.714    23566093.212
  21445342.742   -21939613.09543 -17081730.21542  21445344.433    21445340.662
  23278903.059   -11818700.60543  -9174322.71042  23278905.525    23278902.267
  25093515.493    -7638363.26343  -5919706.37042  25093517.610    25093516.170
  20616614.118   -23427186.71044 -18242306.58842  20616616.136    20616611.777
  20868496.541   -24286821.68244 -18741738.88742  20868498.705    20868493.564
 03  2 28  0 46  0.0000000  0 10G17G22G 6G26G16G15G29G 2G23G18
  20796165.399   -24876791.54844 -19340247.82342  20796166.858    20796162.945
  24456316.729     -411813.35743   -320377.62542  24456317.044    24456315.134
  21378482.721   -23891850.03743 -18585752.16642  21378484.857    21378481.340
  21716161.631   -18927624.06543 -14738383.26242  21716164.269    21716160.372
  23567451.685   -12478178.09443  -9677245.31342  23567453.808    23567450.323
  21435581.103   -21990910.60743 -17121702.24442  21435582.805    21435579.018
  23289476.272   -11763137.91643  -9131027.06342  23289478.734    23289475.464
  25088896.040    -7662638.80143  -5938622.35542  25088898.119    25088896.735
  20619739.277   -23410763.67844 -18229509.39442  20619741.314    20619736.937
  20860679.997   -24327897.70644 -18773746.10342  20860682.151    20860676.998
 03  2 28  0 46 30.0000000  0 10G17G22G 6G26G16G15G29G 2G23G18
  20794400.752   -24886064.72444 -19347473.64342  20794402.190    20794398.299
  24455458.527     -416323.16543   -323891.72642  24455458.823    24455456.802
  21392425.567   -23818579.85743 -18528658.54242  21392427.700    21392424.213
  21721754.118   -18898235.17943 -14715482.78242  21721756.741    21721752.825
  23568901.587   -12470558.39743  -9671307.86342  23568903.806    23568900.261
  21425841.673   -22042091.32943 -17161583.26442  21425843.390    21425839.614
  23300133.132   -11707135.85243  -9087389.04942  23300135.592    23300132.257
  25084351.875    -7686518.24543  -5957229.68042  25084353.917    25084352.495
  20622930.254   -23393994.91944 -18216442.79442  20622932.289    20622927.915
  20852936.196   -24368591.28144 -18805455.31342  20852938.359    20852933.209
 03  2 28  0 47  0.0000000  0 10G17G22G 6G26G16G15G29G 2G23G18
  20792670.406   -24895157.65544 -19354559.01442  20792671.849    20792667.944
  24454698.623     -420316.40243   -327003.32942  24454698.803    24454696.904
  21406446.063   -23744901.67543 -18471246.99442  21406448.161    21406444.726
  21727469.151   -18868202.20343 -14692080.41242  21727471.771    21727467.856
  23570449.258   -12462425.91343  -9664970.84842  23570451.309    23570447.834
  21416129.584   -22093128.45043 -17201352.38442  21416131.286    21416127.494
  23310878.190   -11650669.85743  -9043389.53442  23310880.706    23310877.364
  25079888.219    -7709975.47143  -5975508.02142  25079890.189    25079888.768
  20626191.680   -23376855.85044 -18203087.64142  20626193.730    20626189.339
  20845270.145   -24408876.22044 -18836846.10942  20845272.309    20845267.169
 03  2 28  0 47 30.0000000  0 10G17G22G 6G26G16G15G29G 2G23G18
  20790973.024   -24904077.43844 -19361509.46442  20790974.435    20790970.528
  24454035.445     -423800.71843   -329718.34742  24454035.698    24454033.812
  21420542.560   -23670824.21243 -18413524.32042  21420544.646    21420541.226
  21733305.242   -18837533.17143 -14668182.41742  21733307.858    21733303.918
  23572092.786   -12453788.80743  -9658240.63142  23572094.951    23572091.402
  21406443.575   -22144028.46543 -17241014.67142  21406445.291    21406441.468
  23321709.904   -11593748.66743  -8999035.32342  23321712.464    23321709.082
  25075503.471    -7733017.19543  -5993462.58842  25075505.458    25075503.987
  20629521.933   -23359355.20644 -18189450.74142  20629523.989    20629519.571
  20837680.558   -24448759.61544 -18867924.01842  20837682.680    20837677.550
 03  2 28  0 48  0.0000000  0 10G17G22G 6G26G16G15G29G 2G23G18
  20789309.856   -24912817.16144 -19368319.61042  20789311.303    20789307.393
  24453470.272     -426771.00343   -332032.81842  24453470.437    24453468.570
  21434715.841   -23596343.25043 -18355487.23342  21434717.938    21434714.514
  21739263.272   -18806223.32943 -14643785.09342  21739265.897    21739261.926
  23573833.423   -12444642.42343  -9651113.56342  23573835.447    23573831.892
  21396784.914   -22194785.02743 -17280565.17942  21396786.599    21396782.737
  23332628.991   -11536368.42543  -8954323.40842  23332631.543    23332628.185
  25071199.124    -7755637.64143  -6011088.86242  25071201.101    25071199.410
  20632921.773   -23341488.81744 -18175528.84142  20632923.813    20632919.378
  20830168.416   -24488235.89244 -18898684.69542  20830170.529    20830165.392
 03  2 28  0 48 30.0000000  0 10G17G22G 6G26G16G15G29G 2G23G18
  20787685.324   -24921353.98244 -19374971.65242  20787686.785    20787682.850
  24453007.128     -429205.73943   -333930.00942  24453007.081    24453005.279
  21448969.805   -23521438.34943 -18297119.80142  21448971.875    21448968.465
  21745347.253   -18774251.62443 -14618872.04642  21745349.880    21745345.874
  23575674.721   -12434965.82043  -9643573.33042  23575676.846    23575673.275
  21387157.781   -22245375.70343 -17319986.42442  21387159.487    21387155.575
  23343639.324   -11478508.89443  -8909238.02642  23343641.838    23343638.451
  25066978.886    -7777814.44743  -6028369.46642  25066980.894    25066979.318
  20636395.110   -23323236.28944 -18161306.05842  20636397.116    20636392.669
  20822737.963   -24527282.98244 -18929110.94142  20822740.058    20822734.906
 03  2 28  0 49  0.0000000  0 10G17G22G 6G26G16G15G29G 2G23G18
  20786096.236   -24929704.49243 -19381478.51242  20786097.699    20786093.765
  24452642.272     -431122.72843   -335423.72242  24452642.169    24452640.548
  21463300.871   -23446128.09843 -18238436.51242  21463302.980    21463299.566
  21751553.739   -18741636.11943 -14593457.32842  21751556.365    21751552.364
  23577613.775   -12424777.08043  -9635634.06142  23577615.680    23577612.060
  21377559.073   -22295816.98543 -17359291.25742  21377560.798    21377556.850
  23354737.183   -11420188.93043  -8863793.85842  23354739.738    23354736.380
  25062840.208    -7799564.62343  -6045317.63642  25062841.945    25062840.431
  20639938.364   -23304616.21044 -18146796.86442  20639940.384    20639935.911
  20815385.973   -24565917.59944 -18959215.77442  20815388.064    20815382.913
 03  2 28  0 49 30.0000000  0 10G17G22G 6G26G16G15G29G 2G23G18
  20784541.066   -24937876.67044 -19387846.41442  20784542.554    20784538.634
  24452374.105     -432531.16443   -336521.18442  24452374.138    24452372.511
  21477707.131   -23370422.81243 -18179445.40442  21477709.245    21477705.809
  21757880.891   -18708386.53143 -14567548.53242  21757883.515    21757879.519
  23579648.103   -12414086.05143  -9627303.37842  23579650.066    23579646.494
  21367987.312   -22346116.70643 -17398485.78442  21367989.038    21367985.069
  23365920.655   -11361419.04043  -8817999.10942  23365923.256    23365919.888
  25058780.654    -7820896.87843  -6061940.14742  25058782.583    25058780.932
  20643549.553   -23285639.04744 -18132009.42842  20643551.576    20643547.118
  20808110.754   -24604148.95544 -18989006.37742  20808112.829    20808107.656
 03  2 28  0 50  0.0000000  0 10G17G22G 6G26G16G15G29G 2G23G18
  20783020.384   -24945867.80044 -19394073.24042  20783021.866    20783017.934
  24452203.163     -433429.63643   -337221.25142  24452203.168    24452201.501
  21492188.637   -23294321.96143 -18120146.05742  21492190.765    21492187.357
  21764328.951   -18674501.73943 -14541144.77542  21764331.541    21764327.546
  23581778.123   -12402891.72943  -9618580.50142  23581780.210    23581776.713
  21358442.968   -22396272.29943 -17437568.00742  21358444.702    21358440.720
  23377189.922   -11302198.64543  -8771853.32642  23377192.452    23377189.185
  25054801.134    -7841808.77943  -6078235.10842  25054803.035    25054801.444
  20647228.845   -23266304.03844 -18116943.14942  20647230.880    20647226.406
  20800912.637   -24641975.02244 -19018481.17042  20800914.721    20800909.523
 03  2 28  0 50 30.0000000  0 10G17G22G 6G26G16G15G29G 2G23G18
  20781535.872   -24953668.88744 -19400151.97242  20781537.340    20781533.412
  24452130.764     -433810.27843   -337517.84342  24452130.797    24452129.023
  21506746.729   -23217818.62143 -18060533.08542  21506748.887    21506745.483
  21770899.287   -18639974.30143 -14514240.24942  21770901.896    21770897.892
  23584005.609   -12391186.94743  -9609459.88842  23584007.560    23584004.083
  21348927.809   -22446274.53143 -17476530.72542  21348929.522    21348925.555
  23388546.056   -11242521.35243  -8725351.52542  23388548.605    23388545.365
  25050903.409    -7862291.75243  -6094195.84742  25050905.153    25050903.729
  20650977.503   -23246604.36744 -18101592.71942  20650979.559    20650975.085
  20793793.321   -24679387.01144 -19047633.31142  20793795.402    20793790.186
 03  2 28  0 51  0.0000000  0 10G17G22G 6G26G16G15G29G 2G23G18
  20780083.974   -24961298.55244 -19406097.13442  20780085.451    20780081.495
  24452152.847     -433693.23543   -337426.61042  24452153.131    24452151.381
  21521377.426   -23140933.88043 -18000622.92642  21521379.584    21521376.193
  21777588.033   -18604824.77943 -14486850.98942  21777590.619    21777586.607
  23586326.024   -12378992.16243  -9599957.44942  23586328.145    23586324.696
  21339438.254   -22496142.22143 -17515388.60742  21339439.986    21339435.978
  23399985.190   -11182408.19443  -8678510.08942  23399987.728    23399984.498
  25047083.569    -7882365.40643  -6109837.62442  25047085.220    25047083.914
  20654791.623   -23226560.93744 -18085974.42642  20654793.647    20654789.180
  20786749.028   -24716404.83744 -19076478.31242  20786751.111    20786745.855
 03  2 28  0 51 30.0000000  0 10G17G22G 6G26G16G15G29G 2G23G18
  20778667.605   -24968741.56244 -19411896.85142  20778669.068    20778665.095
  24452272.415     -433064.64143   -336936.78942  24452272.863    24452270.975
  21536083.147   -23063654.89143 -17940405.55342  21536085.287    21536081.948
  21784397.623   -18569040.02343 -14458966.73842  21784400.207    21784396.188
  23588742.321   -12366294.04843  -9590062.80742  23588744.482    23588741.066
  21329977.207   -22545860.28243 -17554129.89442  21329978.896    21329974.874
  23411509.648   -11121846.71343  -8631319.31042  23411512.143    23411508.995
  25043344.261    -7902015.19043  -6125149.12042  25043345.903    25043344.668
  20658673.605   -23206160.85344 -18070078.21942  20658675.616    20658671.146
  20779782.520   -24753013.98644 -19105004.85942  20779784.585    20779779.291
 03  2 28  0 52  0.0000000  0 10G17G22G 6G26G16G15G29G 2G23G18
  20777284.225   -24976011.20744 -19417561.47942  20777285.678    20777281.673
  24452486.547     -431939.10843   -336059.71842  24452486.973    24452485.052
  21550860.987   -22985997.00143 -17879892.93742  21550863.094    21550859.758
  21791325.327   -18532634.67443 -14430598.90342  21791327.881    21791323.890
  23591251.679   -12353107.58343  -9579787.62042  23591253.763    23591250.377
  21320542.139   -22595441.61943 -17592764.64842  21320543.826    21320539.774
  23423116.476   -11060852.23743  -8583791.14242  23423118.939    23423115.857
  25039682.923    -7921254.64443  -6140140.88342  25039684.672    25039683.235
  20662620.497   -23185419.54144 -18053916.12242  20662622.519    20662618.039
  20772891.095   -24789228.45244 -19133223.86242  20772893.172    20772887.842
 03  2 28  0 52 30.0000000  0 10G17G22G 6G26G16G15G29G 2G23G18
  20775932.760   -24983113.07744 -19423095.37542  20775934.198    20775930.194
  24452793.865     -430323.45443   -334800.76242  24452794.435    24452792.474
  21565709.349   -22907968.36343 -17819091.42842  21565711.476    21565708.141
  21798369.670   -18495616.41743 -14401753.48142  21798372.187    21798368.197
  23593852.431   -12339440.40243  -9569137.86542  23593854.520    23593851.128
  21311131.949   -22644892.18243 -17631297.50342  21311133.626    21311129.568
  23434804.073   -10999433.20243  -8535932.12642  23434806.555    23434803.528
  25036098.647    -7940090.08343  -6154817.83042  25036100.504    25036098.959
  20666630.850   -23164344.97944 -18037494.35242  20666632.855    20666628.362
  20766073.610   -24825054.49744 -19161140.19742  20766075.667    20766070.323
 03  2 28  0 53  0.0000000  0 10G17G22G 6G26G16G15G29G 2G23G18
  20774620.699   -24990008.00844 -19428468.02442  20774622.122    20774618.094
  24453201.819     -428180.45443   -333130.88142  24453202.288    24453200.223
  21580635.220   -22829532.30843 -17757972.44242  21580637.353    21580634.048
  21805537.657   -18457948.26243 -14372401.64242  21805540.163    21805536.186
  23596551.712   -12325255.57143  -9558084.75342  23596553.741    23596550.386
  21301754.091   -22694173.02843 -17669698.11842  21301755.726    21301751.683
  23446579.392   -10937553.32643  -8487714.02442  23446581.906    23446578.843
  25032598.626    -7958483.34443  -6169150.21542  25032600.486    25032598.756
  20670711.567   -23142900.58744 -18020784.40642  20670713.561    20670709.059
  20759337.292   -24860453.91844 -19188724.10242  20759339.348    20759333.980
 03  2 28  0 53 30.0000000  0 10G17G22G 6G26G16G15G29G 2G23G18
  20773341.485   -24996730.17744 -19433706.05442  20773342.940    20773338.873
  24453703.378     -425545.81143   -331077.90542  24453703.695    24453701.453
  21595631.655   -22750725.53643 -17696564.59342  21595633.797    21595630.512
  21812822.420   -18419666.30043 -14342571.50742  21812824.951    21812820.999
  23599342.465   -12310589.27243  -9546656.46042  23599344.603    23599341.293
  21292402.042   -22743318.27243 -17707993.06542  21292403.668    21292399.597
  23458435.470   -10875249.14543  -8439165.29642  23458437.953    23458434.855
  25029176.021    -7976469.39143  -6183165.30742  25029177.817    25029175.999
  20674855.687   -23121122.91644 -18003814.76142  20674857.703    20674853.172
  20752675.501   -24895461.70144 -19216002.84742  20752677.548    20752672.159
 03  2 28  0 54  0.0000000  0 10G17G22G 6G26G16G15G29G 2G23G18
  20772099.221   -25003258.37544 -19438792.93442  20772100.626    20772096.562
  24454302.160     -422399.66043   -328626.33542  24454302.232    24454300.148
  21610702.287   -22671528.94043 -17634852.98442  21610704.413    21610701.138
  21820227.678   -18380751.15543 -14312247.98142  21820230.194    21820226.268
  23602228.776   -12295422.03843  -9534837.83242  23602230.781    23602227.482
  21283079.860   -22792306.51143 -17746165.67042  21283081.472    21283077.384
  23470375.838   -10812501.95343  -8390271.35042  23470378.336    23470375.189
  25025834.525    -7994027.60243  -6196847.01742  25025836.619    25025834.757
  20679066.887   -23098992.73644 -17986570.43242  20679068.889    20679064.377
  20746092.129   -24930057.42844 -19242960.50542  20746094.158    20746088.747
 03  2 28  0 54 30.0000000  0 10G17G22G 6G26G16G15G29G 2G23G18
  20770899.587   -25009562.19444 -19443704.97442  20770901.008    20770896.937
  24455003.358     -418713.26943   -325753.80942  24455003.764    24455001.651
  21625852.370   -22591914.65143 -17572815.89742  21625854.517    21625851.239
  21827758.855   -18341174.50243 -14281408.99742  21827761.356    21827757.428
  23605215.684   -12279725.82643  -9522606.99542  23605217.626    23605214.328
  21273793.286   -22841107.53843 -17784192.39142  21273794.905    21273790.804
  23482405.766   -10749284.24443  -8341010.75042  23482408.212    23482405.060
  25022580.322    -8011128.48143  -6210172.35442  25022582.350    25022580.586
  20683350.435   -23076482.27044 -17969029.78142  20683352.457    20683347.962
  20739592.763   -24964211.54244 -19269574.04942  20739594.817    20739589.369
 03  2 28  0 55  0.0000000  0 10G17G22G 6G26G16G15G29G 2G23G18
  20769732.742   -25015694.14444 -19448483.09542  20769734.114    20769730.039
  24455797.367     -414541.08143   -322502.73142  24455797.565    24455795.580
  21641071.473   -22511937.85843 -17510496.34742  21641073.613    21641070.330
  21835405.439   -18300991.32243 -14250097.39242  21835407.953    21835403.994
  23608292.862   -12263555.41143  -9510006.67542  23608294.781    23608291.407
  21264532.280   -22889774.23343 -17822114.44042  21264533.879    21264529.794
  23494514.724   -10685651.25143  -8291426.56142  23494517.181    23494513.946
  25019402.928    -8027825.51543  -6223183.01142  25019404.838    25019403.286
  20687695.882   -23053646.65244 -17951235.76642  20687697.891    20687693.403
  20733167.201   -24997977.76644 -19295885.34342  20733169.262    20733163.832
 03  2 28  0 55 30.0000000  0 10G17G22G 6G26G16G15G29G 2G23G18
  20768602.426   -25021633.86044 -19453111.41842  20768603.804    20768599.709
  24456687.382     -409863.85543   -318858.14542  24456687.665    24456685.548
  21656363.056   -22431580.21543 -17447880.02242  21656365.190    21656361.921
  21843171.042   -18260182.63743 -14218298.37342  21843173.587    21843169.601
  23611463.776   -12246891.97943  -9497022.19142  23611465.765    23611462.350
  21255300.825   -22938285.46743 -17859915.34942  21255302.435    21255298.380
  23506706.182   -10621584.86443  -8241504.65042  23506708.632    23506705.317
  25016306.139    -8044098.79943  -6235863.47642  25016308.040    25016306.497
  20692106.730   -23030467.29544 -17933173.90242  20692108.727    20692104.273
  20726819.240   -25031336.20544 -19321878.87742  20726821.306    20726815.887
 03  2 28  0 56  0.0000000  0 10G17G22G 6G26G16G15G29G 2G23G18
  20767503.772   -25027407.16244 -19457610.06742  20767505.182    20767501.058
  24457668.160     -404709.53843   -314841.77242  24457668.479    24457666.383
  21671721.576   -22350870.53643 -17384989.38442  21671723.735    21671720.481
  21851050.229   -18218777.01743 -14186034.20642  21851052.811    21851048.810
  23614723.111   -12229763.99043  -9483675.70042  23614725.116    23614721.682
  21246093.910   -22986667.85743 -17897615.86542  21246095.505    21246091.492
  23518974.555   -10557114.03843  -8191267.59542  23518977.062    23518973.704
  25013285.180    -8059975.26643  -6248234.74242  25013286.850    25013285.244
  20696577.519   -23006972.94144 -17914866.58742  20696579.527    20696575.064
  20720543.671   -25064314.24444 -19347575.99342  20720545.735    20720540.333
 03  2 28  0 56 30.0000000  0 10G17G22G 6G26G16G15G29G 2G23G18
  20766440.332   -25032995.41044 -19461964.52042  20766441.731    20766437.631
  24458743.212     -399060.68243   -310440.06242  24458743.418    24458741.383
  21687150.288   -22269792.26643 -17321811.54142  21687152.425    21687149.172
  21859046.292   -18176757.32243 -14153291.54742  21859048.878    21859044.858
  23618074.082   -12212154.59743  -9469954.10742  23618076.124    23618072.587
  21236915.178   -23034902.28543 -17935201.08342  21236916.753    21236912.762
  23531323.048   -10492222.35243  -8140702.59842  23531325.497    23531322.109
  25010342.810    -8075436.87943  -6260282.74642  25010344.531    25010343.019
  20701111.451   -22983146.92744 -17896300.83942  20701113.455    20701108.969
  20714343.992   -25096893.47944 -19372962.35442  20714346.060    20714340.670
 03  2 28  0 57  0.0000000  0 10G17G22G 6G26G16G15G29G 2G23G18
  20765409.824   -25038410.76544 -19466184.25242  20765411.208    20765407.077
  24459909.473     -392931.35443   -305663.95742  24459909.829    24459907.744
  21702646.322   -22188360.25543 -17258358.04642  21702648.441    21702645.170
  21867156.354   -18134138.43443 -14120081.98642  21867158.951    21867154.946
  23621513.726   -12194078.21343  -9455868.63142  23621515.943    23621512.461
  21227762.232   -23083001.22343 -17972680.72542  21227763.795    21227759.797
  23543748.688   -10426925.00643  -8089821.51442  23543751.158    23543747.702
  25007477.027    -8090497.06643  -6272017.93942  25007478.708    25007477.192
  20705705.686   -22959004.03544 -17877488.17542  20705707.684    20705703.180
  20708217.597   -25129087.62544 -19398048.64542  20708219.670    20708214.272
 03  2 28  0 57 30.0000000  0 10G17G22G 6G26G16G15G29G 2G23G18
  20764418.691   -25043619.04044 -19470242.62242  20764420.098    20764415.975
  24461173.553     -386289.02643   -300488.10242  24461173.971    24461171.710
  21718215.695   -22106542.85643 -17194604.24942  21718217.796    21718214.523
  21875386.572   -18090888.06543 -14086380.35742  21875389.188    21875385.193
  23625048.637   -12175502.80343  -9441394.29342  23625050.743    23625047.276
  21218641.624   -23130930.28243 -18010027.99242  21218643.172    21218639.170
  23556257.515   -10361190.57143  -8038599.83742  23556259.999    23556256.435
  25004693.982    -8105122.13943  -6283414.07642  25004695.690    25004694.082
  20710366.305   -22934512.30844 -17858403.68842  20710368.310    20710363.770
  20702170.829   -25160863.42144 -19422808.95442  20702172.889    20702167.476
 03  2 28  0 58  0.0000000  0 10G17G22G 6G26G16G15G29G 2G23G18
  20763465.079   -25048630.36743 -19474147.52642  20763466.490    20763462.324
  24462532.962     -379145.55843   -294921.76342  24462533.136    24462531.096
  21733856.032   -22024352.54043 -17130559.87342  21733858.133    21733854.819
  21883734.633   -18047018.58743 -14052196.30742  21883737.232    21883733.235
  23628676.103   -12156440.69243  -9426540.71842  23628678.158    23628674.635
  21209551.383   -23178699.63043 -18047250.80842  21209552.934    21209548.921
  23568847.130   -10295031.71943  -7987047.46242  23568849.590    23568845.997
  25001991.759    -8119323.27543  -6294479.91842  25001993.476    25001991.762
  20715090.894   -22909684.39343 -17839057.24042  20715092.891    20715088.347
  20696201.646   -25192231.51944 -19447251.57242  20696203.699    20696198.254
 03  2 28  0 58 30.0000000  0 10G17G22G 6G26G16G15G29G 2G23G18
  20762553.240   -25053421.84843 -19477881.12242  20762554.678    20762550.517
  24463991.700     -371479.98843   -288948.59542  24463991.882    24463989.826
  21749571.155   -21941769.17743 -17066209.22542  21749573.245    21749569.942
  21892204.377   -18002509.65543 -14017513.98242  21892206.959    21892202.962
  23632400.120   -12136871.54943  -9411292.03442  23632402.075    23632398.576
  21200495.872   -23226286.53443 -18084331.45642  21200497.397    21200493.382
  23581521.237   -10228428.73143  -7935149.00342  23581523.700    23581520.101
  24999373.781    -8133078.84943  -6305198.51742  24999375.696    24999374.135
  20719883.294   -22884500.09343 -17819433.09242  20719885.303    20719880.730
  20690314.137   -25223170.47944 -19471359.79542  20690316.185    20690310.699
 03  2 28  0 59  0.0000000  0 10G17G22G 6G26G16G15G29G 2G23G18
  20761677.535   -25058023.60244 -19481466.87642  20761678.958    20761674.823
  24465543.533     -363324.18743   -282593.42542  24465543.923    24465541.824
  21765354.813   -21858825.51643 -17001577.83042  21765356.921    21765353.640
  21900789.636   -17957393.60143 -13982358.58842  21900792.246    21900788.207
  23636214.302   -12116827.60143  -9395673.38442  23636216.379    23636212.816
  21191469.303   -23273721.10643 -18121293.40542  21191470.856    21191466.818
  23594273.655   -10161414.38143  -7882930.02242  23594276.071    23594272.477
  24996835.245    -8146419.93343  -6315594.15542  24996836.994    24996835.419
  20724737.343   -22858991.79644 -17799556.47742  20724739.348    20724734.783
  20684502.375   -25253711.38144 -19495157.84342  20684504.433    20684498.895
 03  2 28  0 59 30.0000000  0 10G17G22G 6G26G16G15G29G 2G23G18
  20760835.421   -25062448.85444 -19484915.09842  20760836.829    20760832.704
  24467185.806     -354693.17143   -275867.94942  24467186.339    24467184.366
  21781204.042   -21775537.23843 -16936677.90742  21781206.151    21781202.903
  21909487.523   -17911685.85243 -13946742.13342  21909490.108    21909486.052
  23640115.936   -12096324.51343  -9379696.96642  23640118.006    23640114.464
  21182469.251   -23321016.39843 -18158146.83242  21182470.812    21182466.765
  23607101.281   -10094004.46243  -7830402.80442  23607103.690    23607100.163
  24994372.746    -8159360.39543  -6325677.61242  24994374.445    24994372.885
  20729650.117   -22833174.99344 -17779439.46942  20729652.116    20729647.523
  20678763.649   -25283868.44944 -19518656.80242  20678765.713    20678760.137
 03  2 28  1  0  0.0000000  0 10G17G22G 6G26G16G15G29G 2G23G18
  20760029.917   -25066681.66644 -19488213.36342  20760031.334    20760027.194
  24468921.570     -345572.52943   -268760.95842  24468921.969    24468919.889
  21797121.394   -21691890.99543 -16871499.04042  21797123.518    21797120.269
  21918300.580   -17865372.80443 -13910654.01142  21918303.161    21918299.075
  23644107.572   -12075348.38643  -9363351.94742  23644109.661    23644106.097
  21173498.735   -23368156.49643 -18194879.32342  21173500.292    21173496.249
  23620006.675   -10026185.73543  -7777557.02642  23620009.103    23620005.612
  24991989.195    -8171885.54143  -6335437.46542  24991991.005    24991989.385
  20734624.164   -22807036.09544 -17759071.47442  20734626.161    20734621.575
  20673100.790   -25313626.73844 -19541845.02242  20673102.868    20673097.285
 03  2 28  1  0 30.0000000  0 11G17G22G 6G26G 3G16G15G29G 2G23G18
  20759261.409   -25070720.06644 -19491360.14042  20759262.818    20759258.688
  24470750.253     -335962.73343   -261272.80242  24470750.561    24470748.551
  21813106.692   -21607887.86343 -16806042.08642  21813108.804    21813105.541
  21927228.689   -17818455.15343 -13874094.79142  21927231.280    21927227.165
  24581290.702    -5587424.48853  -4298328.13952  24581292.842    24581290.335
  23648189.068   -12053899.85543  -9346638.81342  23648191.147    23648187.650
  21164558.108   -23415139.72743 -18231489.58842  21164559.633    21164555.575
  23632989.691    -9957959.51543  -7724393.74642  23632992.076    23632988.587
  24989684.975    -8183994.52043  -6344873.03642  24989686.919    24989685.106
  20739659.358   -22780575.93144 -17738453.14642  20739661.345    20739656.763
  20667513.980   -25342985.52244 -19564721.94842  20667516.055    20667510.451
 03  2 28  1  1  0.0000000  0 11G17G22G 6G26G 3G16G15G29G 2G23G18
  20758534.222   -25074541.25244 -19494337.66042  20758535.617    20758531.523
  24472675.982     -325842.64243   -253387.02042  24472676.362    24472674.333
  21829163.802   -21523507.45743 -16740291.15242  21829165.881    21829162.626
  21936275.811   -17770912.30943 -13837048.40542  21936278.396    21936274.199
  24562366.441    -5686872.03343  -4375819.64242  24562368.524    24562365.981
  23652364.482   -12031958.35743  -9329541.55642  23652366.419    23652363.016
  21155651.746   -23461942.95043 -18267959.58442  21155653.247    21155649.172
  23646054.076    -9889305.54843  -7670897.15442  23646056.489    23646052.998
  24987464.184    -8195665.54643  -6353967.31842  24987465.858    24987464.244
  20744759.566   -22753774.07344 -17717568.55542  20744761.550    20744756.962
  20662007.233   -25371923.47244 -19587270.95042  20662009.308    20662003.688
 03  2 28  1  1 30.0000000  0 11G17G22G 6G26G 3G16G15G29G 2G23G18
  20757846.027   -25078157.65844 -19497155.60942  20757847.429    20757843.317
  24474696.364     -315226.42943   -245114.64742  24474696.483    24474694.559
  21845289.829   -21438764.57643 -16674257.76942  21845291.924    21845288.684
  21945439.052   -17722758.89643 -13799526.25042  21945441.646    21945437.467
  24543473.237    -5786156.35043  -4453183.95942  24543475.282    24543472.784
  23656630.826   -12009538.56543  -9312071.61342  23656632.796    23656629.328
  21146777.244   -23508578.57043 -18304298.97942  21146778.770    21146774.665
  23659196.963    -9820239.18743  -7617079.21342  23659199.409    23659195.910
  24985324.019    -8206911.91143  -6362730.72242  24985325.684    24985324.090
  20749921.953   -22726645.26744 -17696429.19942  20749923.949    20749919.391
  20656578.119   -25400453.38944 -19609502.00542  20656580.200    20656574.570
 03  2 28  1  2  0.0000000  0 11G17G22G 6G26G 3G16G15G29G 2G23G18
  20757193.690   -25081585.61144 -19499826.70842  20757195.090    20757190.974
  24476807.308     -304132.51943   -236470.01342  24476807.493    24476805.726
  21861481.167   -21353678.54343 -16607956.99842  21861483.265    21861480.065
  21954714.841   -17674014.04543 -13761543.22842  21954717.443    21954713.287
  24524608.153    -5885292.71243  -4530432.97842  24524610.301    24524607.683
  23660984.593   -11986659.37543  -9294243.69042  23660986.557    23660983.131
  21137931.470   -23555063.25243 -18340520.75842  21137932.991    21137928.856
  23672414.633    -9750779.54143  -7562954.80542  23672417.092    23672413.672
  24983261.371    -8217751.19243  -6371176.91742  24983262.996    24983261.503
  20755142.992   -22699208.43544 -17675049.82542  20755144.985    20755140.411
  20651223.226   -25428593.23244 -19631429.10942  20651225.309    20651219.680
 03  2 28  1  2 30.0000000  0 11G17G22G 6G26G 3G16G15G29G 2G23G18
  20756577.500   -25084823.51844 -19502349.72042  20756578.920    20756574.787
  24479009.071     -292561.49543   -227453.64042  24479009.474    24479007.611
  21877737.563   -21268250.65143 -16541389.84142  21877739.673    21877736.495
  21964103.008   -17624678.88643 -13723100.23442  21964105.563    21964101.463
  24505771.924    -5984277.59043  -4607563.97342  24505774.115    24505771.372
  23665425.586   -11963322.17543  -9276058.86742  23665427.533    23665424.091
  21129114.676   -23601395.50943 -18376623.76542  21129116.234    21129112.053
  23685706.877    -9680928.32643  -7508525.28842  23685709.330    23685705.928
  24981276.137    -8228183.27643  -6379305.81542  24981277.940    24981276.261
  20760422.464   -22671464.53744 -17653431.17742  20760424.455    20760419.893
  20645942.628   -25456342.66144 -19653051.98942  20645944.694    20645939.093
 03  2 28  1  3  0.0000000  0 11G17G22G 6G26G 3G16G15G29G 2G23G18
  20755998.707   -25087864.90844 -19504719.60242  20756000.137    20755995.992
  24481302.953     -280508.70043   -218061.84542  24481303.027    24481301.130
  21894059.813   -21182476.77843 -16474553.09342  21894061.916    21894058.732
  21973604.303   -17574749.16743 -13684193.93242  21973606.853    21973602.766
  24486966.035    -6083102.84943  -4684570.57342  24486968.294    24486965.386
  23669954.473   -11939522.52843  -9257513.70242  23669956.487    23669953.021
  21120328.175   -23647568.51843 -18412602.68342  21120329.744    21120325.555
  23699074.367    -9610681.64843  -7453787.60842  23699076.887    23699073.415
  24979369.554    -8238202.52143  -6387113.00342  24979371.364    24979369.586
  20765761.166   -22643409.44944 -17631570.04142  20765763.149    20765758.568
  20640737.433   -25483695.95044 -19674366.19342  20640739.482    20640733.871
 03  2 28  1  3 30.0000000  0 11G17G22G 6G26G 3G16G15G29G 2G23G18
  20755458.144   -25090705.56644 -19506933.06642  20755459.550    20755455.413
  24483688.518     -267971.97743   -208292.96042  24483688.730    24483686.788
  21910448.225   -21096355.49843 -16407445.63742  21910450.268    21910447.117
  21983219.048   -17524223.20743 -13644823.02642  21983221.577    21983217.519
  24468191.589    -6181762.56343  -4761448.18942  24468193.801    24468190.896
  23674571.761   -11915258.51143  -9238606.67942  23674573.728    23674570.330
  21111572.782   -23693578.08843 -18448454.24242  21111574.361    21111570.178
  23712517.333    -9540038.23843  -7398740.78642  23712519.870    23712516.399
  24977542.029    -8247806.02043  -6394596.25242  24977543.927    24977542.116
  20771159.329   -22615041.66244 -17609465.24042  20771161.329    20771156.773
  20635608.196   -25510650.06044 -19695369.34742  20635610.239    20635604.604
 03  2 28  1  4  0.0000000  0 11G17G22G 6G26G 3G16G15G29G 2G23G18
  20754955.136   -25093348.74944 -19508992.65842  20754956.543    20754952.402
  24486165.300     -254956.76643   -198151.24142  24486165.419    24486163.477
  21926901.568   -21009892.67543 -16340072.04442  21926903.649    21926900.490
  21992946.130   -17473106.94143 -13604992.13842  21992948.663    21992944.612
  24449448.398    -6280258.20143  -4838197.93442  24449450.574    24449447.757
  23679276.214   -11890535.90543  -9219342.33142  23679278.238    23679274.857
  21102847.876   -23739427.51343 -18484181.01242  21102849.471    21102845.289
  23726034.667    -9469004.34943  -7343389.69442  23726037.136    23726033.680
  24975792.904    -8256998.31243  -6401759.06042  24975794.677    24975792.962
  20776615.950   -22586366.87044 -17587121.21242  20776617.951    20776613.378
  20630554.055   -25537209.63744 -19716065.07142  20630556.073    20630550.430
 03  2 28  1  4 30.0000000  0 11G17G22G 6G26G 3G16G15G29G 2G23G18
  20754487.436   -25095806.40544 -19510907.68442  20754488.841    20754484.693
  24488730.072     -241476.89243   -187647.44542  24488730.659    24488728.561
  21943417.111   -20923103.12643 -16272443.86042  21943419.178    21943416.043
  22002782.781   -17421414.92743 -13564712.61442  22002785.337    22002781.256
  24430734.464    -6378600.19343  -4914827.96642  24430736.598    24430733.787
  23684065.245   -11865369.56743  -9199732.21842  23684067.208    23684063.862
  21094151.161   -23785128.81643 -18519792.36442  21094152.772    21094148.560
  23739623.428    -9397594.85043  -7287745.89442  23739625.891    23739622.434
  24974119.655    -8265792.54243  -6408611.70642  24974121.160    24974119.484
  20782128.231   -22557399.53744 -17564549.23242  20782130.241    20782125.651
  20625572.426   -25563387.98744 -19736463.73342  20625574.452    20625568.812
 03  2 28  1  5  0.0000000  0 11G17G22G 6G26G 3G16G15G29G 2G23G18
  20754065.296   -25098024.71444 -19512636.20442  20754066.715    20754062.522
  24491393.548     -227480.90743   -176741.48342  24491394.009    24491391.947
  21960004.502   -20835936.13143 -16204521.56242  21960006.575    21960003.389
  22012738.683   -17369096.23743 -13523944.76842  22012741.229    22012737.147
  24412060.362    -6476733.26643  -4991295.20042  24412062.502    24412059.635
  23688948.460   -11839708.20443  -9179736.37042  23688950.348    23688947.063
  21085492.836   -23830628.54643 -18555246.64642  21085494.431    21085490.208
  23753293.324    -9325759.02143  -7231769.89542  23753295.771    23753292.306
  24972531.514    -8274136.21443  -6415113.27742  24972533.517    24972531.820
  20787705.849   -22528088.71344 -17541709.59342  20787707.877    20787703.277
  20620673.313   -25589132.83244 -19756524.59742  20620675.321    20620669.693
 03  2 28  1  5 30.0000000  0 11G17G22G 6G26G 3G16G15G29G 2G23G18
  20753682.515   -25100036.17744 -19514203.54842  20753683.923    20753679.715
  24494148.849     -213003.31443   -165460.20442  24494148.930    24494146.832
  21976657.041   -20748426.78243 -16136332.49742  21976659.118    21976655.878
  22022807.154   -17316185.83643 -13482715.84942  22022809.727    22022805.611
  24393420.147    -6574687.98543  -5067623.45442  24393422.211    24393419.379
  23693919.244   -11813586.72543  -9159381.97542  23693921.110    23693917.785
  21076866.778   -23875958.61143 -18590568.72842  21076868.368    21076864.130
  23767037.584    -9253532.45143  -7175489.42142  23767040.053    23767036.543
  24971023.233    -8282062.98143  -6421289.95242  24971025.159    24971023.350
  20793342.225   -22498469.18744 -17518629.40742  20793344.253    20793339.654
  20615850.350   -25614477.55944 -19776273.67742  20615852.332    20615846.697
 03  2 28  1  6  0.0000000  0 11G17G22G 6G26G 3G16G15G29G 2G23G18
  20753335.470   -25101859.64444 -19515624.40142  20753336.902    20753332.668
  24496991.496     -198065.03943   -153819.98542  24496991.603    24496989.361
  21993370.589   -20660596.83343 -16067893.60942  21993372.665    21993369.368
  22032984.131   -17262705.35843 -13441042.70742  22032986.717    22032982.584
  24374810.538    -6672481.70043  -5143826.25642  24374812.567    24374809.716
  23698973.367   -11787026.85143  -9138685.98842  23698975.296    23698971.934
  21068269.405   -23921137.96643 -18625773.37142  21068270.976    21068266.749
  23780852.098    -9180936.74243  -7118921.28442  23780854.601    23780850.996
  24969590.699    -8289592.99943  -6427157.50342  24969592.233    24969590.486
  20799033.293   -22468562.24444 -17495325.26042  20799035.323    20799030.730
  20611099.634   -25639442.48744 -19795726.80842  20611101.640    20611095.970
 03  2 28  1  6 30.0000000  0 11G17G22G 6G26G 3G16G15G29G 2G23G18
  20753028.562   -25103472.33844 -19516881.01442  20753029.983    20753025.749
  24499925.630     -182645.71343   -141804.90642  24499925.853    24499923.519
  22010148.937   -20572426.22943 -15999189.28042  22010151.008    22010147.724
  22043273.451   -17208634.58743 -13398909.60942  22043276.032    22043271.880
  24356236.246    -6770089.89043  -5219884.47942  24356238.462    24356235.432
  23704114.970   -11760008.30743  -9117632.59242  23704116.800    23704113.384
  21059705.024   -23966143.90643 -18660842.88242  21059706.593    21059702.352
  23794740.612    -9107952.10743  -7062050.10642  23794743.115    23794739.481
  24968237.157    -8296704.87443  -6432699.21342  24968238.925    24968237.072
  20804782.917   -22438347.66244 -17471781.39442  20804784.931    20804780.325
  20606425.322   -25664006.03944 -19814867.17442  20606427.309    20606421.622
 03  2 28  1  7  0.0000000  0 11G17G22G 6G26G 3G16G15G29G 2G23G18
  20752762.178   -25104872.09644 -19517971.70442  20752763.592    20752759.342
  24502950.942     -166745.49043   -129415.09942  24502951.658    24502949.183
  22026991.911   -20483915.84843 -15930220.19242  22026994.003    22026990.749
  22053674.883   -17153974.45443 -13356317.25542  22053677.476    22053673.316
  24337697.948    -6867509.11843  -5295795.46142  24337700.068    24337697.051
  23709343.535   -11732531.76943  -9096222.31042  23709345.393    23709341.972
  21051173.984   -24010974.50843 -18695775.76542  21051175.566    21051171.318
  23808702.937    -9034579.54643  -7004876.64142  23808705.444    23808701.753
  24966963.249    -8303397.94343  -6437914.61342  24966965.239    24966963.338
  20810590.935   -22407826.18944 -17447998.39142  20810592.939    20810588.330
  20601827.496   -25688167.49044 -19833694.22042  20601829.495    20601823.802
 03  2 28  1  7 30.0000000  0 11G17G22G 6G26G 3G16G15G29G 2G23G18
  20752531.548   -25106083.91044 -19518915.95042  20752532.968    20752528.716
  24506063.102     -150391.61743   -116671.81842  24506063.568    24506061.222
  22043894.250   -20395093.54143 -15861008.04142  22043896.365    22043893.134
  22064183.148   -17098752.90743 -13313287.45842  22064185.759    22064181.590
  24319191.145    -6964762.74443  -5371577.40342  24319193.218    24319190.319
  23714654.102   -11704624.90043  -9074476.71442  23714655.936    23714652.450
  21042671.558   -24055654.80943 -18730591.53542  21042673.144    21042668.884
  23822733.632    -8960847.43643  -6947423.00942  23822736.220    23822732.482
  24965764.552    -8309698.61843  -6442824.20742  24965766.149    24965764.275
  20816452.106   -22377025.36944 -17423997.71642  20816454.128    20816449.479
  20597301.188   -25711953.12144 -19852228.42542  20597303.206    20597297.493
 03  2 28  1  8  0.0000000  0 11G17G22G 6G26G 3G16G15G29G 2G23G18
  20752338.892   -25107096.36244 -19519704.84942  20752340.297    20752336.022
  24509262.999     -133574.75443   -103567.74042  24509263.645    24509261.395
  22060857.579   -20305950.76343 -15791546.18042  22060859.664    22060856.481
  22074799.980   -17042960.99443 -13269813.21642  22074802.566    22074798.410
  24300718.373    -7061837.45943  -5447219.94142  24300720.487    24300717.584
  23720048.159   -11676278.87543  -9052388.91142  23720050.051    23720046.570
  21034199.935   -24100173.20443 -18765281.14542  21034201.529    21034197.259
  23836834.467    -8886747.06443  -6889682.40642  23836837.021    23836833.248
  24964642.082    -8315596.70843  -6447420.12842  24964643.797    24964641.868
  20822368.158   -22345936.15144 -17399772.31642  20822370.180    20822365.516
  20592848.322   -25735352.80844 -19870461.89242  20592850.339    20592844.627
 03  2 28  1  8 30.0000000  0 11G17G22G 6G26G 3G16G15G29G 2G23G18
  20752188.469   -25107886.74344 -19520320.70942  20752189.867    20752185.600
  24512555.197     -116274.23843    -90086.79842  24512555.793    24512553.617
  22077885.728   -20216467.29943 -15721818.84342  22077887.821    22077884.654
  22085529.199   -16986578.75943 -13225878.99542  22085531.735    22085527.569
  24282284.314    -7158708.64043  -5522703.88642  24282286.432    24282283.437
  23725529.555   -11647473.64043  -9029943.29542  23725531.510    23725528.031
  21025763.519   -24144506.74543 -18799826.71142  21025765.084    21025760.810
  23851009.104    -8812258.73043  -6831639.51242  23851011.582    23851007.844
  24963599.965    -8321070.73243  -6451685.59242  24963602.050    24963600.223
  20828342.955   -22314538.23544 -17375306.37642  20828344.972    20828340.304
  20588472.990   -25758344.92644 -19888377.77242  20588475.034    20588469.331
 03  2 28  1  9  0.0000000  0 11G17G22G 6G26G 3G16G15G29G 2G23G18
  20752082.066   -25108445.72344 -19520756.25042  20752083.459    20752079.205
  24515940.854      -98482.83943    -76223.34642  24515941.498    24515939.363
  22094979.982   -20126636.63243 -15651820.95642  22094982.040    22094978.870
  22096372.035   -16929599.29043 -13181479.39642  22096374.556    22096370.351
  24263891.082    -7255365.29043  -5598020.66142  24263893.250    24263890.190
  23731099.730   -11618202.27543  -9007134.46042  23731101.697    23731098.174
  21017364.115   -24188645.76343 -18834220.70342  21017365.677    21017361.389
  23865258.831    -8737375.84143  -6773289.17442  23865261.282    23865257.508
  24962640.574    -8326112.59843  -6455614.28542  24962642.613    24962640.816
  20834377.832   -22282824.64744 -17350594.45342  20834379.845    20834375.182
  20584176.805   -25780921.36544 -19905969.74842  20584178.824    20584173.140
 03  2 28  1  9 30.0000000  0 11G17G22G 6G26G 3G16G15G29G 2G23G18
  20752013.771   -25108804.52044 -19521035.80542  20752015.153    20752010.891
  24519413.334      -80234.73243    -62004.00342  24519413.918    24519411.865
  22112133.681   -20036493.36843 -15581579.48042  22112135.777    22112132.598
  22107321.819   -16872057.72543 -13136641.79142  22107324.350    22107320.114
  24245532.862    -7351837.79943  -5673193.95342  24245535.070    24245531.997
  23736751.861   -11588499.70343  -8983989.60742  23736753.932    23736750.372
  21008995.679   -24232622.11443 -18868487.94142  21008997.244    21008992.926
  23879576.937    -8662133.62243  -6714658.84842  23879579.374    23879575.612
  24961757.429    -8330755.60343  -6459232.20642  24961759.180    24961757.243
  20840466.202   -22250829.96444 -17325663.50242  20840468.199    20840463.532
  20579953.414   -25803115.27244 -19923263.64642  20579955.419    20579949.726
 03  2 28  1 10  0.0000000  0 11G17G22G 6G26G 3G16G15G29G 2G23G18
  20751982.887   -25108966.73844 -19521162.18642  20751984.263    20751979.994
  24522971.638      -61535.07643    -47432.82542  24522972.393    24522970.302
  22129345.768   -19946043.23043 -15511098.89142  22129347.886    22129344.695
  22118377.514   -16813959.53243 -13091370.46242  22118380.058    22118375.822
  24227209.579    -7448126.95943  -5748224.37842  24227211.796    24227208.766
  23742485.223   -11558371.15043  -8960512.82642  23742487.205    23742483.733
  21000657.644   -24276438.50544 -18902630.53842  21000659.217    21000654.896
  23893962.323    -8586537.69443  -6655752.89642  23893964.777    23893961.048
  24960949.075    -8335004.21343  -6462542.77842  24960950.564    24960948.631
  20846607.014   -22218559.61544 -17300517.74742  20846609.018    20846604.348
  20575801.970   -25824931.03444 -19940262.89042  20575803.969    20575798.267
 03  2 28  1 10 30.0000000  0 11G17G22G 6G26G 3G16G15G29G 2G23G18
  20751992.557   -25108915.66144 -19521122.36242  20751993.959    20751989.672
  24526618.647      -42370.02643    -32498.98142  24526619.257    24526617.085
  22146618.735   -19855273.16243 -15440369.00042  22146620.853    22146617.682
  22129541.648   -16755291.61543 -13045655.18442  22129544.157    22129539.930
  24208924.543    -7544215.04643  -5823098.11642  24208926.743    24208923.653
  23748302.044   -11527803.61043  -8936693.96742  23748304.008    23748300.541
  20992353.133   -24320078.77244 -18936635.88942  20992354.709    20992350.389
  23908417.514    -8510575.11743  -6596561.23842  23908419.926    23908416.210
  24960218.340    -8338843.80143  -6465534.65242  24960219.947    24960218.029
  20852802.901   -22186000.00544 -17275146.59242  20852804.886    20852800.188
  20571725.304   -25846353.87644 -19956955.95942  20571727.293    20571721.576
 03  2 28  1 11  0.0000000  0 11G17G22G 6G26G 3G16G15G29G 2G23G18
  20752041.175   -25108660.15744 -19520923.24842  20752042.546    20752038.264
  24530352.376      -22750.54943    -17211.06042  24530352.688    24530350.453
  22163950.434   -19764194.45843 -15369398.61842  22163952.573    22163949.408
  22140812.011   -16696065.25643 -12999504.76442  22140814.541    22140810.345
  24190676.499    -7640108.72343  -5897820.37242  24190678.693    24190675.570
  23754200.295   -11496808.07343  -8912541.60742  23754202.232    23754198.781
  20984080.508   -24363551.40643 -18970510.62242  20984082.090    20984077.777
  23922940.272    -8434257.44243  -6537092.90142  23922942.685    23922938.979
  24959563.543    -8342284.34143  -6468215.56442  24959565.276    24959563.390
  20859051.724   -22153162.10244 -17249558.58842  20859053.710    20859048.980
  20567721.546   -25867393.67444 -19973350.55642  20567723.522    20567717.777
 03  2 28  1 11 30.0000000  0 11G17G22G 6G26G 3G16G15G29G 2G23G18
  20752130.046   -25108193.10844 -19520559.29242  20752131.396    20752127.114
  24534173.078       -2672.26143     -1565.61342  24534173.431    24534171.255
  22181341.615   -19672803.30343 -15298184.76742  22181343.740    22181340.582
  22152189.349   -16636276.82143 -12952916.34442  22152191.865    22152187.684
  24172466.964    -7735799.81243  -5972384.77142  24172469.199    24172466.093
  23760180.686   -11465380.69143  -8888052.76842  23760182.626    23760179.175
  20975841.050   -24406849.75743 -19004249.54642  20975842.652    20975838.318
  23937531.250    -8357581.01043  -6477345.00042  23937533.665    23937529.966
  24958985.282    -8345320.62743  -6470581.50242  24958987.482    24958985.606
  20865354.295   -22120041.75144 -17223750.50142  20865356.285    20865351.531
  20563791.702   -25888044.97844 -19989442.43242  20563793.685    20563787.899
 03  2 28  1 12  0.0000000  0 11G17G22G 6G26G 3G16G15G29G 2G23G18
  20752262.614   -25107496.23944 -19520016.25442  20752263.972    20752259.723
  24538083.707       17880.40743     14449.45942  24538084.454    24538082.247
  22198795.117   -19581084.64843 -15226715.71342  22198797.220    22198794.128
  22163676.507   -16575911.21343 -12905878.19242  22163679.036    22163674.844
  24154299.814    -7831268.68543  -6046776.01642  24154302.058    24154298.838
  23766246.224   -11433506.56843  -8863215.80342  23766248.106    23766244.664
  20967638.269   -24449955.56243 -19037838.44342  20967639.848    20967635.483
  23952193.367    -8280530.99443  -6417306.00542  23952195.781    23952192.073
  24958488.046    -8347935.99243  -6472619.45142  24958489.796    24958487.906
  20871713.541   -22086623.54644 -17197710.32242  20871715.532    20871710.777
  20559938.919   -25908291.33844 -20005218.76642  20559940.889    20559935.088
 03  2 28  1 12 30.0000000  0 11G17G22G 6G26G 3G16G15G29G 2G23G18
  20752436.337   -25106583.14044 -19519304.72842  20752437.696    20752433.456
  24542082.332       38891.74843     30821.95842  24542082.739    24542080.574
  22216307.887   -19489054.65843 -15155004.06642  22216309.952    22216306.890
  22175270.420   -16514984.60043 -12858402.88342  22175272.952    22175268.785
  24136172.707    -7926526.94343  -6121003.14742  24136174.897    24136171.725
  23772393.699   -11401201.53043  -8838043.03742  23772395.621    23772392.127
  20959469.627   -24492881.97743 -19071287.55042  20959471.189    20959466.809
  23966923.421    -8203123.72143  -6356988.62142  23966925.833    23966922.172
  24958067.809    -8350145.22543  -6474340.90642  24958069.361    24958067.506
  20878126.486   -22052923.29144 -17171450.36442  20878128.440    20878123.687
  20556160.352   -25928147.48844 -20020691.04242  20556162.344    20556156.535
 03  2 28  1 13  0.0000000  0 11G17G22G 6G26G 3G16G15G29G 2G23G18
  20752647.067   -25105475.66744 -19518441.74142  20752648.411    20752644.162
  24546163.251       60337.26843     47532.76842  24546163.640    24546161.435
  22233875.119   -19396738.31443 -15083069.28842  22233877.173    22233874.156
  22186966.306   -16453522.15243 -12810510.04742  22186968.831    22186964.641
  24118081.826    -8021594.84443  -6195081.95142  24118083.950    24118080.892
  23778618.434   -11368490.49743  -8812553.94742  23778620.371    23778616.838
  20951330.952   -24535650.93444 -19104613.96842  20951332.496    20951328.091
  23981716.689    -8125384.46843  -6296412.54642  23981719.021    23981715.430
  24957719.984    -8351971.91143  -6475764.29742  24957721.648    24957719.870
  20884588.399   -22018965.60944 -17144989.81442  20884590.354    20884585.585
  20552451.656   -25947636.70944 -20035877.40242  20552453.614    20552447.792
 03  2 28  1 13 30.0000000  0 11G17G22G 6G26G 3G16G15G29G 2G23G18
  20752900.874   -25104141.84244 -19517402.36942  20752902.220    20752897.933
  24550332.124       82246.20543     64604.67342  24550332.803    24550330.502
  22251502.293   -19304106.83743 -15010888.94042  22251504.367    22251501.384
  22198769.639   -16391495.19943 -12762177.33842  22198772.149    22198767.956
  24100033.580    -8116438.93643  -6268986.35942  24100035.688    24100032.526
  23784925.856   -11335344.88943  -8786726.19942  23784927.738    23784924.283
  20943228.273   -24578230.64043 -19137792.91542  20943229.821    20943225.401
  23996578.496    -8047284.54743  -6235555.43742  23996580.915    23996577.327
  24957450.676    -8353385.88243  -6476866.04942  24957452.362    24957450.615
  20891104.841   -21984721.40843 -17118306.00042  20891106.796    20891102.006
  20548818.500   -25966728.87044 -20050754.34842  20548820.455    20548814.621
 03  2 28  1 14  0.0000000  0 11G17G22G 6G26G 3G16G15G29G 2G23G18
  20753202.816   -25102555.10744 -19516165.92942  20753204.142    20753199.832
  24554594.550      104643.18143     82056.88642  24554594.851    24554592.446
  22269194.009   -19211136.20743 -14938444.32842  22269196.104    22269193.110
  22210685.001   -16328879.58343 -12713385.93242  22210687.530    22210683.286
  24082033.333    -8211030.61943  -6342694.07742  24082035.427    24082032.208
  23791320.542   -11301740.45543  -8760540.93942  23791322.469    23791319.041
  20935166.783   -24620593.96144 -19170803.24942  20935168.300    20935163.888
  24011513.609    -7968800.10043  -6174398.68942  24011516.067    24011512.408
  24957265.067    -8354361.64243  -6477626.39142  24957266.673    24957264.968
  20897680.470   -21950166.08643 -17091379.75942  20897682.441    20897677.625
  20545265.743   -25985398.41744 -20065301.99842  20545267.711    20545261.865
 03  2 28  1 14 30.0000000  0 11G17G22G 6G26G 3G16G15G29G 2G23G18
  20753542.654   -25100769.02544 -19514774.15342  20753544.001    20753539.690
  24558938.446      127471.83243     99845.43042  24558938.920    24558936.545
  22286939.441   -19117883.25243 -14865779.71942  22286941.575    22286938.628
  22222701.545   -16265732.46343 -12664180.36642  22222704.057    22222699.746
  24064071.235    -8305422.04143  -6416245.76242  24064073.270    24064070.048
  23797791.737   -11267733.83943  -8734042.30042  23797793.652    23797790.325
  20927136.206   -24662794.64144 -19203686.85242  20927137.763    20927133.332
  24026511.029    -7889988.10243  -6112986.70142  24026513.408    24026509.754
  24957152.148    -8354954.82543  -6478088.60142  24957153.890    24957152.238
  20904304.542   -21915356.20743 -17064255.16142  20904306.502    20904301.709
  20541782.903   -26003700.69244 -20079563.46742  20541784.872    20541778.993
 03  2 28  1 15  0.0000000  0 11G17G22G 6G26G 3G16G15G29G 2G23G18
  20753921.988   -25098775.43944 -19513220.68442  20753923.347    20753919.033
  24563365.982      150737.82343    117974.78442  24563366.261    24563363.954
  22304739.674   -19024342.75543 -14792891.05342  22304741.756    22304738.813
  22234820.184   -16202048.59043 -12614556.54342  22234822.763    22234818.358
  24046149.150    -8399603.05843  -6489633.47942  24046151.222    24046147.891
  23804340.421   -11233319.95343  -8707226.28542  23804342.394    23804339.075
  20919138.149   -24704824.58144 -19236437.40842  20919139.727    20919135.250
  24041571.714    -7810843.36443  -6051315.43442  24041574.121    24041570.459
  24957112.971    -8355158.74743  -6478247.47742  24957114.976    24957113.442
  20910978.125   -21880286.21844 -17036927.87542  20910980.080    20910975.288
  20538371.240   -26021628.91244 -20093533.45542  20538373.204    20538367.309
 03  2 28  1 15 30.0000000  0 11G17G22G 6G26G 3G16G15G29G 2G23G18
  20754345.670   -25096548.78544 -19511485.60442  20754347.040    20754342.729
  24567880.688      174463.79243    136462.58242  24567881.049    24567878.960
  22322598.824   -18930492.56943 -14719761.06342  22322600.910    22322597.923
  22247045.184   -16137805.91443 -12564497.29042  22247047.743    22247043.294
  24028272.175    -8493546.86643  -6562836.35442  24028274.239    24028270.897
  23810970.965   -11198476.49843  -8680075.57142  23810972.901    23810969.571
  20911177.384   -24746658.44644 -19269035.17742  20911178.980    20911174.486
  24056699.878    -7731344.20543  -5989368.00642  24056702.321    24056698.505
  24957153.164    -8354950.02543  -6478084.80842  24957154.839    24957153.065
  20917705.522   -21844933.47044 -17009380.25842  20917707.466    20917702.688
  20535035.285   -26039159.23043 -20107193.38842  20535037.240    20535031.343
 03  2 28  1 16  0.0000000  0 11G17G22G 6G26G 3G16G15G29G 2G23G18
  20754809.426   -25094111.62744 -19509586.49242  20754810.803    20754806.504
  24572478.390      198624.76543    155289.31642  24572478.677    24572476.646
  22340512.000   -18836358.36243 -14646409.75942  22340514.094    22340511.075
  22259371.646   -16073029.97743 -12514022.50742  22259374.201    22259369.719
  24010436.323    -8587274.39443  -6635870.69942  24010438.388    24010435.049
  23817678.412   -11163228.74443  -8652609.79742  23817680.381    23817677.025
  20903249.752   -24788318.28344 -19301497.33742  20903251.341    20903246.834
  24071890.664    -7651516.11643  -5927164.26342  24071892.992    24071889.132
  24957266.558    -8354352.64743  -6477619.30442  24957268.500    24957266.815
  20924481.953   -21809322.95344 -16981631.78242  20924483.904    20924479.131
  20531770.430   -26056315.99744 -20120562.25642  20531772.378    20531766.462
 03  2 28  1 16 30.0000000  0 11G17G22G 6G26G 3G16G15G29G 2G23G18
  20755314.576   -25091456.92244 -19507517.86042  20755315.961    20755311.653
  24577159.770      223225.19643    174458.48542  24577159.995    24577158.008
  22358480.001   -18741935.98943 -14572833.91242  22358482.097    22358479.096
  22271800.262   -16007716.98343 -12463129.23942  22271802.846    22271798.344
  23992643.303    -8680777.05143  -6708729.84042  23992645.407    23992642.096
  23824463.497   -11127573.10443  -8624826.19642  23824465.369    23824462.088
  20895356.543   -24829797.19744 -19333818.52042  20895358.145    20895353.609
  24087144.730    -7571355.13443  -5864701.12942  24087147.097    24087143.277
  24957454.959    -8353361.31143  -6476846.82442  24957457.163    24957455.387
  20931308.263   -21773450.27043 -16953679.01942  20931310.225    20931305.451
  20528577.736   -26073093.62744 -20133635.68642  20528579.671    20528573.736
 03  2 28  1 17  0.0000000  0 11G17G22G 6G26G 3G16G15G29G 2G23G18
  20755864.699   -25088565.79044 -19505265.00042  20755866.100    20755861.778
  24581927.295      248281.27043    193982.68642  24581928.097    24581925.990
  22376505.831   -18647209.69043 -14499021.23942  22376507.939    22376504.974
  22284334.006   -15941851.38243 -12411805.36742  22284336.602    22284332.137
  23974897.004    -8774034.26643  -6781397.71242  23974899.060    23974895.729
  23831329.227   -11091493.55843  -8596712.32042  23831331.006    23831327.855
  20887501.389   -24871076.17244 -19365983.91242  20887502.979    20887498.419
  24102465.096    -7490845.87643  -5801966.61642  24102467.532    24102463.574
  24957722.141    -8351959.05743  -6475754.13742  24957724.017    24957722.223
  20938187.562   -21737299.26844 -16925509.38042  20938189.504    20938184.734
  20525460.494   -26089474.74444 -20146400.15142  20525462.413    20525456.453
 03  2 28  1 17 30.0000000  0 11G17G22G 6G26G 3G16G15G29G 2G23G18
  20756455.153   -25085462.95944 -19502847.18142  20756456.546    20756452.196
  24586777.454      273765.87443    213840.84642  24586777.526    24586775.524
  22394584.238   -18552206.92943 -14424993.13542  22394586.355    22394583.436
  22296967.645   -15875460.86943 -12360072.47142  22296970.249    22296965.797
  23957193.010    -8867068.98543  -6853892.20942  23957195.077    23957191.721
  23838270.366   -11055017.56843  -8568289.47142  23838272.171    23838269.028
  20879679.612   -24912179.56744 -19398012.48842  20879681.220    20879676.641
  24117846.496    -7410016.03643  -5738982.29442  24117849.026    24117844.983
  24958061.916    -8350172.18343  -6474361.75742  24958063.992    24958062.319
  20945114.703   -21700896.96544 -16897143.92442  20945116.630    20945111.831
  20522413.734   -26105485.44544 -20158875.98942  20522415.652    20522409.674
 03  2 28  1 18  0.0000000  0 11G17G22G 6G26G 3G16G15G29G 2G23G18
  20757085.588   -25082149.83844 -19500265.49942  20757087.019    20757082.623
  24591707.807      299674.85343    234029.66442  24591707.863    24591705.718
  22412714.431   -18456932.27743 -14350753.17842  22412716.527    22412713.634
  22309700.290   -15808550.03543 -12307934.12742  22309702.898    22309698.468
  23939531.473    -8959880.80643  -6926213.02642  23939533.520    23939530.171
  23845286.034   -11018149.91643  -8539561.44442  23845287.883    23845284.721
  20871890.978   -24953108.81344 -19429905.35542  20871892.572    20871888.006
  24133288.065    -7328870.02443  -5675751.61342  24133290.550    24133286.522
  24958474.545    -8348003.89643  -6472672.16742  24958476.568    24958475.026
  20952088.826   -21664247.62444 -16868585.96842  20952090.774    20952085.962
  20519436.919   -26121128.65544 -20171065.47642  20519438.824    20519432.824
 03  2 28  1 18 30.0000000  0 10G17G22G 6G26G 3G16G15G29G23G18
  20757760.868   -25078601.11244 -19497500.22542  20757762.295    20757757.901
  24596723.028      326030.38443    254566.44942  24596723.184    24596720.976
  22430900.498   -18361363.90743 -14276284.34442  22430902.597    22430899.701
  22322536.038   -15741097.33543 -12255373.54742  22322538.675    22322534.259
  23921917.364    -9052443.17743  -6998339.46942  23921919.474    23921915.983
  23852380.467   -10980868.66343  -8510511.11942  23852382.346    23852379.118
  20864140.246   -24993838.87144 -19461643.01742  20864141.852    20864137.282
  24148793.855    -7247386.35643  -5612257.81942  24148796.352    24148792.329
  20959114.202   -21627328.88044 -16839818.09042  20959116.160    20959111.335
  20516534.459   -26136381.13044 -20182950.48942  20516536.347    20516530.345
 03  2 28  1 19  0.0000000  0 10G17G22G 6G26G 3G16G15G29G23G18
  20758482.816   -25074807.15344 -19494543.86242  20758484.252    20758479.844
  24601824.817      352839.49043    275456.65642  24601824.790    24601822.429
  22449143.744   -18265495.23243 -14201581.51342  22449145.845    22449142.926
  22335476.140   -15673096.41243 -12202385.78242  22335478.746    22335474.364
  23904352.779    -9144745.04243  -7070262.90242  23904354.966    23904351.337
  23859554.768   -10943167.17043  -8481133.34842  23859556.652    23859553.465
  20856429.321   -25034359.93944 -19493217.83442  20856430.894    20856426.313
  24164365.037    -7165558.65843  -5548495.96442  24164367.622    24164363.563
  20966192.187   -21590133.67844 -16810834.78842  20966194.153    20966189.330
  20513707.852   -26151234.95844 -20194524.85842  20513709.738    20513703.718
 03  2 28  1 19 30.0000000  0 10G17G22G 6G26G 3G16G15G29G23G18
  20759247.107   -25070790.73844 -19491414.15742  20759248.514    20759244.114
  24607007.491      380077.10943    296680.79342  24607007.921    24607005.819
  22467439.301   -18169351.69943 -14126664.49342  22467441.392    22467438.461
  22348515.727   -15604572.82743 -12148990.74742  22348518.311    22348513.914
  23886833.831    -9236807.11043  -7141999.47842  23886836.021    23886832.481
  23866804.117   -10905071.12343  -8451448.12942  23866806.070    23866802.825
  20848753.931   -25074694.21244 -19524647.10042  20848755.496    20848750.907
  24179996.958    -7083412.63043  -5484486.05342  24179999.521    24179995.479
  20973318.038   -21552686.94343 -16781655.48442  20973319.997    20973315.188
  20510952.554   -26165714.06644 -20205807.25142  20510954.446    20510948.408
 03  2 28  1 20  0.0000000  0 10G17G22G 6G26G 3G16G15G29G23G18
  20760055.215   -25066544.00544 -19488104.98542  20760056.615    20760052.202
  24612273.252      407747.52143    318242.19342  24612273.327    24612271.403
  22485787.942   -18072929.27643 -14051530.16542  22485790.011    22485787.097
  22361655.455   -15535522.91243 -12095185.59742  22361658.052    22361653.624
  23869362.211    -9328620.39443  -7213542.20342  23869364.450    23869360.826
  23874129.443   -10866576.46543  -8421452.29042  23874131.392    23874128.154
  20841115.452   -25114834.50644 -19555925.20742  20841117.021    20841112.410
  24195690.125    -7000944.19943  -5420224.92242  24195692.644    24195688.673
  20980492.644   -21514984.11344 -16752276.62642  20980494.600    20980489.771
  20508269.604   -26179812.78244 -20216793.22742  20508271.523    20508265.489
 03  2 28  1 20 30.0000000  0 10G17G22G 6G26G 3G16G15G29G23G18
  20760907.133   -25062067.11944 -19484616.46542  20760908.518    20760904.094
  24617620.360      435848.66243    340139.16442  24617620.797    24617618.830
  22504189.112   -17976230.56243 -13976180.54742  22504191.188    22504188.298
  22374894.823   -15465949.43743 -12040972.47042  22374897.416    22374892.981
  23851938.384    -9420182.80143  -7284889.43642  23851940.572    23851936.988
  23881530.043   -10827685.77343  -8391147.85542  23881532.048    23881528.829
  20833514.021   -25154780.10944 -19587051.60342  20833515.596    20833510.969
  24211444.148    -6918156.27843  -5355714.83642  24211446.598    24211442.772
  20987715.542   -21477027.48044 -16722700.00142  20987717.502    20987712.642
  20505658.796   -26193532.41544 -20227483.80842  20505660.741    20505654.686
 03  2 28  1 21  0.0000000  0 10G17G22G 6G26G 3G16G15G29G23G18
  20761799.876   -25057375.62144 -19480960.72342  20761801.250    20761796.804
  24623045.951      464361.39743    362356.90242  24623046.530    24623044.598
  22522639.193   -17879274.88043 -13900630.69542  22522641.260    22522638.372
  22388230.159   -15395871.80843 -11986366.50742  22388232.755    22388228.285
  23834559.529    -9511508.97843  -7356052.61442  23834561.611    23834558.028
  23889002.354   -10788418.53643  -8360550.01342  23889004.303    23889001.095
  20825946.597   -25194547.08144 -19618038.81442  20825948.166    20825943.525
  24227255.261    -6835068.33943  -5290970.97442  24227257.654    24227253.963
  20994983.185   -21438835.77144 -16692940.20042  20994985.139    20994980.252
  20503116.757   -26206890.83044 -20237892.93142  20503118.681    20503112.622
 03  2 28  1 21 30.0000000  0 10G17G22G 6G26G 3G16G15G29G23G18
  20762737.534   -25052448.21944 -19477121.16242  20762738.890    20762734.431
  24628553.682      493304.59043    384910.03342  24628554.243    24628552.376
  22541141.686   -17782043.73343 -13824866.18942  22541143.764    22541140.852
  22401664.859   -15325271.98343 -11931353.62642  22401667.414    22401662.935
  23817230.107    -9602575.42743  -7427013.39642  23817232.219    23817228.489
  23896549.889   -10748755.93943  -8329644.11142  23896551.799    23896548.667
  20818417.329   -25234113.66544 -19648869.87742  20818418.876    20818414.244
  24243126.950    -6751661.95843  -5225978.96342  24243129.379    24243125.700
  21002299.157   -21400389.97444 -16662982.40742  21002301.118    21002296.206
  20500647.216   -26219868.05344 -20248005.02142  20500649.166    20500643.101
 03  2 28  1 22  0.0000000  0 10G17G22G 6G26G 3G16G15G29G23G18
  20763718.136   -25047295.12144 -19473105.73542  20763719.492    20763715.006
  24634141.104      522665.20043    407788.42642  24634141.441    24634139.446
  22559694.020   -17684550.57743 -13748897.52942  22559696.108    22559693.214
  22415196.350   -15254163.44043 -11875944.36142  22415198.918    22415194.413
  23799948.388    -9693390.86943  -7497778.58542  23799950.508    23799946.780
  23904170.059   -10708711.80443  -8298440.90142  23904172.035    23904168.883
  20810924.234   -25273489.91744 -19679552.63242  20810925.803    20810921.170
  24259056.704    -6667950.58143  -5160749.29642  24259059.121    24259055.434
  21009661.040   -21361702.95344 -16632836.64942  21009663.014    21009658.058
  20498247.966   -26232476.04144 -20257829.39742  20498249.897    20498243.845
 03  2 28  1 22 30.0000000  0 10G17G22G 6G26G 3G16G15G29G23G18
  20764744.277   -25041902.55844 -19468903.71542  20764745.644    20764741.161
  24639809.738      552454.27443    431000.68042  24639810.206    24639808.041
  22578298.218   -17586784.82343 -13672716.45142  22578300.338    22578297.450
  22428826.647   -15182535.65743 -11820130.47942  22428829.212    22428824.675
  23782717.440    -9783939.92043  -7568336.21042  23782719.549    23782715.829
  23911864.882   -10668275.53943  -8266932.12342  23911866.865    23911863.618
  20803470.017   -25312661.81944 -19710076.15042  20803471.585    20803466.995
  24275046.461    -6583923.78243  -5095273.83242  24275048.862    24275045.175
  21017070.933   -21322763.56744 -16602494.24942  21017072.912    21017067.969
  20495921.339   -26244702.38344 -20267356.38942  20495923.276    20495917.221
 03  2 28  1 23  0.0000000  0 10G17G22G 6G26G 3G16G15G29G23G18
  20765815.961   -25036270.73444 -19464515.26042  20765817.326    20765812.831
  24645559.596      582668.45143    454544.21542  24645559.828    24645557.605
  22596953.621   -17488749.92843 -13596325.66642  22596955.734    22596952.918
  22442554.959   -15110392.73943 -11763915.20242  22442557.529    22442552.982
  23765537.425    -9874221.08843  -7638685.09142  23765539.553    23765535.833
  23919633.628   -10627450.68143  -8235120.56242  23919635.668    23919632.345
  20796054.657   -25351629.75144 -19740440.73142  20796056.196    20796051.593
  24291095.533    -6499585.27343  -5029555.47542  24291097.940    24291094.351
  21024528.274   -21283574.84244 -16571957.55742  21024530.264    21024525.303
  20493666.909   -26256549.31544 -20276587.71542  20493668.847    20493662.784
 03  2 28  1 23 30.0000000  0 10G17G22G 6G26G 3G16G15G29G23G18
  20766928.142   -25030426.05744 -19459960.94542  20766929.534    20766925.014
  24651384.619      613278.41043    478396.13042  24651384.631    24651382.530
  22615654.656   -17390475.53443 -13519748.24242  22615656.750    22615653.936
  22456375.641   -15037764.36043 -11707321.64942  22456378.208    22456373.713
  23748403.635    -9964259.52243  -7708844.82642  23748405.735    23748401.969
  23927470.703   -10586266.93943  -8203029.32642  23927472.635    23927469.292
  20788673.096   -25390420.14744 -19770666.98142  20788674.613    20788669.978
  24307198.294    -6414964.84643  -4963617.45542  24307200.647    24307197.012
  21032027.519   -21244165.83044 -16541249.21942  21032029.517    21032024.564
  20491479.325   -26268045.16144 -20285545.48242  20491481.260    20491475.163
 03  2 28  1 24  0.0000000  0 10G17G22G 6G26G 3G16G15G29G23G18
  20768090.093   -25024319.94744 -19455202.91542  20768091.489    20768086.931
  24657293.207      644329.72143    502591.96942  24657293.609    24657291.332
  22634409.857   -17291916.33843 -13442948.89942  22634411.916    22634409.169
  22470297.227   -14964605.71743 -11650314.90342  22470299.786    22470295.340
  23731325.601   -10054004.98243  -7778776.27542  23731327.720    23731323.943
  23935384.585   -10544679.21443  -8170623.33342  23935386.539    23935383.218
  20781334.572   -25428984.23644 -19800716.88142  20781336.096    20781331.422
  24323363.137    -6330017.32643  -4897424.53242  24323365.622    24323361.928
  21039577.412   -21204490.79844 -16510333.59142  21039579.408    21039574.468
  20489367.412   -26279143.14444 -20294193.22342  20489369.345    20489363.255
 03  2 28  1 24 30.0000000  0 10G17G22G 6G26G 3G16G15G29G23G18
  20769293.467   -25017996.03244 -19450275.17042  20769294.855    20769290.294
  24663277.158      675776.12543    527095.65042  24663277.646    24663275.302
  22653210.361   -17193119.20143 -13365964.15442  22653212.402    22653209.648
  22484310.825   -14890963.76243 -11592931.54242  22484313.351    22484308.938
  23714295.315   -10143499.48243  -7848512.16842  23714297.449    23714293.637
  23943366.441   -10502734.22443  -8137938.92542  23943368.417    23943365.059
  20774030.844   -25467365.44744 -19830624.29142  20774032.365    20774027.668
  24339581.375    -6244789.65043  -4831013.32442  24339583.829    24339580.187
  21047169.171   -21164595.72744 -16479246.50442  21047171.159    21047166.238
  20487322.546   -26289888.70144 -20302566.34242  20487324.488    20487318.400
 03  2 28  1 25  0.0000000  0 10G17G22G 6G26G 3G16G15G29G23G18
  20770538.328   -25011454.15544 -19445177.57942  20770539.724    20770535.141
  24669336.281      707614.83343    551905.05142  24669336.488    24669334.016
  22672055.502   -17094087.21643 -13288796.40442  22672057.576    22672054.838
  22498415.701   -14816841.89343 -11535174.22542  22498418.253    22498413.879
  23697313.175   -10232741.18043  -7918051.08942  23697315.255    23697311.447
  23951415.640   -10460435.28443  -8104978.72642  23951417.634    23951414.188
  20766761.974   -25505563.50444 -19860388.97442  20766763.483    20766758.774
  24355852.355    -6159285.00243  -4764386.29642  24355854.779    24355851.106
  21054802.322   -21124483.20844 -16447989.97742  21054804.308    21054799.389
  20485344.483   -26300283.18344 -20310665.88442  20485346.444    20485340.345
 03  2 28  1 25 30.0000000  0 10G17G22G 6G26G 3G16G15G29G23G18
  20771833.907   -25004645.84844 -19439872.38442  20771835.297    20771830.696
  24675477.777      739891.39043    577055.58942  24675478.470    24675476.050
  22690954.047   -16994774.91643 -13211410.22342  22690956.106    22690953.341
  22512620.532   -14742194.94543 -11477007.75242  22512623.088    22512618.711
  23680388.606   -10321679.81843  -7987353.84442  23680390.772    23680386.867
  23959540.848   -10417737.05143  -8071707.39742  23959542.742    23959539.318
  20759537.230   -25543529.60944 -19889972.92242  20759538.734    20759534.021
  24372184.645    -6073458.06643  -4697508.13042  24372187.085    24372183.410
  21062485.602   -21084107.25744 -16416528.17742  21062487.591    21062482.675
  20483442.144   -26310279.91344 -20318455.51142  20483444.088    20483437.986
 03  2 28  1 26  0.0000000  0 10G17G22G 6G26G 3G16G15G29G23G18
  20773171.674   -24997615.76544 -19434394.37942  20773173.068    20773168.454
  24681694.367      772558.43143    602510.47742  24681694.836    24681692.422
  22709896.868   -16895229.96143 -13133842.75242  22709898.895    22709896.130
  22526916.161   -14667070.85043 -11418469.47542  22526918.718    22526914.332
  23663513.607   -10410358.26443  -8056453.85042  23663515.795    23663511.859
  23967732.946   -10374687.41343  -8038162.23342  23967734.784    23967731.417
  20752348.186   -25581308.18744 -19919410.74442  20752349.675    20752344.986
  24388569.224    -5987356.56743  -4630416.02442  24388571.651    24388567.884
  21070210.023   -21043515.04244 -16384897.86542  21070212.012    21070207.085
  20481606.745   -26319924.87044 -20325971.02642  20481608.705    20481602.566
 03  2 28  1 26 30.0000000  0 10G17G22G 6G26G 3G16G15G29G23G18
  20774551.410   -24990365.07644 -19428744.47442  20774552.795    20774548.203
  24687983.835      805611.62243    628266.20842  24687984.510    24687982.251
  22728883.076   -16795457.04343 -13056097.64942  22728885.092    22728882.280
  22541301.661   -14591474.66643 -11359563.34242  22541304.207    22541299.794
  23646688.211   -10498776.32243  -8125350.97442  23646690.302    23646686.345
  23975990.953   -10331290.91043  -8004346.78542  23975992.850    23975989.438
  20745194.571   -25618900.58444 -19948703.48942  20745196.051    20745191.350
  24405005.089    -5900985.46043  -4563113.82942  24405007.494    24405003.628
  21077974.830   -21002710.58844 -16353102.16842  21077976.836    21077971.897
  20479837.641   -26329221.34143 -20333214.98242  20479839.604    20479833.478
 03  2 28  1 27  0.0000000  0 10G17G22G 6G26G 3G16G15G29G23G18
  20775983.313   -24982840.19044 -19422880.90642  20775984.725    20775980.137
  24694356.640      839100.80643    654361.69142  24694357.282    24694355.154
  22747922.139   -16695406.25443 -12978136.02642  22747924.160    22747921.337
  22555786.371   -14515356.96343 -11300250.81242  22555788.917    22555784.482
  23629922.741   -10586879.29143  -8194002.55642  23629924.837    23629920.877
  23984324.364   -10287498.19643  -7970222.61342  23984326.275    23984322.934
  20738086.562   -25656253.20044 -19977809.38842  20738088.053    20738083.345
  24421501.688    -5814295.00543  -4495562.80542  24421504.101    24421500.336
  21085789.619   -20961643.42044 -16321101.75742  21085791.629    21085786.687
  20478144.549   -26338118.36143 -20340147.67942  20478146.508    20478140.387
 03  2 28  1 27 30.0000000  0 10G17G22G 6G26G 3G16G15G29G23G18
  20777463.930   -24975059.41344 -19416817.94442  20777465.311    20777460.753
  24700808.481      873005.31543    680780.77942  24700808.997    24700806.873
  22767010.054   -16595098.56743 -12899974.23242  22767012.082    22767009.307
  22570366.285   -14438738.95843 -11240548.44742  22570368.856    22570364.380
  23613214.056   -10674683.51043  -8262421.33842  23613216.140    23613212.220
  23992729.306   -10243330.09943  -7935805.92442  23992731.152    23992727.923
  20731020.842   -25693383.75144 -20006742.25942  20731022.319    20731017.603
  24438055.108    -5727306.16343  -4427779.26642  24438057.539    24438053.688
  21093650.514   -20920334.07244 -16288912.63442  21093652.520    21093647.563
  20476523.815   -26346635.21744 -20346784.14742  20476525.761    20476519.648
 03  2 28  1 28  0.0000000  0 10G17G22G 6G26G 3G16G15G29G23G18
  20778985.910   -24967061.17344 -19410585.52742  20778987.300    20778982.721
  24707331.397      907283.54343    707491.10342  24707331.815    24707329.799
  22786138.913   -16494575.83843 -12821644.86742  22786140.939    22786138.234
  22585033.325   -14361662.99443 -11180489.23742  22585035.867    22585031.412
  23596555.205   -10762226.06843  -8330636.23042  23596557.300    23596553.318
  24001197.671   -10198828.66543  -7901129.50042  24001199.489    24001196.279
  20723990.084   -25730330.58244 -20035531.96342  20723991.544    20723986.821
  24454657.291    -5640061.02643  -4359796.01242  24454659.767    24454655.844
  21101549.627   -20878823.84343 -16256566.97842  21101551.624    21101546.675
  20474967.771   -26354812.21444 -20353155.80142  20474969.702    20474963.576
 03  2 28  1 28 30.0000000  0 10G17G22G 6G26G 3G16G15G29G23G18
  20780554.014   -24958820.70944 -19404164.36542  20780555.382    20780550.797
  24713929.823      941957.26243    734509.58542  24713929.963    24713928.084
  22805312.780   -16393816.50043 -12743131.12742  22805314.827    22805312.128
  22599791.555   -14284107.64043 -11120056.46842  22599794.107    22599789.651
  23579951.271   -10849480.04043  -8398626.24842  23579953.328    23579949.372
  24009733.537   -10153972.57343  -7866176.71742  24009735.406    24009732.122
  20716999.033   -25767068.65644 -20064159.00442  20717000.512    20716995.762
  24471312.297    -5552538.06543  -4291596.26642  24471314.758    24471310.873
  21109491.261   -20837090.22943 -16224047.25642  21109493.251    21109488.296
  20473480.746   -26362626.38743 -20359244.72842  20473482.684    20473476.556
 03  2 28  1 29  0.0000000  0 10G17G22G 6G26G 3G16G15G29G23G18
  20782170.135   -24950327.70744 -19397546.42042  20782171.519    20782166.922
  24720604.350      977033.03743    761841.34842  24720604.578    24720602.754
  22824532.887   -16292814.12043 -12664428.00042  22824534.972    22824532.273
  22614642.135   -14206066.90143 -11059245.48742  22614644.681    22614640.261
  23563404.271   -10936434.70443  -8466383.04542  23563406.305    23563402.390
  24018338.038   -10108755.53843  -7830942.68542  24018339.982    24018336.658
  20710049.557   -25803588.24844 -20092615.79542  20710051.045    20710046.277
  24488021.335    -5464730.97343  -4223175.12242  24488023.856    24488020.031
  21117476.731   -20795126.33844 -16191348.09742  21117478.702    21117473.731
  20472064.241   -26370070.05243 -20365044.94742  20472066.165    20472060.032
 03  2 28  1 29 30.0000000  0 10G17G22G 6G26G 3G16G15G29G23G18
  20783831.402   -24941597.57243 -19390743.69842  20783832.764    20783828.171
  24727352.269     1012492.97043    789472.47342  24727352.293    24727350.539
  22843795.833   -16191586.95043 -12585549.72142  22843797.947    22843795.187
  22629581.629   -14127559.27843 -10998070.69942  22629584.121    22629579.761
  23546911.704   -11023103.14043  -8533916.80342  23546913.791    23546909.819
  24027007.837   -10063195.86643  -7795441.66642  24027009.769    24027006.449
  20703138.850   -25839904.07844 -20120913.81342  20703140.355    20703135.577
  24504780.996    -5376658.07343  -4154546.86142  24504783.495    24504779.777
  21125502.674   -20752949.68844 -16158483.15242  21125504.643    21125499.648
  20470715.011   -26377159.87443 -20370569.44642  20470716.966    20470710.834
 03  2 28  1 30  0.0000000  0 10G17G22G 6G26G 3G16G15G29G23G18
  20785542.159   -24932607.38144 -19383738.33442  20785543.514    20785538.929
  24734177.031     1048356.89343    817418.37642  24734177.064    24734175.211
  22863105.250   -16090115.44643 -12506481.03942  22863107.428    22863104.609
  22644613.629   -14048565.57543 -10936517.15042  22644616.133    22644611.770
  23530478.254   -11109460.89343  -8601208.46342  23530480.371    23530476.397
  24035746.443   -10017274.09843  -7759658.50042  24035748.405    24035745.060
  20696271.308   -25875993.03744 -20149035.05242  20696272.841    20696268.026
  24521594.967    -5288299.91143  -4085696.30142  24521597.526    24521593.777
  21133572.973   -20710539.97343 -16125436.60042  21133574.931    21133569.911
  20469437.142   -26383874.82243 -20375801.83442  20469439.106    20469432.978
 03  2 28  1 30 30.0000000  0 10G17G22G 6G26G 3G16G15G29G23G18
  20787297.446   -24923383.22944 -19376550.66642  20787298.791    20787294.215
  24741073.147     1084595.90243    845656.56942  24741073.096    24741071.262
  22882455.672   -15988428.69043 -12427244.65042  22882457.783    22882454.972
  22659732.533   -13969115.29343 -10874607.81842  22659735.024    22659730.661
  23514099.335   -11195532.16343  -8668276.90842  23514101.496    23514097.528
  24044548.459    -9971019.54043  -7723616.00342  24044550.392    24044547.046
  20689442.059   -25911880.74944 -20176999.46842  20689443.599    20689438.784
  24538457.615    -5199685.53543  -4016646.10342  24538460.204    24538456.523
  21141682.169   -20667925.77343 -16092230.70942  21141684.125    21141679.082
  20468225.367   -26390242.67143 -20380763.77342  20468227.300    20468221.178
 03  2 28  1 31  0.0000000  0 10G17G22G 6G26G 3G16G15G29G23G18
  20789098.408   -24913919.15144 -19369176.03842  20789099.756    20789095.147
  24748041.091     1121212.62143    874189.06642  24748041.111    24748039.137
  22901847.485   -15886524.20543 -12347838.59442  22901849.598    22901846.774
  22674938.713   -13889206.40943 -10812341.14842  22674941.170    22674936.773
  23497776.356   -11281309.72343  -8735116.47642  23497778.545    23497774.564
  24053414.184    -9924429.99043  -7687312.48942  24053416.081    24053412.806
  20682652.268   -25947561.33044 -20204802.48442  20682653.783    20682648.967
  24555369.530    -5110812.85543  -3947394.62142  24555372.049    24555368.425
  21149830.861   -20625103.96644 -16058863.04842  21149832.819    21149827.779
  20467080.400   -26396259.46443 -20385452.15242  20467082.315    20467076.172
 03  2 28  1 31 30.0000000  0 10G17G22G 6G26G 3G16G15G29G23G18
  20790950.578   -24904185.92844 -19361591.68442  20790951.920    20790947.278
  24755085.919     1158232.97443    903036.07842  24755085.905    24755083.856
  22921285.669   -15784376.23243 -12268242.79542  22921287.769    22921284.919
  22690236.988   -13808813.39443 -10749697.23942  22690239.465    22690235.057
  23481515.142   -11366762.94343  -8801703.33542  23481517.286    23481513.240
  24062348.563    -9877479.79143  -7650727.94542  24062350.413    24062347.179
  20675907.454   -25983005.35644 -20232421.16742  20675908.972    20675904.144
  24572335.528    -5021655.92943  -3877921.64542  24572338.078    24572334.374
  21158024.121   -20582047.93743 -16025312.87642  21158026.092    21158021.042
  20466007.430   -26401897.87244 -20389845.67342  20466009.340    20466003.173
 03  2 28  1 32  0.0000000  0 10G17G22G 6G26G 3G16G15G29G23G18
  20792849.538   -24894206.67744 -19353815.62342  20792850.889    20792846.244
  24762202.478     1195630.32143    932176.86742  24762202.525    24762200.262
  22940765.082   -15682011.49443 -12188478.10642  22940767.154    22940764.303
  22705622.181   -13727963.56643 -10686697.35742  22705624.724    22705620.256
  23465311.409   -11451913.64043  -8868054.43842  23465313.605    23465309.524
  24071346.447    -9830195.94743  -7613883.41342  24071348.275    24071344.988
  20669203.209   -26018236.29144 -20259873.80242  20669204.686    20669199.879
  24589350.556    -4932241.71443  -3808248.19542  24589352.987    24589349.299
  21166257.014   -20538783.81643 -15991600.55642  21166258.962    21166253.910
  20465001.615   -26407183.30344 -20393964.16242  20465003.552    20464997.352
 03  2 28  1 32 30.0000000  0 10G17G22G 6G26G 3G16G15G29G23G18
  20794790.907   -24884004.51344 -19345865.86042  20794792.274    20794787.636
  24769385.676     1233378.94943    961591.36042  24769385.898    24769383.653
  22960280.765   -15579455.89443 -12108564.68642  22960282.853    22960280.041
  22721089.338   -13646683.18343 -10623361.98142  22721091.841    22721087.370
  23449161.216   -11536782.86643  -8934186.22442  23449163.448    23449159.343
  24080402.826    -9782604.42943  -7576799.14342  24080404.668    24080401.382
  20662535.207   -26053276.55944 -20287177.87442  20662536.679    20662531.891
  24606409.498    -4842596.15343  -3738394.46242  24606411.973    24606408.139
  21174524.658   -20495336.85943 -15957745.77042  21174526.609    21174521.578
  20464058.355   -26412140.12443 -20397826.58942  20464060.277    20464054.054
 03  2 28  1 33  0.0000000  0  9G17G 6G26G 3G16G15G29G23G18
  20796783.744   -24873532.08444 -19337705.50242  20796785.102    20796780.430
  22979841.141   -15476665.53343 -12028468.34442  22979843.239    22979840.448
  22736646.720   -13564928.61243 -10559657.11442  22736649.221    22736644.709
  23433073.920   -11621321.82143  -9000060.66442  23433076.181    23433072.041
  24089526.088    -9734661.77443  -7539441.25742  24089527.891    24089524.567
  20655912.562   -26088078.52044 -20314296.24842  20655914.036    20655909.271
  24623520.797    -4752675.46043  -3668326.35542  24623523.353    24623519.406
  21182835.584   -20451662.49243 -15923713.78342  21182837.531    21182832.545
  20463186.178   -26416723.19243 -20401397.77942  20463188.112    20463181.892
 03  2 28  1 33 30.0000000  0  9G17G 6G26G 3G16G15G29G23G18
  20798830.977   -24862773.64644 -19329322.28242  20798832.331    20798827.664
  22999448.561   -15373627.92643 -11948179.33842  22999450.659    22999447.911
  22752296.575   -13482687.88643 -10495573.42842  22752299.104    22752294.586
  23417052.826   -11705512.96543  -9065664.07042  23417055.046    23417050.987
  24098718.457    -9686355.60843  -7501800.12542  24098720.274    24098716.893
  20649338.343   -26122626.07544 -20341216.38842  20649339.798    20649335.046
  24640686.851    -4662467.27443  -3598034.20442  24640689.398    24640685.424
  21191192.297   -20407747.49343 -15889494.29142  21191194.256    21191189.290
  20462387.800   -26420918.62643 -20404666.92542  20462389.737    20462383.502
 03  2 28  1 34  0.0000000  0  9G17G 6G26G 3G16G15G29G23G18
  20800921.010   -24851790.32844 -19320763.82842  20800922.375    20800917.715
  23019090.717   -15270407.73843 -11867748.08042  23019092.805    23019090.121
  22768026.518   -13400026.15043 -10431161.66942  22768029.072    22768024.568
  23401086.511   -11789416.35343  -9131043.25942  23401088.722    23401084.628
  24107967.630    -9637750.91643  -7463926.38142  24107969.417    24107966.100
  20642800.891   -26156980.45544 -20367985.99442  20642802.337    20642797.584
  24657895.321    -4572036.22243  -3527568.40142  24657897.849    24657893.877
  21199582.618   -20363655.87843 -15855137.17742  21199584.582    21199579.648
  20461651.095   -26424789.88043 -20407683.46042  20461653.023    20461646.786
 03  2 28  1 34 30.0000000  0  9G17G 6G26G 3G16G15G29G23G18
  20803057.235   -24840564.42144 -19312016.34742  20803058.589    20803053.926
  23038770.352   -15166990.58243 -11787163.31242  23038772.466    23038769.806
  22783839.295   -13316929.45443 -10366410.99542  22783841.793    22783837.331
  23385178.592   -11873012.61643  -9196183.12642  23385180.816    23385176.716
  24117276.350    -9588833.47343  -7425808.92242  24117278.169    24117274.860
  20636303.615   -26191123.80444 -20394591.16542  20636305.048    20636300.289
  24675148.838    -4481368.31143  -3456918.03242  24675151.306    24675147.194
  21208009.478   -20319372.46243 -15820630.60742  21208011.419    21208006.504
  20460979.156   -26428320.82943 -20410434.82542  20460981.081    20460974.850
 03  2 28  1 35  0.0000000  0  9G17G 6G26G 3G16G15G29G23G18
  20805244.578   -24829069.68244 -19303059.38642  20805245.957    20805241.298
  23058491.835   -15063353.75543 -11706407.39142  23058493.951    23058491.286
  22799739.102   -13233375.45043 -10301303.96842  22799741.591    22799737.100
  23369334.419   -11956274.09543  -9261062.12442  23369336.638    23369332.485
  24126648.925    -9539580.68443  -7387430.15142  24126650.729    24126647.435
  20629851.450   -26225029.82144 -20421011.40742  20629852.928    20629848.167
  24692451.810    -4390440.57343  -3386065.18942  24692454.199    24692449.984
  21216477.309   -20274873.74343 -15785956.27042  21216479.233    21216474.310
  20460376.566   -26431487.38544 -20412902.24442  20460378.496    20460372.254
 03  2 28  1 35 30.0000000  0  9G17G 6G26G 3G16G15G29G23G18
  20807478.506   -24817330.14743 -19293911.67642  20807479.877    20807475.221
  23078249.940   -14959524.47243 -11625501.51042  23078252.064    23078249.367
  22815720.672   -13149391.73143 -10235862.08942  22815723.143    22815718.691
  23353549.667   -12039223.11743  -9325697.65142  23353551.869    23353547.731
  24136080.017    -9490019.91743  -7348811.41442  24136081.869    24136078.560
  20623439.980   -26258722.16544 -20447265.14742  20623441.463    20623436.702
  24709798.913    -4299280.35743  -3315031.20842  24709801.189    24709797.154
  21224981.053   -20230186.13943 -15751134.75242  21224983.016    21224978.048
  20459838.367   -26434315.42543 -20415105.88342  20459840.311    20459834.095
 03  2 28  1 36  0.0000000  0  9G17G 6G26G 3G16G15G29G23G18
  20809763.260   -24805323.55043 -19284555.86542  20809764.622    20809759.976
  23098048.248   -14855483.62643 -11544430.76842  23098050.392    23098047.739
  22831787.554   -13064959.63243 -10170070.82642  22831790.041    22831785.571
  23337828.918   -12121835.77543  -9390071.08842  23337831.135    23337826.976
  24145573.196    -9440132.41243  -7309938.07642  24145575.208    24145571.927
  20617073.503   -26292178.18344 -20473334.73942  20617074.982    20617070.196
  24727193.965    -4207868.59243  -3243801.22842  24727196.283    24727192.253
  21233524.487   -20185289.96243 -15716150.70142  21233526.456    21233521.480
  20459368.508   -26436784.61944 -20417029.90542  20459370.418    20459364.193
 03  2 28  1 36 30.0000000  0  9G17G 6G26G 3G16G15G29G23G18
  20812096.784   -24793060.77643 -19275000.44042  20812098.116    20812093.481
  23117884.179   -14751245.29843 -11463206.14342  23117886.293    23117883.649
  22847937.011   -12980093.69543 -10103941.50842  22847939.468    22847935.071
  23322170.390   -12204121.43043  -9454189.71742  23322172.593    23322168.447
  24155126.005    -9389932.66143  -7270821.42142  24155127.922    24155124.620
  20610750.030   -26325408.31644 -20499228.32042  20610751.508    20610746.679
  24744634.126    -4116219.48643  -3172386.28542  24744636.640    24744632.540
  21242105.051   -20140198.67843 -15681014.62642  21242107.026    21242102.047
  20458964.550   -26438907.35043 -20418683.95442  20458966.479    20458960.210
 03  2 28  1 37  0.0000000  0  9G17G 6G26G 3G16G15G29G23G18
  20814480.511   -24780534.11443 -19265239.38742  20814481.830    20814477.197
  23137758.492   -14646805.28843 -11381824.35942  23137760.635    23137757.949
  22864169.684   -12894790.32443 -10037471.32542  22864172.139    22864167.767
  23306575.882   -12286070.63343  -9518046.16342  23306578.104    23306573.974
  24164738.859    -9339416.54943  -7231458.24642  24164740.877    24164737.611
  20604471.015   -26358404.76144 -20524939.80342  20604472.483    20604467.645
  24762120.278    -4024329.03643  -3100783.28342  24762122.756    24762118.678
  21250723.737   -20094907.18243 -15645722.53942  21250725.693    21250720.734
  20458627.589   -26440678.05744 -20420063.70142  20458629.505    20458623.224
 03  2 28  1 37 30.0000000  0  9G17G 6G26G 3G16G15G29G23G18
  20816908.475   -24767775.01344 -19255297.21342  20816909.792    20816905.159
  23157664.594   -14542198.54043 -11300312.65142  23157666.699    23157664.000
  22880478.881   -12809084.89443  -9970687.85742  22880481.329    22880477.016
  23291039.682   -12367713.78343  -9581664.13142  23291041.876    23291037.715
  24174405.226    -9288619.62943  -7191876.27842  24174407.219    24174403.957
  20598230.460   -26391198.96344 -20550493.69542  20598231.935    20598227.096
  24779645.659    -3932232.20943  -3029019.48642  24779648.162    24779644.101
  21259374.022   -20049449.67943 -15610301.09642  21259375.970    21259370.986
  20458351.146   -26442130.63443 -20421195.55342  20458353.072    20458346.772
 03  2 28  1 38  0.0000000  0  9G17G 6G26G 3G16G15G29G23G18
  20819387.636   -24754746.88743 -19245145.40942  20819388.954    20819384.311
  23177608.694   -14437391.89843 -11218645.18642  23177610.759    23177608.045
  22896870.820   -12722944.53043  -9903565.48242  22896873.267    22896868.988
  23275568.971   -12449012.84543  -9645013.98942  23275571.123    23275566.945
  24184131.370    -9237508.72343  -7152049.64542  24184133.300    24184130.035
  20592035.439   -26423753.84844 -20575861.10542  20592036.929    20592032.087
  24797216.647    -3839895.79343  -2957068.97942  24797219.280    24797215.020
  21268062.380   -20003792.16143 -15574723.79342  21268064.319    21268059.315
  20458141.869   -26443230.31844 -20422052.43242  20458143.790    20458137.488
 03  2 28  1 38 30.0000000  0  9G17G 6G26G 3G16G15G29G23G18
  20821914.969   -24741465.50843 -19234796.26642  20821916.306    20821911.666
  23197587.162   -14332404.43643 -11136836.83042  23197589.240    23197586.488
  22913341.776   -12636388.82043  -9836119.45342  22913344.251    22913339.979
  23260161.045   -12529981.93043  -9708106.72842  23260163.151    23260158.948
  24193913.515    -9186103.18943  -7111993.43042  24193915.424    24193912.180
  20585882.983   -26456085.03944 -20601054.21442  20585884.467    20585879.651
  24814829.574    -3747338.97343  -2884946.74442  24814832.216    24814827.935
  21276785.293   -19957953.01643 -15539004.96542  21276787.213    21276782.202
  20457996.385   -26443994.73244 -20422648.06242  20457998.298    20457991.983
 03  2 28  1 39  0.0000000  0  9G17G 6G26G 3G16G15G29G23G18
  20824496.596   -24727898.80343 -19224224.79042  20824497.922    20824493.293
  23217605.504   -14227207.53243 -11054865.27042  23217607.626    23217604.812
  22929897.144   -12549389.76843  -9768327.96042  22929899.627    22929895.304
  23244822.315   -12610587.33343  -9770916.06142  23244824.401    23244820.208
  24203757.155    -9134374.57743  -7071685.46242  24203758.992    24203755.890
  20579779.273   -26488160.20044 -20626047.81442  20579780.752    20579775.939
  24832489.896    -3654533.13343  -2812630.45342  24832492.461    24832488.205
  21285548.359   -19911902.75243 -15503121.62542  21285550.286    21285545.254
  20457920.403   -26444393.84343 -20422959.03042  20457922.352    20457916.002
 03  2 28  1 39 30.0000000  0  9G17G 6G26G 3G16G15G29G23G18
  20827128.066   -24714070.34044 -19213449.35142  20827129.365    20827124.723
  23237658.559   -14121828.13143 -10972751.50242  23237660.667    23237657.847
  22946531.720   -12461974.64243  -9700212.27142  22946534.154    22946529.838
  23229548.455   -12690851.50443  -9833459.51442  23229550.600    23229546.376
  24213657.129    -9082350.18343  -7031147.03142  24213658.845    24213655.809
  20573719.856   -26520002.61944 -20650860.06042  20573721.333    20573716.495
  24850192.430    -3561505.28143  -2740141.15942  24850195.001    24850190.848
  21294346.584   -19865667.51643 -15467094.15542  21294348.520    21294343.498
  20457909.088   -26444453.10644 -20423005.18142  20457911.038    20457904.706
 03  2 28  1 40  0.0000000  0  9G17G 6G26G 3G16G15G29G23G18
  20829810.280   -24699975.25443 -19202466.15542  20829811.568    20829806.906
  23257746.697   -14016264.51543 -10890494.19742  23257748.793    23257746.007
  22963245.688   -12374142.13843  -9631771.34242  22963248.145    22963243.701
  23214340.929   -12770767.52843  -9895731.68642  23214343.063    23214338.809
  24223613.617    -9030028.57443  -6990376.99742  24223615.314    24223612.243
  20567705.694   -26551607.08144 -20675486.88342  20567707.196    20567702.342
  24867937.546    -3468253.68343  -2667477.51942  24867940.082    24867936.110
  21303180.520   -19819244.70243 -15430920.51842  21303182.465    21303177.430
  20457963.035   -26444169.49744 -20422784.16042  20457965.000    20457958.647
 03  2 28  1 40 30.0000000  0  9G17G 6G26G 3G16G15G29G23G18
  20832540.867   -24685626.06944 -19191284.95842  20832542.148    20832537.463
  23277866.767   -13910532.76443 -10808105.87842  23277868.811    23277866.093
  22980035.903   -12285909.05143  -9563018.26142  22980038.372    22980033.819
  23199197.408   -12850346.92343  -9957741.53242  23199199.593    23199195.337
  24233623.557    -8977426.30343  -6949388.25442  24233625.244    24233622.211
  20561734.422   -26582986.06544 -20699938.01042  20561735.945    20561731.098
  24885722.172    -3374794.61743  -2594652.20142  24885724.695    24885720.816
  21312047.230   -19772649.68643 -15394612.70142  21312049.191    21312044.123
  20458079.416   -26443557.83344 -20422307.51742  20458081.391    20458075.011
 03  2 28  1 41  0.0000000  0  8G17G 6G26G 3G16G15G23G18
  20835323.098   -24671005.36744 -19179892.18842  20835324.409    20835319.689
  23298021.450   -13804618.96443 -10725575.71042  23298023.552    23298020.875
  22996904.857   -12197261.91143  -9493942.55542  22996907.355    22996902.730
  23184121.575   -12929570.81643 -10019474.37642  23184123.762    23184119.467
  24243689.568    -8924529.53943  -6908170.04742  24243691.234    24243688.267
  20555809.401   -26614122.15244 -20724199.86442  20555810.894    20555806.073
  21320949.554   -19725867.70043 -15358159.19542  21320951.483    21320946.440
  20458261.082   -26442602.99444 -20421563.45742  20458263.066    20458256.700
 03  2 28  1 41 30.0000000  0  8G17G 6G26G 3G16G15G23G18
  20838160.204   -24656096.19643 -19168274.63942  20838161.527    20838156.807
  23318213.487   -13698509.35443 -10642892.96042  23318215.560    23318212.884
  23013855.217   -12108187.21543  -9424533.68642  23013857.666    23013853.051
  23169116.924   -13008420.52143 -10080915.63642  23169119.101    23169114.820
  24253814.101    -8871324.81043  -6866711.87242  24253815.750    24253812.710
  20549933.910   -26644997.87944 -20748258.84442  20549935.392    20549930.578
  21329890.224   -19678884.03243 -15321548.52842  21329892.187    21329887.119
  20458510.988   -26441289.56544 -20420539.98142  20458512.972    20458506.598
 03  2 28  1 42  0.0000000  0  8G17G 6G26G 3G16G15G23G18
  20841043.695   -24640943.10443 -19156467.02142  20841045.028    20841040.345
  23338433.659   -13592252.01943 -10560095.10542  23338435.720    23338433.019
  23030877.646   -12018733.65143  -9354829.59842  23030880.141    23030875.441
  23154175.303   -13086939.08743 -10142098.87542  23154177.446    23154173.152
  24263988.046    -8817860.61443  -6825051.50542  24263989.699    24263986.624
  20544099.581   -26675657.42944 -20772149.37442  20544101.054    20544096.231
  21338860.296   -19631745.91343 -15284817.51542  21338862.260    21338857.188
  20458820.243   -26439664.39143 -20419273.58642  20458822.201    20458815.840
 03  2 28  1 42 30.0000000  0  8G17G 6G26G 3G16G15G23G18
  20843976.471   -24625531.12843 -19144457.67842  20843977.790    20843973.157
  23358684.223   -13485834.93343 -10477172.75842  23358686.283    23358683.581
  23047974.312   -11928889.82143  -9284821.40542  23047976.900    23047972.182
  23139299.868   -13165109.67343 -10203010.96042  23139302.019    23139297.729
  24274213.552    -8764125.29443  -6783179.87642  24274215.289    24274212.192
  20538309.352   -26706085.24944 -20795859.33742  20538310.815    20538305.963
  21347862.141   -19584440.69443 -15247956.29142  21347864.126    21347859.076
  20459191.332   -26437714.11644 -20417753.86642  20459193.305    20459186.946
 03  2 28  1 43  0.0000000  0  8G17G 6G26G 3G16G15G23G18
  20846960.385   -24609850.54444 -19132239.02642  20846961.699    20846957.055
  23378966.296   -13379252.17943 -10394121.33642  23378968.334    23378965.628
  23065146.320   -11838650.26143  -9214504.84942  23065148.907    23065144.181
  23124492.643   -13242921.95043 -10263643.84042  23124494.729    23124490.473
  24284491.820    -8710113.07743  -6741092.48642  24284493.527    24284490.394
  20532565.013   -26736271.82044 -20819381.31842  20532566.485    20532561.611
  21356897.093   -19536961.64743 -15210959.61742  21356899.072    21356894.048
  20459625.743   -26435431.29144 -20415975.01542  20459627.695    20459621.329
 03  2 28  1 43 30.0000000  0  8G17G 6G26G 3G16G15G23G18
  20849999.533   -24593879.68544 -19119794.18342  20850000.848    20849996.191
  23399283.362   -13272485.51143 -10310926.60042  23399285.355    23399282.725
  23082397.014   -11747997.34943  -9143866.19942  23082399.553    23082394.877
  23109758.073   -13320352.49243 -10323979.25842  23109760.127    23109755.870
  24294825.998    -8655806.29943  -6698775.56542  24294827.869    24294824.581
  20526870.769   -26766195.04444 -20842698.08742  20526872.254    20526867.365
  21365968.813   -19489289.57443 -15173812.53442  21365970.763    21365965.740
  20460127.111   -26432796.52444 -20413921.92342  20460129.067    20460122.688
 03  2 28  1 44  0.0000000  0  8G17G 6G26G 3G16G15G23G18
  20853088.454   -24577647.32043 -19107145.57342  20853089.768    20853085.066
  23419629.365   -13165566.67343 -10227613.29042  23419631.402    23419628.771
  23099720.221   -11656963.20643  -9072930.48442  23099722.734    23099718.129
  23095091.046   -13397428.11443 -10384038.12442  23095093.076    23095088.754
  24305210.272    -8601236.86243  -6656253.97642  24305212.147    24305208.961
  20521221.370   -26795882.84944 -20865831.41342  20521222.842    20521217.932
  21375071.383   -19441455.32043 -15136539.07542  21375073.327    21375068.278
  20460689.698   -26429840.07244 -20411618.17042  20460691.635    20460685.265
 03  2 28  1 44 30.0000000  0  8G17G 6G26G 3G16G15G23G18
  20856228.559   -24561145.83943 -19094287.25942  20856229.878    20856225.170
  23440005.174   -13058491.59443 -10144178.24742  23440007.159    23440004.584
  23117116.682   -11565544.28043  -9001694.93642  23117119.197    23117114.542
  23080493.226   -13474140.01243 -10443813.56742  23080495.233    23080490.917
  24315645.301    -8546400.93043  -6613524.72442  24315647.137    24315644.006
  20515618.228   -26825327.54944 -20888775.30342  20515619.692    20515614.753
  21384205.727   -19393454.02343 -15099135.45342  21384207.681    21384202.618
  20461314.493   -26426556.52644 -20409059.53642  20461316.443    20461310.067
 03  2 28  1 45  0.0000000  0  8G17G 6G26G 3G16G15G23G18
  20859425.627   -24544345.08744 -19081195.75242  20859426.946    20859422.241
  23460415.762   -12951233.44943 -10060600.54642  23460417.752    23460415.205
  23134591.342   -11473714.23143  -8930139.04142  23134593.871    23134589.228
  23065970.626   -13550456.65143 -10503281.01242  23065972.652    23065968.266
  24326135.892    -8491272.18943  -6570567.32742  24326137.781    24326134.829
  20510067.081   -26854498.87444 -20911506.17742  20510068.558    20510063.604
  21393377.133   -19345257.90843 -15061580.02242  21393379.082    21393374.017
  20462006.929   -26422917.64344 -20406224.01442  20462008.892    20462002.491
 03  2 28  1 45 30.0000000  0  8G17G 6G26G 3G16G15G23G18
  20862674.458   -24527272.20743 -19067892.19542  20862675.785    20862671.093
  23480855.269   -12843823.27243  -9976904.39542  23480857.273    23480854.768
  23152138.226   -11381504.65843  -8858287.39342  23152140.750    23152136.087
  23051518.314   -13626403.86143 -10562460.59842  23051520.357    23051515.913
  24336676.361    -8435881.89743  -6527406.11342  24336678.218    24336675.250
  20504562.796   -26883423.91944 -20934045.14442  20504564.263    20504559.329
  21402579.900   -19296897.05843 -15023896.22942  21402581.848    21402576.745
  20462761.337   -26418953.02644 -20403134.67542  20462763.302    20462756.904
 03  2 28  1 46  0.0000000  0  8G17G 6G26G 3G16G15G23G18
  20865969.943   -24509954.30043 -19054397.70542  20865971.262    20865966.568
  23501318.044   -12736290.94343  -9893113.06642  23501320.034    23501317.552
  23169751.485   -11288945.89643  -8786163.66542  23169754.113    23169749.401
  23037131.441   -13702007.01843 -10621372.07942  23037133.538    23037129.033
  24347260.797    -8380260.59143  -6484064.90542  24347262.667    24347259.653
  20499100.403   -26912128.94744 -20956412.67242  20499101.866    20499096.917
  21411808.455   -19248400.58343 -14986106.75242  21411810.389    21411805.308
  20463572.279   -26414691.29144 -20399813.81642  20463574.248    20463567.849
 03  2 28  1 46 30.0000000  0  8G17G 6G26G 3G16G15G23G18
  20869320.271   -24492348.22543 -19040678.66842  20869321.576    20869316.874
  23521811.617   -12628596.90043  -9809195.70142  23521813.570    23521811.094
  23187438.681   -11195998.99943  -8713737.48342  23187441.276    23187436.645
  23022818.467   -13777221.80843 -10679980.94942  23022820.591    23022816.078
  24357896.611    -8324368.92043  -6440513.01942  24357898.608    24357895.549
  20493688.083   -26940570.74844 -20978575.08242  20493689.545    20493684.603
  21421070.551   -19199727.91243 -14948179.98042  21421072.476    21421067.400
  20464447.510   -26410091.73444 -20396229.72042  20464449.483    20464443.089
 03  2 28  1 47  0.0000000  0  8G17G 6G26G 3G16G15G23G18
  20872723.223   -24474465.50043 -19026744.05942  20872724.549    20872719.796
  23542333.070   -12520756.04143  -9725163.94942  23542335.040    23542332.585
  23205196.868   -11102679.47343  -8641020.95542  23205199.371    23205194.727
  23008577.528   -13852058.31343 -10738295.05142  23008579.644    23008575.097
  24368581.168    -8268221.86843  -6396762.12042  24368582.980    24368579.998
  20488323.720   -26968760.45044 -21000541.05442  20488325.191    20488320.261
  21430363.529   -19150893.08043 -14910126.84942  21430365.421    21430360.340
  20465384.449   -26405167.96143 -20392392.98342  20465386.426    20465380.026
 03  2 28  1 47 30.0000000  0  8G17G 6G26G 3G16G15G23G18
  20876178.032   -24456310.11343 -19012596.98542  20876179.384    20876174.625
  23562881.079   -12412776.10743  -9641023.83042  23562882.989    23562880.547
  23223024.348   -11008995.41843  -8568020.37242  23223026.807    23223022.196
  22994408.008   -13926519.33543 -10796316.56042  22994410.142    22994405.555
  24379312.758    -8211827.54143  -6352818.54642  24379314.454    24379311.463
  20483006.587   -26996702.10844 -21022313.74542  20483008.080    20483003.123
  21439686.045   -19101902.74743 -14871952.55442  21439687.957    21439682.849
  20466381.907   -26399926.14544 -20388308.42642  20466383.898    20466377.489
 03  2 28  1 48  0.0000000  0  8G17G 6G26G 3G16G15G23G18
  20879685.493   -24437878.21143 -18998234.44642  20879686.819    20879682.069
  23583455.720   -12304656.23943  -9556774.68042  23583457.605    23583455.177
  23240921.187   -10914946.66843  -8494735.61342  23240923.693    23240919.068
  22980310.967   -14000599.35843 -10854041.20342  22980313.132    22980308.539
  24390091.323    -8155185.72343  -6308682.12842  24390093.141    24390090.109
  20477737.487   -27024391.22544 -21043889.64742  20477738.988    20477734.031
  21449038.460   -19052755.34643 -14833655.86142  21449040.384    21449035.261
  20467440.287   -26394364.16944 -20383974.39942  20467442.265    20467435.859
 03  2 28  1 48 30.0000000  0  8G17G 6G26G 3G16G15G23G18
  20883246.782   -24419163.39243 -18983651.45442  20883248.108    20883243.373
  23604057.591   -12196393.10243  -9472413.87142  23604059.538    23604057.088
  23258887.926   -10820530.32343  -8421164.41942  23258890.527    23258885.893
  22966288.072   -14074290.01843 -10911462.42742  22966290.200    22966285.585
  24400917.650    -8098293.29143  -6264350.42742  24400919.367    24400916.345
  20472517.798   -27051820.71344 -21065263.24242  20472519.299    20472514.337
  21458421.608   -19003446.47143 -14795233.35342  21458423.528    21458418.407
  20468560.540   -26388477.21344 -20379387.13542  20468562.504    20468556.093
 03  2 28  1 49  0.0000000  0  8G17G 6G26G 3G16G15G23G18
  20886862.621   -24400161.99343 -18968845.15142  20886863.946    20886859.217
  23624686.726   -12087986.94143  -9387941.63242  23624688.675    23624686.192
  23276924.485   -10725747.36843  -8347307.54742  23276927.092    23276922.472
  22952340.073   -14147587.01143 -10968576.92042  22952342.184    22952337.556
  24411791.486    -8041151.04343  -6219824.05342  24411793.207    24411790.164
  20467348.160   -27078987.23144 -21086431.92342  20467349.653    20467344.690
  21467835.588   -18953975.54543 -14756684.57142  21467837.516    21467832.410
  20469742.821   -26382264.19144 -20374545.79442  20469744.806    20469738.358
 03  2 28  1 49 30.0000000  0  9G17G 6G26G 3G16G15G23G18G 9
  20890532.555   -24380876.47543 -18953817.45942  20890533.851    20890529.126
  23645341.884   -11979443.70543  -9303362.57542  23645343.847    23645341.399
  23295029.629   -10630603.99243  -8273169.84542  23295032.209    23295027.673
  22938466.798   -14220491.20643 -11025385.32342  22938468.917    22938464.317
  24422711.786    -7983764.93643  -6175107.66042  24422713.506    24422710.353
  20462228.230   -27105892.62644 -21107397.13242  20462229.721    20462224.720
  21477279.476   -18904347.43143 -14718013.30242  21477281.412    21477276.337
  20470986.271   -26375729.87144 -20369454.09042  20470988.240    20470981.780
  24468292.730    -5073220.30053  -3939674.54552  24468295.356    24468292.759
 03  2 28  1 50  0.0000000  0  9G17G 6G26G 3G16G15G23G18G 9
  20894253.409   -24361323.14443 -18938581.07942  20894254.738    20894250.007
  23666019.528   -11870782.62743  -9218691.70142  23666021.458    23666019.021
  23313199.599   -10535120.13143  -8198766.82342  23313202.202    23313197.681
  22924665.528   -14293017.15543 -11081898.99242  22924667.615    22924663.023
  24433674.656    -7926154.82843  -6130216.72542  24433676.504    24433673.368
  20457154.985   -27132552.54144 -21128171.05842  20457156.478    20457151.484
  21486749.801   -18854580.46543 -14679233.83942  21486751.736    21486746.675
  20472287.477   -26368891.96944 -20364125.83142  20472289.429    20472282.962
  24455134.716    -5142365.45443  -3993553.78842  24455137.267    24455134.689
 03  2 28  1 50 30.0000000  0  9G17G 6G26G 3G16G15G23G18G 9
  20898029.236   -24341480.94243 -18923119.60542  20898030.570    20898025.852
  23686722.873   -11761986.14743  -9133915.32142  23686724.859    23686722.390
  23331437.579   -10439278.86843  -8124085.30942  23331440.133    23331435.645
  22910940.449   -14365142.78043 -11138100.73042  22910942.493    22910937.926
  24444683.506    -7868303.69543  -6085137.98142  24444685.311    24444682.234
  20452132.501   -27158945.70244 -21148737.12742  20452133.988    20452129.005
  21496250.086   -18804656.18943 -14640331.79642  21496251.999    21496246.927
  20473649.980   -26361731.80944 -20358546.46042  20473651.933    20473645.464
  24442013.669    -5211316.62943  -4047281.86642  24442016.295    24442013.658
 03  2 28  1 51  0.0000000  0  9G17G 6G26G 3G16G15G23G18G 9
  20901855.735   -24321372.39143 -18907450.58742  20901857.070    20901852.382
  23707446.985   -11653080.55843  -9049053.91642  23707448.949    23707446.448
  23349738.540   -10343106.90643  -8049146.09742  23349741.022    23349736.539
  22897287.438   -14436889.60543 -11194007.29342  22897289.476    22897284.911
  24455732.983    -7810238.11543  -6039892.13342  24455734.928    24455731.756
  20447156.552   -27185094.41744 -21169112.71842  20447158.027    20447153.042
  21505775.458   -18754599.92243 -14601326.90242  21505777.376    21505772.288
  20475069.033   -26354274.41344 -20352735.47942  20475070.996    20475064.528
  24428925.684    -5280094.08643  -4100874.58342  24428928.239    24428925.593
 03  2 28  1 51 30.0000000  0  9G17G 6G26G 3G16G15G23G18G 9
  20905739.088   -24300964.97743 -18891548.68842  20905740.430    20905735.762
  23728197.434   -11544036.71743  -8964084.78142  23728199.389    23728196.937
  23368107.832   -10246575.48743  -7973926.79242  23368110.298    23368105.842
  22883712.988   -14508223.49343 -11249592.08642  22883715.049    22883710.456
  24466828.824    -7751929.10143  -5994456.57842  24466830.822    24466827.598
  20442233.383   -27210965.84344 -21189272.24142  20442234.831    20442229.837
  21515331.727   -18704381.31343 -14562195.50642  21515333.628    21515328.552
  20476550.522   -26346488.99244 -20346668.90042  20476552.490    20476546.007
  24415877.394    -5348662.86443  -4154304.68442  24415879.979    24415877.279
 03  2 28  1 52  0.0000000  0  9G17G 6G26G 3G16G15G23G18G 9
  20909679.435   -24280258.27743 -18875413.58542  20909680.758    20909676.111
  23748973.757   -11434856.76743  -8879009.60942  23748975.720    23748973.269
  23386544.969   -10149687.69543  -7898429.79842  23386547.434    23386542.906
  22870217.621   -14579142.13143 -11304853.31342  22870219.651    22870215.066
  24477970.464    -7693379.45643  -5948833.55542  24477972.494    24477969.304
  20437363.224   -27236558.61544 -21209214.63642  20437364.696    20437359.679
  21524918.600   -18654001.83343 -14522938.75542  21524920.505    21524915.427
  20478094.189   -26338376.91344 -20340347.78042  20478096.142    20478089.663
  24402869.450    -5417019.64143  -4207569.57442  24402871.935    24402869.256
 03  2 28  1 52 30.0000000  0  9G17G 6G26G 3G16G15G23G18G 9
  20913676.771   -24259252.10643 -18859045.12042  20913678.070    20913673.415
  23769775.306   -11325544.38543  -8793831.23742  23769777.274    23769774.792
  23405049.158   -10052447.58943  -7822658.26342  23405051.611    23405047.038
  22856801.477   -14649644.35643 -11359790.05742  22856803.501    22856798.895
  24489157.181    -7634593.21043  -5903026.14442  24489159.163    24489156.005
  20432546.137   -27261872.42144 -21228939.64842  20432547.597    20432542.597
  21534535.622   -18603464.08943 -14483558.68042  21534537.526    21534532.424
  20479699.622   -26329940.30344 -20333773.77542  20479701.560    20479695.077
  24389902.194    -5485162.21043  -4260667.54442  24389904.598    24389902.096
 03  2 28  1 53  0.0000000  0  9G17G 6G26G 3G16G15G23G18G 9
  20917728.919   -24237957.93343 -18842452.24442  20917730.208    20917725.530
  23790599.147   -11216114.72543  -8708561.47542  23790601.078    23790598.625
  23423617.383    -9954870.88043  -7746624.43942  23423619.790    23423615.259
  22843462.575   -14719740.70943 -11414410.54342  22843464.580    22843459.961
  24500385.934    -7575585.88243  -5857046.47942  24500387.870    24500384.756
  20427780.000   -27286918.57344 -21248456.10442  20427781.453    20427776.444
  21544180.084   -18552782.12643 -14444066.22242  21544181.981    21544176.880
  20481364.167   -26321192.88444 -20326957.58142  20481366.112    20481359.639
  24376973.909    -5553100.10943  -4313606.02042  24376976.382    24376973.919
 03  2 28  1 53 30.0000000  0  9G17G 6G26G 3G16G15G23G18G 9
  20921834.325   -24216383.81643 -18825641.22642  20921835.638    20921830.916
  23811443.208   -11106578.68143  -8623208.82342  23811445.185    23811442.765
  23442247.476    -9856968.88643  -7670337.14342  23442249.924    23442245.339
  22830199.798   -14789436.99743 -11468719.29142  22830201.803    22830197.152
  24511654.647    -7516368.90643  -5810903.43242  24511656.632    24511653.557
  20423063.379   -27311704.30644 -21267769.63542  20423064.839    20423059.832
  21553850.121   -18501965.82143 -14404469.08842  21553852.008    21553846.876
  20483086.059   -26312144.20644 -20319906.64042  20483088.019    20483081.527
  24364083.653    -5620838.16443  -4366388.76842  24364086.239    24364083.646
 03  2 28  1 54  0.0000000  0  9G17G 6G26G 3G16G15G23G18G 9
  20925993.775   -24194525.75743 -18808608.95742  20925995.070    20925990.335
  23832307.666   -10996935.60943  -8537772.77542  23832309.620    23832307.286
  23460939.467    -9758741.64143  -7593796.40142  23460941.908    23460937.330
  22817014.145   -14858727.89243 -11522712.14642  22817016.156    22817011.537
  24522963.365    -7456941.71843  -5764596.59642  24522965.350    24522962.147
  20418397.210   -27336225.10244 -21286876.72842  20418398.655    20418393.662
  21563546.003   -18451013.60043 -14364766.04342  21563547.895    21563542.728
  20484865.680   -26302792.19444 -20312619.33142  20484867.619    20484861.126
  24351232.637    -5688370.14043  -4419010.93742  24351235.191    24351232.626
 03  2 28  1 54 30.0000000  0  9G17G 6G26G 3G16G15G23G18G 9
  20930204.218   -24172399.48043 -18791367.68342  20930205.561    20930200.798
  23853188.775   -10887204.89243  -8452268.44442  23853190.708    23853188.440
  23479689.525    -9660209.18243  -7517017.83242  23479691.953    23479687.418
  22803902.740   -14927628.41743 -11576400.81142  22803904.780    22803900.175
  24534308.301    -7397324.25243  -5718141.48842  24534310.306    24534307.191
  20413778.420   -27360496.87144 -21305789.77042  20413779.847    20413774.854
  21573264.225   -18399943.87343 -14324971.43542  21573266.117    21573260.916
  20486699.535   -26293155.06644 -20305109.85742  20486701.484    20486695.009
  24338418.189    -5755709.79543  -4471483.23242  24338420.790    24338418.165
 03  2 28  1 55  0.0000000  0  9G17G 6G26G 3G16G15G23G18G 9
  20934465.058   -24150008.41343 -18773920.08642  20934466.379    20934461.629
  23874085.239   -10777393.38643  -8366701.16342  23874087.122    23874084.996
  23498496.267    -9561378.79243  -7440007.10742  23498498.751    23498494.145
  22790865.292   -14996140.45743 -11629786.76942  22790867.330    22790862.701
  24545687.977    -7337523.92743  -5671543.89342  24545689.862    24545686.873
  20409206.487   -27384522.50144 -21324511.01542  20409207.910    20409202.885
  21583003.694   -18348762.40643 -14285089.76042  21583005.599    21583000.409
  20488586.564   -26283238.47844 -20297382.62042  20488588.522    20488582.061
  24325640.106    -5822858.47543  -4523806.72942  24325642.682    24325640.035
 03  2 28  1 55 30.0000000  0  9G17G 6G26G 3G16G15G23G18G 9
  20938792.173   -24127269.10943 -18756201.13342  20938793.478    20938788.760
  23895012.413   -10667420.62943  -8281008.22942  23895014.281    23895012.201
  23517374.959    -9462170.52643  -7362701.93642  23517377.449    23517372.813
  22777917.997   -15064178.79743 -11682803.60442  22777920.034    22777915.401
  24557117.604    -7277460.65243  -5624741.43042  24557119.359    24557116.539
  20404697.391   -27408217.82844 -21342974.88042  20404698.805    20404693.770
  21592780.018   -18297387.54343 -14245057.38642  21592781.914    21592776.717
  20490542.401   -26272960.39044 -20289373.69142  20490544.357    20490537.905
  24312914.816    -5889729.53443  -4575913.88242  24312917.313    24312914.643
 03  2 28  1 56  0.0000000  0  9G17G 6G26G 3G16G15G23G18G 9
  20943172.991   -24104247.76943 -18738262.40842  20943174.285    20943169.596
  23915957.060   -10557356.42643  -8195244.05042  23915958.928    23915956.848
  23536312.083    -9362654.92343  -7285157.28142  23536314.600    23536309.931
  22765048.392   -15131808.88943 -11735502.32242  22765050.411    22765045.773
  24568583.909    -7217204.75243  -5577788.86842  24568585.744    24568583.006
  20400238.600   -27431648.96244 -21361232.88142  20400239.984    20400234.947
  21602579.992   -18245888.27543 -14204928.07242  21602581.892    21602576.723
  20492553.957   -26262389.44444 -20281136.56342  20492555.913    20492549.464
  24300230.120    -5956387.19243  -4627854.75142  24300232.668    24300229.985
 03  2 28  1 56 30.0000000  0  9G17G 6G26G 3G16G15G23G18G 9
  20947607.585   -24080943.78443 -18720103.44442  20947608.860    20947604.194
  23936918.602   -10447203.40543  -8109410.65042  23936920.410    23936918.445
  23555307.092    -9262835.14043  -7207375.60842  23555309.575    23555305.069
  22752256.856   -15199028.54343 -11787881.22742  22752258.910    22752254.248
  24580086.497    -7156759.00443  -5530688.35042  24580088.260    24580085.539
  20395830.323   -27454814.59144 -21379283.99542  20395831.718    20395826.665
  21612403.363   -18194266.12343 -14164703.00542  21612405.254    21612400.090
  20494621.011   -26251526.98344 -20272672.28542  20494622.952    20494616.498
  24287586.727    -6022828.46643  -4679626.99842  24287589.129    24287586.387
 03  2 28  1 57  0.0000000  0  9G17G 6G26G 3G16G15G23G18G 9
  20952096.154   -24057356.15743 -18701723.46042  20952097.445    20952092.758
  23957896.536   -10336964.13343  -8023510.05042  23957898.292    23957896.410
  23574359.491    -9162714.07143  -7129359.16642  23574361.919    23574357.374
  22739543.835   -15265835.68043 -11839938.68542  22739545.904    22739541.221
  24591624.548    -7096126.23443  -5483442.09142  24591626.390    24591623.544
  20391472.782   -27477713.54544 -21397127.30942  20391474.180    20391469.115
  21622249.840   -18142522.43043 -14124383.23042  21622251.727    21622246.593
  20496743.287   -26240374.27944 -20263981.84142  20496745.217    20496738.757
  24274984.991    -6089050.14943  -4731228.13042  24274987.382    24274984.641
 03  2 28  1 57 30.0000000  0  9G17G 6G26G 3G16G15G23G18G 9
  20956640.618   -24033474.75043 -18683114.55342  20956641.928    20956637.239
  23978892.170   -10226631.64943  -7937536.82242  23978893.891    23978892.064
  23593470.352    -9062285.53043  -7051103.11942  23593472.789    23593468.238
  22726911.526   -15332218.47543 -11891665.48542  22726913.635    22726908.930
  24603199.337    -7035300.37443  -5436045.42642  24603201.976    24603198.289
  20387168.016   -27500335.09644 -21414754.46542  20387169.425    20387164.342
  21632120.967   -18090649.20643 -14083962.52242  21632122.860    21632117.723
  20498922.340   -26228923.06444 -20255058.78942  20498924.301    20498917.832
  24262427.503    -6155039.66343  -4782648.36742  24262429.987    24262427.112
 03  2 28  1 58  0.0000000  0  9G17G 6G26G 3G16G15G23G18G 9
  20961243.220   -24009287.85343 -18664267.60042  20961244.537    20961239.821
  23999907.156   -10116197.43443  -7851484.32342  23999908.961    23999907.155
  23612641.236    -8961541.61043  -6972601.33842  23612643.674    23612639.148
  22714362.459   -15398164.07143 -11943051.60742  22714364.590    22714359.844
  24614812.426    -6974273.32243  -5388491.94442  24614814.806    24614811.540
  20382918.357   -27522667.09944 -21432156.00042  20382919.769    20382914.681
  21642018.506   -18038636.98543 -14043433.50142  21642020.445    21642015.316
  20501160.126   -26217163.41444 -20245895.40242  20501162.076    20501155.584
  24249916.984    -6220782.75143  -4833876.60142  24249919.300    24249916.500
 03  2 28  1 58 30.0000000  0  9G17G 6G26G 3G16G15G23G18G 9
  20965907.410   -23984777.32043 -18645168.46442  20965908.738    20965903.983
  24020944.312   -10005647.08943  -7765341.33542  24020946.095    24020944.307
  23631874.847    -8860468.26543  -6893842.84442  23631877.279    23631872.768
  22701900.288   -15463653.44343 -11994082.23942  22701902.374    22701897.568
  24626466.514    -6913030.78143  -5340770.56842  24626468.791    24626465.590
  20378727.305   -27544691.14044 -21449317.56542  20378728.718    20378723.638
  21651945.510   -17986470.22943 -14002784.05942  21651947.436    21651942.310
  20503459.576   -26205079.77144 -20236479.55842  20503461.521    20503454.992
  24237457.045    -6286259.43443  -4884897.25642  24237459.434    24237456.502
 03  2 28  1 59  0.0000000  0  9G17G 6G26G 3G16G15G23G18G 9
  20970629.031   -23959964.96943 -18625834.14942  20970630.370    20970625.605
  24041998.861    -9895005.56443  -7679127.28242  24042000.631    24041998.793
  23651166.167    -8759091.37443  -6814847.83442  23651168.664    23651164.177
  22689520.982   -15528706.93143 -12044773.22342  22689523.055    22689518.226
  24638156.721    -6851598.43443  -5292901.27242  24638159.044    24638155.873
  20374590.763   -27566428.66744 -21466255.87142  20374592.184    20374587.097
  21661897.309   -17934173.01043 -13962032.96142  21661899.236    21661894.134
  20505816.120   -26192695.84844 -20226829.72642  20505818.094    20505811.556
  24225044.165    -6351489.02843  -4935725.36142  24225046.528    24225043.528
 03  2 28  1 59 30.0000000  0  9G17G 6G26G 3G16G15G23G18G 9
  20975404.066   -23934871.96143 -18606281.14042  20975405.418    20975400.622
  24063066.096    -9784297.16943  -7592861.14742  24063067.911    24063065.965
  23670510.597    -8657435.53043  -6735635.45642  23670513.177    23670508.599
  22677220.898   -15593344.21243 -12095139.88342  22677222.960    22677218.100
  24649878.395    -6790000.99943  -5244903.33942  24649880.511    24649877.485
  20370504.856   -27587900.06244 -21482986.80142  20370506.299    20370501.204
  21671869.541   -17881768.49443 -13921198.25142  21671871.465    21671866.374
  20508225.419   -26180034.75344 -20216963.91342  20508227.394    20508220.864
  24212674.761    -6416490.05943  -4986375.37742  24212677.115    24212674.153
 03  2 28  2  0  0.0000000  0  9G17G 6G26G 3G16G15G23G18G 9
  20980232.466   -23909498.40443 -18586509.52542  20980233.814    20980229.044
  24084145.438    -9673525.36343  -7506545.59142  24084147.231    24084145.246
  23689907.424    -8555504.82343  -6656208.90542  23689909.873    23689905.268
  22665000.248   -15657564.15943 -12145181.35042  22665002.304    22664997.386
  24661630.716    -6728242.32443  -5196779.78142  24661632.827    24661630.012
  20366469.726   -27609104.74444 -21499509.90542  20366471.167    20366466.063
  21681861.745   -17829258.85843 -13880281.63242  21681863.703    21681858.607
  20510687.103   -26167098.45844 -20206883.66042  20510689.066    20510682.527
  24200349.347    -6481260.16543  -5036845.46542  24200351.732    24200348.684
 03  2 28  2  0 30.0000000  0  9G17G 6G26G 3G16G15G23G18G 9
  20985118.807   -23883820.43643 -18566500.69742  20985120.154    20985115.385
  24105240.703    -9562669.30243  -7420164.36842  24105242.592    24105240.609
  23709360.313    -8453279.13443  -6576552.48842  23709362.804    23709358.218
  22652863.783   -15721341.47543 -12194877.90942  22652865.815    22652860.908
  24673417.725    -6666302.03343  -5148514.69642  24673419.743    24673416.964
  20362489.985   -27630018.30344 -21515806.15942  20362491.428    20362486.321
  21691878.157   -17776622.27443 -13839266.09242  21691880.089    21691874.982
  20513205.325   -26153864.99244 -20196571.84842  20513207.299    20513200.750
  24188072.872    -6545772.99643  -5087115.09142  24188075.269    24188072.240
 03  2 28  2  1  0.0000000  0  9G17G 6G26G 3G16G15G23G18G 9
  20990059.049   -23857859.09443 -18546271.06042  20990060.404    20990055.639
  24126347.381    -9451753.69043  -7333736.76342  24126349.247    24126347.302
  23728864.587    -8350783.49043  -6496685.72042  23728867.028    23728862.429
  22640807.728   -15784696.26043 -12244245.22342  22640809.745    22640804.837
  24685227.914    -5028785.21153  -3872527.63052  24685229.836    24685230.205
  20358561.650   -27650661.66744 -21531891.87142  20358563.085    20358557.972
  21701914.235   -17723882.18443 -13798169.89342  21701916.168    21701911.063
  20515775.716   -26140357.37444 -20186046.40342  20515777.698    20515771.133
  24175841.795    -6610047.36343  -5137198.89742  24175844.231    24175841.188
 03  2 28  2  1 30.0000000  0  9G17G 6G26G 3G16G15G23G18G 9
  20995059.988   -23831579.01543 -18525793.05542  20995061.338    20995056.534
  24147471.460    -9340746.52343  -7247237.81642  24147473.300    24147471.459
  23748426.131    -8247986.63043  -6416584.23942  23748428.557    23748423.993
  22628839.013   -15847592.08143 -12293254.90342  22628840.996    22628836.124
  24697086.350    -4966500.70443  -3823994.33242  24697089.724    24697085.951
  20354691.589   -27670998.93944 -21547739.06842  20354693.020    20354687.877
  21711976.272   -17671005.56843 -13756967.31642  21711978.238    21711973.101
  20518404.539   -26126542.68044 -20175281.68842  20518406.525    20518399.956
  24163663.274    -6674045.48043  -5187067.44642  24163665.680    24163662.671
 03  2 28  2  2  0.0000000  0  8G17G 6G26G 3G15G23G18G 9
  21000122.408   -23804975.87943 -18505063.31542  21000123.743    21000118.902
  24168613.249    -9229646.62343  -7160666.61342  24168615.024    24168613.225
  23768045.100    -8144887.97243  -6336247.59642  23768047.570    23768042.945
  22616958.665   -15910023.21643 -12341902.49242  22616960.696    22616955.817
  20350880.687   -27691025.40844 -21563344.08042  20350882.106    20350876.942
  21722064.717   -17617990.40843 -13715656.78342  21722066.675    21722061.522
  20521092.253   -26112418.50744 -20164275.81842  20521094.266    20521087.677
  24151538.588    -6737760.75643  -5236715.59542  24151541.062    24151537.950
 03  2 28  2  2 30.0000000  0  8G17G 6G26G 3G15G23G18G 9
  21005245.546   -23778053.60943 -18484084.89942  21005246.886    21005242.002
  24189771.175    -9118461.42843  -7074028.94342  24189772.925    24189771.244
  23787720.077    -8041495.47643  -6255681.98542  23787722.573    23787717.925
  22605166.230   -15971992.36743 -12390190.08342  22605168.289    22605163.416
  20347128.238   -27710744.47444 -21578709.55642  20347129.656    20347124.516
  21732178.380   -17564842.70643 -13674242.96942  21732180.341    21732175.154
  20523837.706   -26097991.06644 -20153033.62942  20523839.699    20523833.096
  24139467.408    -6801194.78443  -5286144.59842  24139469.918    24139466.726
 03  2 28  2  3  0.0000000  0  8G17G 6G26G 3G15G23G18G 9
  21010421.484   -23750853.75043 -18462890.18142  21010422.828    21010417.916
  24210936.882    -9007235.58143  -6987359.60942  24210938.606    24210937.023
  23807442.348    -7937854.25043  -6174922.54442  23807444.905    23807440.231
  22593454.071   -16033539.86843 -12438149.13142  22593456.121    22593451.277
  20343426.519   -27730197.07844 -21593867.39942  20343427.935    20343422.798
  21742309.032   -17511605.86143 -13632759.69342  21742310.975    21742305.751
  20526632.598   -26083303.70444 -20141588.91242  20526634.595    20526627.988
  24127442.327    -6864386.40043  -5335384.69942  24127444.920    24127441.606
 03  2 28  2  3 30.0000000  0  8G17G 6G26G 3G15G23G18G 9
  21015653.956   -23723356.86343 -18441464.01442  21015655.298    21015650.385
  24232113.343    -8895952.76843  -6900645.87842  24232115.217    24232113.501
  23827214.848    -7833948.66543  -6093957.12042  23827217.480    23827212.758
  22581826.132   -16094644.86943 -12485763.37342  22581828.165    22581823.320
  20339779.295   -27749363.24744 -21608802.04542  20339780.708    20339775.550
  21752459.891   -17458262.73343 -13591193.59642  21752461.815    21752456.565
  20529480.320   -26068338.69944 -20129927.84942  20529482.321    20529475.710
  24115467.525    -6927313.90943  -5384419.00642  24115470.084    24115466.804
 03  2 28  2  4  0.0000000  0  8G17G 6G26G 3G15G23G18G 9
  21020946.044   -23695546.61743 -18419793.67242  21020947.384    21020942.476
  24253303.229    -8784599.79543  -6813877.49342  24253305.116    24253303.420
  23847040.133    -7729766.11243  -6012775.88242  23847042.697    23847037.947
  22570285.767   -16155289.64743 -12533018.99642  22570287.792    22570282.964
  20336189.841   -27768225.92744 -21623500.20742  20336191.256    20336186.065
  21762633.720   -17404798.70043 -13549533.29042  21762635.652    21762630.390
  20532383.636   -26053081.47344 -20118039.07542  20532385.638    20532379.048
  24103546.598    -6989958.45443  -5433232.81542  24103549.072    24103545.789
 03  2 28  2  4 30.0000000  0  8G17G 6G26G 3G15G23G18G 9
  21026299.487   -23667414.12643 -18397872.23342  21026300.803    21026295.934
  24274507.461    -8673171.14343  -6727050.12042  24274509.426    24274507.667
  23866918.988    -7625301.75743  -5931375.03642  23866921.525    23866916.863
  22558834.787   -16215464.67543 -12579908.58242  22558836.840    22558832.001
  20332659.863   -27786775.89444 -21637954.69842  20332661.289    20332656.083
  21772831.778   -17351207.62243 -13507773.98942  21772833.684    21772828.432
  20535343.814   -26037525.65544 -20105917.63842  20535345.798    20535339.203
  24091681.595    -7052308.80543  -5481817.38442  24091684.184    24091680.787
 03  2 28  2  5  0.0000000  0  8G17G 6G26G 3G15G23G18G 9
  21031710.726   -23638977.75843 -18375714.01142  21031712.044    21031707.180
  24295721.976    -8561688.78543  -6640180.90442  24295723.910    24295722.228
  23886847.260    -7520577.98843  -5849772.05242  23886849.872    23886845.006
  22547469.971   -16275187.10943 -12626445.50842  22547472.012    22547467.162
  20329185.925   -27805031.36644 -21652179.71042  20329187.387    20329182.158
  21783050.102   -17297509.90543 -13465931.59742  21783051.995    21783046.762
  20538356.909   -26021691.74044 -20093579.50142  20538358.874    20538352.249
  24079869.509    -7114381.26743  -5530185.43042  24079872.108    24079868.670
 03  2 28  2  5 30.0000000  0  8G17G 6G26G 3G15G23G18G 9
  21037174.310   -23610266.43843 -18353341.53542  21037175.628    21037170.763
  24316940.604    -8450184.59843  -6553294.68342  24316942.547    24316940.878
  23906818.667    -7415627.27943  -5767992.23142  23906821.245    23906816.432
  22536186.002   -16334484.54943 -12672651.26242  22536188.067    22536183.189
  20325762.662   -27823020.63044 -21666197.28942  20325764.111    20325758.892
  21793282.853   -17243736.38043 -13424030.13042  21793284.741    21793279.509
  20541417.083   -26005610.31344 -20081048.49542  20541419.052    20541412.416
  24068105.332    -7176202.25643  -5578357.50042  24068107.823    24068104.446
 03  2 28  2  6  0.0000000  0  8G17G 6G26G 3G15G23G18G 9
  21042696.040   -23581249.45543 -18330730.87842  21042697.364    21042692.497
  24338168.641    -8338631.12043  -6466370.04542  24338170.569    24338168.986
  23926838.460    -7310422.52143  -5686014.43942  23926840.968    23926836.196
  22524989.030   -16393324.82543 -12718500.79142  22524991.109    22524986.227
  20322396.089   -27840711.98144 -21679982.73142  20322397.520    20322392.321
  21803535.531   -17189858.07543 -13382047.01942  21803537.419    21803532.218
  20544529.842   -25989252.53144 -20068302.15342  20544531.821    20544525.156
  24056395.336    -7237738.25843  -5626307.50642  24056397.822    24056394.390
 03  2 28  2  6 30.0000000  0  8G17G 6G26G 3G15G23G18G 9
  21048278.929   -23551911.06343 -18307869.77142  21048280.268    21048275.378
  24359408.386    -8227016.07343  -6379397.43642  24359410.325    24359408.749
  23946908.727    -7204952.27043  -5603829.77242  23946911.357    23946906.477
  22513882.261   -16451691.25443 -12763981.08542  22513884.331    22513879.419
  20319089.161   -27858089.81444 -21693523.87342  20319090.594    20319085.390
  21813810.620   -17135861.86243 -13339972.03142  21813812.544    21813807.349
  20547697.705   -25972605.19944 -20055330.18142  20547699.674    20547693.015
  24044742.964    -7298971.70643  -5674021.77342  24044745.417    24044741.923
 03  2 28  2  7  0.0000000  0  8G17G 6G26G 3G15G23G18G 9
  21053927.378   -23522228.11043 -18284740.17542  21053928.700    21053923.827
  24380663.697    -8115319.41243  -6292361.22742  24380665.596    24380663.958
  23967033.296    -7099196.87243  -5521422.91842  23967035.900    23967031.020
  22502870.317   -16509559.42343 -12809073.12342  22502872.371    22502867.423
  20315846.506   -27875129.89444 -21706801.83142  20315847.940    20315842.729
  21824112.251   -17081726.38043 -13297788.52142  21824114.192    21824108.978
  20550924.794   -25955646.53644 -20042115.61542  20550926.788    20550920.104
  24033153.043    -7359876.71343  -5721480.09642  24033155.475    24033151.942
 03  2 28  2  7 30.0000000  0  8G17G 6G26G 3G15G23G18G 9
  21059628.418   -23492268.83343 -18261395.26442  21059629.731    21059624.864
  24401920.879    -8003612.52343  -6205317.05042  24401922.769    24401921.159
  23987198.450    -6993228.30243  -5438849.95242  23987200.977    23987196.142
  22491940.386   -16566996.54843 -12853829.28842  22491942.436    22491937.453
  20312655.218   -27891900.05644 -21719869.46042  20312656.647    20312651.424
  21834426.992   -17027521.93043 -13255551.27142  21834428.937    21834423.716
  20554197.757   -25938446.84744 -20028713.23742  20554199.744    20554193.053
  24021613.044    -7420519.34143  -5768733.97542  24021615.478    24021611.896
 03  2 28  2  8  0.0000000  0  8G17G 6G26G 3G15G23G18G 9
  21065387.720   -23462003.54243 -18237811.90042  21065388.999    21065384.129
  24423185.117    -7891868.91843  -6118244.25042  24423186.976    24423185.377
  24007409.020    -6887020.82243  -5356090.83442  24007411.514    24007406.755
  22481098.357   -16623971.74043 -12898225.50742  22481100.396    22481095.393
  20309521.051   -27908370.20544 -21732703.31442  20309522.473    20309517.214
  21844760.134   -16973220.80443 -13213238.69042  21844762.064    21844756.853
  20557521.834   -25920978.60744 -20015101.59442  20557523.819    20557517.106
  24010129.073    -7480867.39443  -5815758.32542  24010131.522    24010127.932
 03  2 28  2  8 30.0000000  0  8G17G 6G26G 3G15G23G18G 9
  21071210.232   -23431405.94243 -18213969.59442  21071211.516    21071206.627
  24444460.746    -7780065.68243  -6031124.99142  24444462.547    24444461.031
  24027669.318    -6780551.99343  -5273128.05142  24027671.837    24027667.088
  22470349.393   -16680457.76243 -12942240.55042  22470351.442    22470346.398
  20306449.064   -27924513.50744 -21745282.48342  20306450.494    20306445.207
  21855116.280   -16918798.75843 -13170831.88542  21855118.211    21855112.995
  20560901.677   -25903217.39844 -20001261.66742  20560903.644    20560896.923
  23998706.655    -7540892.29043  -5862530.87242  23998709.098    23998705.505
 03  2 28  2  9  0.0000000  0  8G17G 6G26G 3G15G23G18G 9
  21077090.092   -23400506.99143 -18189892.46342  21077091.359    21077086.510
  24465741.229    -7668236.82643  -5943985.76142  24465742.971    24465741.577
  24047972.728    -6673856.38943  -5189988.57042  24047975.320    24047970.461
  22459687.832   -16736484.48543 -12985897.69942  22459689.875    22459684.844
  20303433.506   -27940360.21744 -21757630.54442  20303434.948    20303429.654
  21865489.195   -16864288.64443 -13128356.45842  21865491.138    21865485.908
  20564330.971   -25885196.35044 -19987219.27042  20564332.918    20564326.197
  23987340.311    -7600622.53443  -5909073.81842  23987342.751    23987339.109
 03  2 28  2  9 30.0000000  0  9G17G 6G26G 3G15G14G23G18G 9
  21083029.799   -23369293.53343 -18165570.26842  21083031.070    21083026.233
  24487028.427    -7556372.38243  -5856818.82442  24487030.176    24487028.764
  24068321.144    -6566924.46243  -5106664.94642  24068323.828    24068318.912
  22449116.382   -16792037.52643 -13029185.74242  22449118.458    22449113.393
  20300477.042   -27955896.51544 -21769736.72542  20300478.475    20300473.173
  22668691.359     -293456.28053   -215939.89852  22668693.723    22668688.526
  21875881.025   -16809679.22743 -13085803.64642  21875882.940    21875877.729
  20567811.933   -25866903.67944 -19972965.21842  20567813.886    20567807.156
  23976033.019    -7660042.50543  -5955375.00942  23976035.449    23976031.781
 03  2 28  2 10  0.0000000  0  9G17G 6G26G 3G15G14G23G18G 9
  21089028.155   -23337771.92743 -18141007.95842  21089029.418    21089024.601
  24508320.602    -7444481.72143  -5769631.44242  24508322.459    24508321.006
  24088712.632    -6459766.20443  -5023164.94642  24088715.251    24088710.344
  22438634.092   -16847122.03843 -13072108.70342  22438636.207    22438631.119
  20297578.532   -27971128.17044 -21781605.52242  20297579.958    20297574.665
  22649297.310     -395371.82243   -295354.48742  22649299.700    22649294.609
  21886290.150   -16754978.83243 -13043179.94142  21886292.058    21886286.849
  20571342.965   -25848347.74944 -19958506.02942  20571344.963    20571338.215
  23964783.926    -7719156.22343  -6001437.55042  23964786.432    23964782.721
 03  2 28  2 10 30.0000000  0  9G17G 6G26G 3G15G14G23G18G 9
  21095087.172   -23305931.56643 -18116197.27142  21095088.406    21095083.609
  24529619.212    -7332557.35543  -5682417.80642  24529621.012    24529619.739
  24109148.498    -6352374.95543  -4939483.40942  24109151.111    24109146.102
  22428243.198   -16901726.28643 -13114657.42842  22428245.319    22428240.227
  20294740.112   -27986044.05744 -21793228.26342  20294741.547    20294736.236
  22629951.617     -497033.56543   -374571.31442  22629954.032    22629948.956
  21896718.268   -16700178.74843 -13000478.55842  21896720.160    21896714.938
  20574925.744   -25829520.15844 -19943835.15442  20574927.726    20574920.972
  23953595.670    -7777950.67343  -6047251.31542  23953598.095    23953594.450
 03  2 28  2 11  0.0000000  0  8G17G26G 3G15G14G23G18G 9
  21101206.991   -23273771.47643 -18091137.44142  21101208.239    21101203.433
  24129628.092    -6244753.58143  -4855622.54442  24129630.691    24129625.827
  22417944.070   -16955848.36343 -13156830.44342  22417946.187    22417941.104
  20291962.084   -28000642.69444 -21804603.79842  20291963.481    20291958.172
  22610654.751     -598439.00043   -453588.43242  22610657.180    22610652.109
  21907165.100   -16645280.17243 -12957700.42942  21907167.007    21907161.765
  20578560.028   -25810421.85944 -19928953.34042  20578561.994    20578555.240
  23942468.761    -7836422.76943  -6092813.89442  23942471.086    23942467.394
 03  2 28  2 11 30.0000000  0  8G17G26G 3G15G14G23G18G 9
  21107387.180   -23241294.13843 -18065830.40442  21107388.446    21107383.634
  24150150.358    -6136908.21943  -4771587.13542  24150152.963    24150148.025
  22407736.434   -17009489.70843 -13198628.84542  22407738.523    22407733.465
  20289244.025   -28014926.15344 -21815733.73442  20289245.417    20289240.088
  22591406.542     -699588.50343   -532406.11942  22591408.990    22591403.964
  21917629.808   -16590287.50443 -12914848.97942  21917631.750    21917626.496
  20582244.930   -25791057.32444 -19913864.06842  20582246.913    20582240.136
  23931403.053    -7894572.60543  -6138125.36142  23931405.451    23931401.721
 03  2 28  2 12  0.0000000  0  8G17G26G 3G15G14G23G18G 9
  21113629.834   -23208488.75543 -18040267.75042  21113631.082    21113626.253
  24170716.644    -6028831.35243  -4687371.33842  24170719.326    24170714.291
  22397622.582   -17062638.09943 -13240043.14242  22397624.661    22397619.644
  20286588.184   -28028882.50144 -21826608.78142  20286589.577    20286584.244
  22572209.493     -800469.17843   -611014.33842  22572211.973    22572206.944
  21928114.218   -16535191.43843 -12871916.96042  21928116.182    21928110.922
  20585982.348   -25771417.07944 -19898559.96142  20585984.312    20585977.524
  23920401.367    -7952386.36643  -6183174.93342  23920403.720    23920399.992
 03  2 28  2 12 30.0000000  0  8G17G26G 3G15G14G23G18G 9
  21119931.796   -23175371.65843 -18014462.20042  21119933.040    21119928.187
  24191323.061    -5920543.17943  -4602990.88442  24191325.887    24191320.840
  22387599.576   -17115309.04843 -13281085.40342  22387601.666    22387596.675
  20283991.580   -28042527.63944 -21837241.32942  20283992.976    20283987.620
  22553060.787     -901095.66443   -689424.48542  22553063.330    22553058.249
  21938614.838   -16480010.27743 -12828918.63342  21938616.782    21938611.510
  20589768.725   -25751519.48744 -19883055.32242  20589770.680    20589763.900
  23909460.931    -8009878.40143  -6227973.81942  23909463.230    23909459.512
 03  2 28  2 13  0.0000000  0  8G17G26G 3G15G14G23G18G 9
  21126294.887   -23141933.34443 -17988406.34942  21126296.124    21126291.262
  24211970.946    -5812037.93643  -4518441.26642  24211973.749    24211968.553
  22377669.469   -17167491.84543 -13321747.28242  22377671.564    22377666.603
  20281456.166   -28055851.24144 -21847623.32842  20281457.541    20281452.207
  22533962.641    -1001456.72843   -767627.81442  22533965.179    22533960.105
  21949133.087   -16424736.56943 -12785848.19542  21949135.019    21949129.735
  20593605.439   -25731357.40844 -19867344.59142  20593607.374    20593600.608
  23898583.984    -8067036.79643  -6272512.72542  23898586.285    23898582.581
 03  2 28  2 13 30.0000000  0  8G17G26G 3G15G14G23G18G 9
  21132720.867   -23108164.58243 -17962093.01142  21132722.100    21132717.215
  24232661.075    -5703310.40543  -4433718.44142  24232663.881    24232658.674
  22367834.138   -17219176.52443 -13362021.02042  22367836.218    22367831.309
  20278983.695   -28068844.04344 -21857747.56542  20278985.079    20278979.748
  22514917.081    -1101541.39043   -845615.77142  22514919.642    22514914.542
  21959670.272   -16369363.21043 -12742700.10042  21959672.216    21959666.915
  20597493.862   -25710923.50444 -19851422.04542  20597495.798    20597489.074
  23887772.688    -8123850.13043  -6316782.75742  23887775.040    23887771.180
 03  2 28  2 14  0.0000000  0  8G17G26G 3G15G14G23G18G 9
  21139205.703   -23074086.29343 -17935538.47742  21139206.967    21139202.067
  24253388.848    -5594385.02243  -4348841.44442  24253391.526    24253386.357
  22358089.841   -17270383.01143 -13401922.14342  22358091.921    22358086.997
  20276570.280   -28081526.47844 -21867629.95542  20276571.683    20276566.362
  22495920.506    -1201368.72643   -923403.21242  22495923.087    22495917.945
  21970222.118   -16313912.85243 -12699492.00942  21970224.055    21970218.721
  20601429.684   -25690240.37844 -19835305.30342  20601431.640    20601424.919
  23877023.554    -8180336.74443  -6360798.18842  23877025.968    23877021.953
 03  2 28  2 14 30.0000000  0  8G17G26G 3G15G14G23G18G 9
  21145750.081   -23039695.19743 -17908740.20342  21145751.355    21145746.468
  24274154.297    -5485261.70643  -4263810.20242  24274156.936    24274151.756
  22348437.420   -17321106.66843 -13441447.03042  22348439.489    22348434.582
  20274216.777   -28093894.10844 -21877267.04342  20274218.191    20274212.862
  22476973.977    -1300933.08643  -1000985.74142  22476976.541    22476971.388
  21980788.977   -16258383.66243 -12656222.49342  21980790.895    21980785.550
  20605413.251   -25669306.36544 -19818993.06242  20605415.218    20605408.521
  23866337.656    -8236490.88443  -6404554.54242  23866340.151    23866336.066
 03  2 28  2 15  0.0000000  0  8G17G26G 3G15G14G23G18G 9
  21152359.668   -23004961.48743 -17881674.95842  21152360.965    21152356.032
  24294962.279    -5375914.48943  -4178604.48542  24294964.959    24294959.680
  22338882.764   -17371316.61343 -13480571.63242  22338884.844    22338879.902
  20271928.911   -28105916.77944 -21886635.33542  20271930.338    20271924.995
  22458083.521    -1400202.86843  -1078338.72942  22458086.072    22458080.884
  21991376.152   -16202747.76743 -12612869.83642  21991378.062    21991372.684
  20609449.844   -25648093.81044 -19802463.78042  20609451.810    20609445.098
  23855721.136    -8292280.34443  -6448026.72442  23855723.681    23855719.510
 03  2 28  2 15 30.0000000  0  8G17G26G 3G15G14G23G18G 9
  21159029.008   -22969913.89743 -17854365.12742  21159030.296    21159025.364
  24315806.735    -5266375.74143  -4093249.54542  24315809.413    24315804.149
  22329420.571   -17421040.75343 -13519317.68442  22329422.636    22329417.660
  20269701.339   -28117622.58044 -21895756.71342  20269702.758    20269697.434
  22439243.993    -1499205.05843  -1155483.19742  22439246.509    22439241.331
  22001977.761   -16147035.88043 -12569457.95842  22001979.666    22001974.266
  20613533.592   -25626633.32644 -19785741.30542  20613535.576    20613528.867
  23845169.110    -8347731.47843  -6491235.30642  23845171.619    23845167.447
 03  2 28  2 16  0.0000000  0  8G17G26G 3G15G14G23G18G 9
  21165758.388   -22934550.75743 -17826809.42042  21165759.659    21165754.733
  24336687.191    -5156648.06243  -4007747.37542  24336689.891    24336684.677
  22320051.194   -17470277.04743 -13557683.59042  22320053.239    22320048.254
  20267534.460   -28129009.49844 -21904629.61442  20267535.891    20267530.565
  22420455.919    -1597936.64743  -1232416.81042  22420458.434    22420453.249
  22012593.727   -16091248.37843 -12525987.15642  22012595.655    22012590.254
  20617664.464   -25604925.42544 -19768826.03542  20617666.430    20617659.715
  23834681.996    -8402840.96143  -6534177.65942  23834684.576    23834680.372
 03  2 28  2 16 30.0000000  0  8G17G26G 3G15G14G23G18G 9
  21172542.776   -22898898.62643 -17799028.52242  21172544.031    21172539.127
  24357597.967    -5046760.76743  -3922120.83642  24357600.664    24357595.376
  22310769.874   -17519050.58343 -13595688.90942  22310771.902    22310766.939
  20265423.481   -28140102.84344 -21913273.75542  20265424.891    20265419.556
  22401714.716    -1696421.70743  -1309158.32142  22401717.237    22401712.088
  22023218.801   -16035412.99043 -12482479.05042  22023220.764    22023215.363
  20621837.119   -25582997.83044 -19751739.57742  20621839.106    20621832.392
  23824255.436    -8457632.41543  -6576872.19542  23824258.038    23824253.868
 03  2 28  2 17  0.0000000  0  8G17G26G 3G15G14G23G18G 9
  21179390.556   -22862913.23943 -17770987.94442  21179391.825    21179386.909
  24378546.833    -4936673.12243  -3836338.16242  24378549.596    24378544.262
  22301585.295   -17567315.66543 -13633298.03142  22301587.333    22301582.368
  20263376.883   -28150857.66244 -21921654.11042  20263378.310    20263372.946
  22383029.294    -1794613.81443  -1385671.56442  22383031.822    22383026.667
  22033861.180   -15979487.00443 -12438900.34142  22033863.100    22033857.723
  20626059.706   -25560807.95444 -19734448.74542  20626061.683    20626054.954
  23813898.358    -8512058.88143  -6619282.34342  23813900.862    23813896.710
 03  2 28  2 17 30.0000000  0  8G17G26G 3G15G14G23G18G 9
  21186307.155   -22826566.19243 -17742665.55542  21186308.423    21186303.513
  24399538.580    -4826360.37943  -3750380.08942  24399541.327    24399536.095
  22292503.059   -17615043.06143 -13670488.17442  22292505.095    22292500.110
  20261400.194   -28161245.10544 -21929748.19842  20261401.621    20261396.244
  22364405.357    -1892483.02143  -1461933.19942  22364407.870    22364402.662
  22044525.785   -15923444.01043 -12395230.45742  22044527.702    22044522.360
  20630337.208   -25538329.32744 -19716932.91042  20630339.192    20630332.455
  23803616.514    -8566089.83543  -6661384.28242  23803619.009    23803614.819
 03  2 28  2 18  0.0000000  0  8G17G26G 3G15G14G23G18G 9
  21193281.234   -22789917.13943 -17714107.83742  21193282.495    21193277.583
  24420561.044    -4715885.80943  -3664295.92042  24420563.803    24420558.681
  22283511.963   -17662291.54843 -13707305.14642  22283513.957    22283509.009
  20259482.202   -28171324.04244 -21937601.89042  20259483.630    20259478.250
  22345831.860    -1990087.06543  -1537988.20742  22345834.396    22345829.121
  22055200.963   -15867345.49243 -12351517.31042  22055202.901    22055197.534
  20634657.984   -25515623.51944 -19699240.05642  20634659.951    20634653.190
  23793399.103    -8619782.59743  -6703222.71142  23793401.428    23793397.345
 03  2 28  2 18 30.0000000  0  7G17G 3G15G14G23G18G 9
  21200316.423   -22752946.93843 -17685299.87442  21200317.687    21200312.788
  22274615.754   -17709041.21643 -13743733.42642  22274617.743    22274612.802
  20257626.673   -28181074.85444 -21945199.90042  20257628.092    20257622.694
  22327312.812    -2087405.10343  -1613820.35142  22327315.341    22327310.044
  22065890.006   -15811174.18243 -12307747.44542  22065891.950    22065886.555
  20639025.248   -25492673.38444 -19681356.81642  20639027.214    20639020.442
  23783250.040    -8673115.92343  -6744781.06042  23783252.380    23783248.232
 03  2 28  2 19  0.0000000  0  7G17G 3G15G14G23G18G 9
  21207416.138   -22715637.64643 -17656227.68342  21207417.408    21207412.484
  22265818.057   -17755273.27943 -13779758.38142  22265820.034    22265815.129
  20255837.081   -28190479.22644 -21952527.96242  20255838.472    20255833.069
  22308851.972    -2184417.24743  -1689414.13642  22308854.501    22308849.164
  22076595.960   -15754913.84843 -12263908.20342  22076597.926    22076592.522
  20643442.081   -25469462.72444 -19663270.56942  20643444.070    20643437.258
  23773173.249    -8726069.25643  -6786043.29442  23773175.617    23773171.518
 03  2 28  2 19 30.0000000  0  7G17G 3G15G14G23G18G 9
  21214574.423   -22678020.58243 -17626915.67342  21214575.690    21214570.752
  22257113.051   -17801018.12843 -13815403.67942  22257115.049    22257110.141
  20254107.618   -28199567.59244 -21959609.78642  20254109.011    20254103.591
  22290443.740    -2281152.88843  -1764792.46642  22290446.247    22290440.891
  22087312.601   -15698597.47743 -12220025.29842  22087314.562    22087309.155
  20647902.186   -25446024.79844 -19645007.23142  20647904.165    20647897.336
  23763163.224    -8778671.81743  -6827032.20942  23763165.589    23763161.436
 03  2 28  2 20  0.0000000  0  7G17G 3G15G14G23G18G 9
  21221799.396   -22640053.06943 -17597330.58742  21221800.648    21221795.676
  22248509.121   -17846231.88543 -13850635.15342  22248511.116    22248506.197
  20252446.646   -28208295.97844 -21966411.10542  20252448.050    20252442.611
  22272096.607    -2377567.17143  -1839920.39242  22272099.147    22272093.792
  22098047.855   -15642183.39443 -12176066.25542  22098049.810    22098044.367
  20652413.419   -25422318.07144 -19626534.43942  20652415.400    20652408.569
  23753228.587    -8830878.25343  -6867712.45042  23753230.976    23753226.747
 03  2 28  2 20 30.0000000  0  7G17G 3G15G14G23G18G 9
  21229089.203   -22601744.81743 -17567479.99042  21229090.468    21229085.478
  22240004.465   -17890924.04843 -13885460.18642  22240006.451    22240001.531
  20250852.273   -28216674.44244 -21972939.75742  20250853.680    20250848.231
  22253809.081    -2473668.35443  -1914804.33642  22253811.616    22253806.260
  22108799.406   -15585683.67343 -12132040.47942  22108801.359    22108795.870
  20656973.539   -25398354.58144 -19607861.57242  20656975.504    20656968.624
  23743367.831    -8882696.38243  -6908090.10842  23743370.220    23743365.973
 03  2 28  2 21  0.0000000  0  7G17G 3G15G14G23G18G 9
  21236437.609   -22563128.57543 -17537389.40042  21236438.888    21236433.885
  22231593.058   -17935125.99443 -13919903.23242  22231595.073    22231590.132
  20249318.406   -28224735.03644 -21979220.71942  20249319.786    20249314.334
  22235575.221    -2569487.38343  -1989468.41542  22235577.778    22235572.417
  22119560.676   -15529132.72143 -12087974.78542  22119562.612    22119557.133
  20661575.903   -25374168.90144 -19589015.56642  20661577.858    20661570.971
  23733575.235    -8934156.56043  -6948188.84642  23733577.501    23733573.381
 03  2 28  2 21 30.0000000  0  7G17G 3G15G14G23G18G 9
  21243848.235   -22524185.40043 -17507044.06442  21243849.505    21243844.519
  22223278.888   -17978817.24243 -13953948.32742  22223280.891    22223275.927
  20247848.919   -28232457.23544 -21985237.99742  20247850.287    20247844.825
  22217399.198    -2665002.72443  -2063895.86342  22217401.721    22217396.337
  22130335.157   -15472512.32443 -12043854.97742  22130337.093    22130331.631
  20666223.968   -25349743.08944 -19569982.44342  20666225.909    20666219.008
  23723854.889    -8985236.73843  -6987991.48642  23723857.184    23723853.014
 03  2 28  2 22  0.0000000  0  7G17G 3G15G14G23G18G 9
  21251321.020   -22484915.52843 -17476444.14942  21251322.291    21251317.302
  22215061.920   -18021997.72843 -13987595.43142  22215063.904    22215058.931
  20246443.830   -28239841.00844 -21990991.56842  20246445.167    20246439.718
  22199281.205    -2760213.04443  -2138085.63242  22199283.725    22199278.307
  22141122.378   -15415824.95643 -11999682.98342  22141124.309    22141118.844
  20670917.262   -25325079.53544 -19550764.07042  20670919.202    20670912.293
  23714207.202    -9035935.39043  -7027496.84142  23714209.527    23714205.329
 03  2 28  2 22 30.0000000  0  7G17G 3G15G14G23G18G 9
  21258853.069   -22445334.43343 -17445601.72542  21258854.316    21258849.309
  22206939.315   -18064682.36743 -14020856.15642  22206941.304    22206936.320
  20245100.309   -28246901.25344 -21996493.03442  20245101.663    20245096.165
  22181218.664    -2855132.12643  -2212048.46142  22181221.159    22181215.669
  22151919.107   -15359087.67643 -11955472.09442  22151921.030    22151915.559
  20675652.521   -25300195.43644 -19531373.84642  20675654.477    20675647.573
  23704629.671    -9086265.56343  -7066715.07342  23704632.043    23704627.656
 03  2 28  2 23  0.0000000  0  7G17G 3G15G14G23G18G 9
  21266450.831   -22405407.90443 -17414490.13242  21266452.084    21266447.076
  22198917.710   -18106836.24043 -14053703.30342  22198919.691    22198914.675
  20243824.972   -28253603.16344 -22001715.27742  20243826.338    20243820.820
  22163218.354    -2949723.99943  -2285756.32642  22163220.855    22163215.339
  22162731.543   -15302267.99843 -11911197.00642  22162733.443    22162727.985
  20680435.880   -25275058.59944 -19511786.68342  20680437.821    20680430.941
  23695129.119    -9136191.06743  -7105617.96642  23695131.508    23695126.988
 03  2 28  2 23 30.0000000  0  7G17G 3G15G14G23G18G 9
  21274114.948   -22365132.73143 -17383106.87342  21274116.180    21274111.166
  22190997.895   -18148454.87243 -14086133.37342  22190999.919    22190994.885
  20242618.608   -28259942.47344 -22006654.97942  20242619.980    20242614.481
  22145281.296    -3043983.39543  -2359205.10742  22145283.824    22145278.276
  22173560.002   -15245363.86643 -11866856.10742  22173561.925    22173556.485
  20685267.701   -25249667.05044 -19492001.03842  20685269.643    20685262.764
  23685706.682    -9185706.22043  -7144201.12842  23685709.023    23685704.498
 03  2 28  2 24  0.0000000  0  7G17G 3G15G14G23G18G 9
  21281842.001   -22324526.67443 -17351465.77942  21281843.272    21281838.251
  22183176.792   -18189554.93243 -14118159.36842  22183178.826    22183173.775
  20241478.043   -28265936.04244 -22011325.27442  20241479.425    20241473.922
  22127404.580    -3137925.85843  -2432406.93842  22127407.116    22127401.538
  22184400.923   -15188394.31843 -11822464.23642  22184402.837    22184397.421
  20690144.313   -25224040.11144 -19472031.97742  20690146.270    20690139.379
  23676359.467    -9234826.01343  -7182476.18642  23676361.890    23676357.186
 03  2 28  2 24 30.0000000  0  7G17G 3G15G14G23G18G 9
  21289634.911   -22283574.73043 -17319555.16442  21289636.159    21289631.117
  22175457.297   -18230121.13843 -14149769.36442  22175459.310    22175454.218
  20240406.178   -28271568.57244 -22015714.23942  20240407.551    20240402.059
  22109591.290    -3231534.93143  -2505348.98242  22109593.822    22109588.225
  22195256.742   -15131346.38943 -11778011.28842  22195258.641    22195253.254
  20695068.174   -25198164.91444 -19451869.46342  20695070.130    20695063.260
  23667090.688    -9283533.49643  -7220429.97542  23667093.107    23667088.364
 03  2 28  2 25  0.0000000  0  7G17G 3G15G14G23G18G 9
  21297485.906   -22242317.36943 -17287406.56342  21297487.175    21297482.119
  22167831.872   -18270192.98743 -14180994.15742  22167833.905    22167828.758
  20239395.485   -28276879.70844 -22019852.76842  20239396.861    20239391.355
  22091834.115    -3324849.12443  -2578061.25642  22091836.636    22091831.027
  22206119.525   -15074261.89443 -11733529.84642  22206121.447    22206116.039
  20700031.253   -25172083.56244 -19431546.31242  20700033.208    20700026.357
  23657893.000    -9331866.89543  -7258092.26342  23657895.528    23657890.803
 03  2 28  2 25 30.0000000  0  7G17G 3G15G14G23G18G 9
  21305400.771   -22200724.48943 -17254996.52042  21305402.030    21305396.982
  22160306.458   -18309739.29043 -14211809.43242  22160308.488    22160303.282
  20238451.813   -28281838.66344 -22023716.86942  20238453.195    20238447.671
  22074139.170    -3417836.34143  -2650518.74142  22074141.699    22074136.091
  22216994.772   -15017112.21043 -11688997.60542  22216996.671    22216991.224
  20705039.028   -25145767.37144 -19411040.16742  20705041.000    20705034.137
  23648772.811    -9379793.60343  -7295437.65842  23648775.352    23648770.559
 03  2 28  2 26  0.0000000  0  7G17G 3G15G14G23G18G 9
  21313379.736   -22158794.69243 -17222323.93542  21313381.002    21313375.944
  22152881.420   -18348758.13243 -14242213.69842  22152883.442    22152878.206
  20237575.519   -28286443.54544 -22027305.06742  20237576.909    20237571.373
  22056507.085    -3510493.21743  -2722718.82242  22056509.623    22056503.971
  22227882.408   -14959897.31943 -11644414.55342  22227884.314    22227878.825
  20710091.458   -25119216.63844 -19390351.26742  20710093.400    20710086.553
  23639730.718    -9427309.97643  -7332463.31042  23639733.186    23639728.425
 03  2 28  2 26 30.0000000  0  7G17G 3G15G14G23G18G 9
  21321419.579   -22116545.11343 -17189402.17542  21321420.825    21321415.760
  22145553.634   -18387265.82443 -14272219.66342  22145555.655    22145550.408
  20236763.548   -28290710.36744 -22030629.83842  20236764.943    20236759.415
  22038934.957    -3602834.91643  -2794673.31642  22038937.516    22038931.847
  22238778.946   -14902635.58443 -11599795.00242  22238780.852    22238775.338
  20715184.980   -25092449.76844 -19369493.94142  20715186.940    20715180.083
  23630763.934    -9474430.70643  -7369180.68442  23630766.358    23630761.560
 03  2 28  2 27  0.0000000  0  7G17G 3G15G14G23G18G 9
  21329527.280   -22073938.72643 -17156202.38042  21329528.534    21329523.467
  22138330.252   -18425224.80443 -14301798.06442  22138332.271    22138327.035
  20236023.006   -28294601.79344 -22033662.09742  20236024.393    20236018.859
  22021430.233    -3694822.79943  -2866352.11442  22021432.753    22021427.047
  22249691.108   -14845291.75543 -11555111.48442  22249693.017    22249687.500
  20720326.302   -25065431.85544 -19348441.00342  20720328.257    20720321.374
  23621879.801    -9521116.83343  -7405559.40242  23621882.179    23621877.402
 03  2 28  2 27 30.0000000  0  8G17G31G 3G15G14G23G18G 9
  21337696.523   -22031008.94143 -17122750.59242  21337697.765    21337692.721
  23920764.395     -489456.40953   -370337.58652  23920766.381    23920761.124
  22131205.188   -18462667.16343 -14330973.89942  22131207.192    22131201.947
  20235347.803   -28298150.03844 -22036426.93942  20235349.165    20235343.613
  22003986.843    -3786488.04243  -2937779.49642  22003989.385    22003983.642
  22260612.343   -14787900.22143 -11510390.79342  22260614.247    22260608.746
  20725508.821   -25038197.41744 -19327219.33942  20725510.785    20725503.879
  23613072.581    -9567398.92743  -7441623.28842  23613074.889    23613070.185
 03  2 28  2 28  0.0000000  0  8G17G31G 3G15G14G23G18G 9
  21345925.178   -21987767.01843 -17089055.58442  21345926.389    21345921.379
  23905587.721     -569210.07643   -432483.25142  23905589.781    23905584.570
  22124176.376   -18499603.73943 -14359755.62442  22124178.379    22124173.134
  20234735.831   -28301365.84744 -22038932.74942  20234737.210    20234731.637
  21986603.030    -3877840.29843  -3008963.01042  21986605.567    21986599.809
  22271540.193   -14730473.71543 -11465642.85342  22271542.107    22271536.640
  20730730.085   -25010759.43444 -19305839.07342  20730732.052    20730725.136
  23604340.440    -9613286.27743  -7477379.57342  23604342.765    23604338.040
 03  2 28  2 28 30.0000000  0  8G17G31G 3G15G14G23G18G 9
  21354219.636   -21944179.23043 -17055091.06542  21354220.872    21354215.888
  23890485.124     -648574.44543   -494325.57042  23890487.138    23890482.066
  22117250.265   -18536000.50043 -14388116.71042  22117252.300    22117247.056
  20234193.621   -28304215.01044 -22041152.85642  20234195.006    20234189.440
  21969285.540    -3968844.01243  -3079874.92542  21969288.071    21969282.298
  22282480.812   -14672980.25043 -11420842.73642  22282482.736    22282477.271
  20735996.094   -24983086.35144 -19284275.61242  20735998.061    20735991.121
  23595690.167    -9658743.20943  -7512800.47642  23595692.563    23595687.828
 03  2 28  2 29  0.0000000  0  8G17G31G 3G15G14G23G18G 9
  21362584.780   -21900220.02843 -17020837.13842  21362586.018    21362581.045
  23875461.809     -727522.29243   -555843.32142  23875463.841    23875458.794
  22110431.878   -18571831.35643 -14416036.83842  22110433.888    22110428.627
  20233726.201   -28306671.39744 -22043066.91042  20233727.556    20233721.990
  21952039.506    -4059472.15543  -3150494.18742  21952042.039    21952036.268
  22293438.768   -14615395.97143 -11375971.84742  22293440.662    22293435.175
  20741311.378   -24955154.27144 -19262510.33542  20741313.335    20741306.403
  23587127.088    -9703742.02143  -7547864.41142  23587129.493    23587124.777
 03  2 28  2 29 30.0000000  0  8G17G31G 3G15G14G23G18G 9
  21371014.512   -21855921.40643 -16986318.72742  21371015.745    21371010.775
  23860512.235     -806082.46843   -617058.98242  23860514.296    23860509.260
  22103715.448   -18607126.41543 -14443539.46142  22103717.455    22103712.201
  20233327.734   -28308765.21644 -22044698.44042  20233329.113    20233323.538
  21934859.466    -4149753.74143  -3220843.41142  21934861.962    21934856.200
  22304407.871   -14557752.96343 -11331055.19942  22304409.766    22304404.252
  20746669.778   -24926995.50544 -19240568.41542  20746671.762    20746664.817
  23578645.679    -9748311.41443  -7582593.71742  23578648.110    23578643.452
 03  2 28  2 30  0.0000000  0  8G17G31G 3G15G14G23G18G 9
  21379506.086   -21811297.88843 -16951547.15242  21379507.321    21379502.326
  23845633.940     -884268.33443   -677982.98242  23845635.975    23845630.942
  22097098.199   -18641900.24243 -14470635.92342  22097100.188    22097094.949
  20232995.511   -28310510.95244 -22046058.73342  20232996.892    20232991.316
  21917742.807    -4239702.14043  -3290933.00442  21917745.289    21917739.542
  22315384.901   -14500068.01143 -11286105.86842  22315386.823    22315381.318
  20752068.097   -24898627.20244 -19218463.22342  20752070.057    20752063.099
  23570243.539    -9792464.57343  -7616998.69042  23570245.933    23570241.314
 03  2 28  2 30 30.0000000  0  8G17G31G 3G15G14G23G18G 9
  21388058.540   -21766354.41743 -16916526.26342  21388059.803    21388054.764
  23830826.363     -962082.52243   -738617.36342  23830828.402    23830823.349
  22090579.376   -18676156.75143 -14497329.28342  22090581.350    22090576.124
  20232728.828   -28311912.43044 -22047150.77842  20232730.203    20232724.614
  21900689.020    -4329320.03543  -3360765.06442  21900691.525    21900685.758
  22326368.841   -14442346.94343 -11241128.39342  22326370.767    22326365.272
  20757505.162   -24870055.29644 -19196199.38142  20757507.117    20757500.120
  23561920.173    -9836203.87443  -7651081.18942  23561922.573    23561917.866
 03  2 28  2 31  0.0000000  0  8G17G31G 3G15G14G23G18G 9
  21396674.647   -21721076.32343 -16881244.62842  21396675.919    21396670.863
  23816092.678    -1039508.25643   -798949.05542  23816094.695    23816089.681
  22084161.897   -18709880.60543 -14523607.58542  22084163.902    22084158.675
  20232530.602   -28312954.11144 -22047962.45742  20232531.980    20232526.397
  21883701.230    -4418591.09843  -3430326.86142  21883703.712    21883697.984
  22337362.214   -14384576.12243 -11196112.15342  22337364.147    22337358.677
  20762983.443   -24841266.55744 -19173766.57542  20762985.428    20762978.418
  23553678.811    -9879512.16443  -7684827.82642  23553681.202    23553676.465
 03  2 28  2 31 30.0000000  0  8G17G31G 3G15G14G23G18G 9
  21405356.130   -21675454.90043 -16845695.47042  21405357.373    21405352.316
  23801434.923    -1116535.07943   -858969.89442  23801436.904    23801431.875
  22077847.559   -18743062.69743 -14549463.73942  22077849.525    22077844.307
  20232402.530   -28313626.98144 -22048486.75242  20232403.930    20232398.336
  21866781.522    -4507504.59643  -3499610.03942  21866783.966    21866778.257
  22348366.464   -14326748.34043 -11151051.52642  22348368.400    22348362.925
  20768504.331   -24812253.88344 -19151159.27542  20768506.322    20768499.349
  23545521.498    -9922378.59543  -7718230.16642  23545523.882    23545519.168
 03  2 28  2 32  0.0000000  0  8G17G31G 3G15G14G23G18G 9
  21414104.932   -21629479.66643 -16809870.61142  21414106.176    21414101.099
  23786855.360    -1193150.67143   -918670.30042  23786857.364    23786852.278
  22071638.365   -18775692.14243 -14574889.25742  22071640.311    22071635.100
  20232346.775   -28313919.71344 -22048714.83642  20232348.198    20232342.613
  21849932.126    -4596048.36643  -3568605.11742  21849934.586    21849928.858
  22359383.324   -14268854.50343 -11105939.43542  22359385.207    22359379.740
  20774069.512   -24783008.54844 -19128370.68242  20774071.500    20774064.527
  23537450.644    -9964790.57143  -7751278.37242  23537453.013    23537448.314
 03  2 28  2 32 30.0000000  0  8G17G31G 3G15G14G23G18G 9
  21422915.640   -21583179.25043 -16773792.36842  21422916.824    21422911.771
  23772349.109    -1269381.18943   -978070.64942  23772351.106    23772346.026
  22065529.103   -18807796.32643 -14599905.48042  22065531.057    22065525.860
  20232358.161   -28313859.79344 -22048668.12842  20232359.566    20232353.978
  21833148.113    -4684248.65943  -3637332.55442  21833150.588    21833144.819
  22370407.086   -14210924.25243 -11060798.96242  22370408.965    22370403.478
  20779673.333   -24753560.16044 -19105423.86542  20779675.338    20779668.346
  23529461.292   -10006774.29843  -7783992.88542  23529463.693    23529459.031
 03  2 28  2 33  0.0000000  0  8G17G31G 3G15G14G23G18G 9
  21431787.067   -21536559.53743 -16737465.31942  21431788.245    21431783.193
  23757915.399    -1345230.87243  -1037174.24642  23757917.325    23757912.232
  22059518.758   -18839380.94443 -14624516.84842  22059520.702    22059515.453
  20232435.601   -28313452.71844 -22048350.91042  20232437.009    20232431.416
  21816428.610    -4772109.98643  -3705795.86242  21816431.082    21816425.273
  22381436.412   -14152964.74843 -11015635.69642  22381438.274    22381432.791
  20785314.337   -24723916.48344 -19082324.87442  20785316.340    20785309.321
  23521552.768   -10048333.73943  -7816376.78542  23521555.151    23521550.481
 03  2 28  2 33 30.0000000  0  8G17G31G 3G15G14G23G18G 9
  21440725.248   -21489589.14143 -16700865.01342  21440726.418    21440721.361
  23743560.413    -1420666.42343  -1095955.14042  23743562.427    23743557.199
  22053613.337   -18870414.21843 -14648698.59642  22053615.272    22053609.990
  20232585.244   -28312666.27344 -22047738.07842  20232586.632    20232581.057
  21799779.929    -4859599.06543  -3773969.10342  21799782.400    21799776.575
  22392477.032   -14094945.82243 -10970426.12742  22392478.870    22392473.402
  20790998.169   -24694047.56744 -19059050.37042  20791000.184    20790993.167
  23513731.355   -10089435.40343  -7848403.98042  23513733.764    23513729.019
 03  2 28  2 34  0.0000000  0  8G17G31G 3G15G14G23G18G 9
  21449732.611   -21442255.24843 -16663981.45742  21449733.782    21449728.682
  23729287.062    -1495673.08143  -1154401.83842  23729289.015    23729283.851
  22047815.419   -18900882.48543 -14672440.08042  22047817.349    22047812.024
  20232809.638   -28311487.01944 -22046819.16042  20232811.031    20232805.443
  21783204.916    -4946701.22943  -3841840.85842  21783207.372    21783201.509
  22403531.158   -14036855.95543 -10925161.28042  22403532.970    22403527.508
  20796727.038   -24663942.21344 -19035591.63142  20796729.029    20796721.992
  23505999.899   -10130064.22643  -7880062.72242  23506002.324    23505997.542
 03  2 28  2 34 30.0000000  0  8G17G31G 3G15G14G23G18G 9
  21458802.509   -21394592.48343 -16626841.64542  21458803.705    21458798.609
  23715089.210    -1570283.05943  -1212539.42742  23715091.234    23715085.981
  22042118.609   -18930819.30543 -14695767.45042  22042120.552    22042115.192
  20233102.424   -28309948.34144 -22045620.17742  20233103.820    20233098.218
  21766697.364    -5033448.88743  -3909436.37342  21766699.815    21766693.913
  22414592.007   -13978730.73043 -10879868.87742  22414593.817    22414588.364
  20802494.130   -24633635.79844 -19011976.22342  20802496.144    20802489.093
  23498352.430   -10170252.15843  -7911377.92442  23498354.772    23498349.913
 03  2 28  2 35  0.0000000  0  8G17G31G 3G15G14G23G18G 9
  21467938.967   -21346580.07043 -16589429.38242  21467940.154    21467935.076
  23700971.135    -1644473.75443  -1270350.29542  23700973.155    23700967.933
  22036526.962   -18960203.51143 -14718664.21242  22036528.914    22036523.523
  20233467.718   -28308028.74544 -22044124.36742  20233469.089    20233463.485
  21750261.607    -5119819.33043  -3976737.95742  21750264.041    21750258.123
  22425663.320   -13920550.44143 -10834533.57242  22425665.129    22425659.669
  20808303.173   -24603109.19844 -18988189.24342  20808305.143    20808298.095
  23490793.123   -10209976.26243  -7942331.69142  23490795.557    23490790.585
 03  2 28  2 35 30.0000000  0  8G17G31G 3G15G14G23G18G 9
  21477137.854   -21298239.57643 -16551761.47142  21477139.033    21477133.993
  23686929.092    -1718264.96643  -1327849.89942  23686931.068    23686925.853
  22031036.397   -18989056.32243 -14741146.89742  22031038.366    22031032.990
  20233901.537   -28305749.06544 -22042347.97842  20233902.895    20233897.277
  21733893.777    -5205832.59143  -4043761.21442  21733896.241    21733890.274
  22436740.738   -13862337.99243 -10789173.20342  22436742.568    22436737.101
  20814149.697   -24572385.35944 -18964248.57042  20814151.690    20814144.634
  23483318.391   -10249256.17043  -7972939.32542  23483320.802    23483315.846
 03  2 28  2 36  0.0000000  0  8G17G31G 3G15G14G23G18G 9
  21486400.529   -21249563.95743 -16513832.42342  21486401.703    21486396.672
  23672964.811    -1791647.31143  -1385030.88242  23672966.808    23672961.663
  22025648.419   -19017370.04643 -14763209.52042  22025650.400    22025645.037
  20234405.350   -28303101.33344 -22040284.79342  20234406.716    20234401.093
  21717595.692    -5291479.41943  -4110498.93942  21717598.155    21717592.174
  22447825.469   -13804087.05343 -10743782.85342  22447827.350    22447821.852
  20820034.852   -24541458.59244 -18940149.77742  20820036.854    20820029.777
  23475929.941   -10288082.31343  -8003193.37742  23475932.363    23475927.449
 03  2 28  2 36 30.0000000  0  8G17G31G 3G15G14G23G18G 9
  21495733.255   -21200520.06443 -16475616.41342  21495734.459    21495729.445
  23659084.991    -1864585.86943  -1441866.06942  23659086.999    23659081.864
  22020369.474   -19045110.97643 -14784825.80442  22020371.441    22020366.089
  20234985.643   -28300051.83044 -22037908.53542  20234986.998    20234981.376
  21701373.961    -5376724.91143  -4176923.93142  21701376.417    21701370.439
  22458923.623   -13745765.72643 -10698337.64542  22458925.496    22458920.032
  20825964.671   -24510297.14144 -18915868.10842  20825966.658    20825959.590
  23468634.543   -10326419.66843  -8033066.56742  23468636.902    23468631.994
 03  2 28  2 37  0.0000000  0  8G17G31G 3G15G14G23G18G 9
  21505131.468   -21151132.12043 -16437132.31042  21505132.675    21505127.664
  23645285.374    -1937103.07443  -1498372.92742  23645287.434    23645282.252
  22015194.961   -19072303.15743 -14806014.50042  22015196.913    22015191.556
  20235637.931   -28296623.96044 -22035237.44642  20235639.298    20235633.652
  21685224.293    -5461591.64843  -4243053.79742  21685226.761    21685220.796
  22470030.344   -13687399.54543 -10652857.49142  22470032.211    22470026.728
  20831934.261   -24478926.71144 -18891423.59942  20831936.244    20831929.181
  23461427.920   -10364290.28643  -8062576.04842  23461430.311    23461425.369
 03  2 28  2 37 30.0000000  0  8G17G31G 3G15G14G23G18G 9
  21514590.099   -21101426.65043 -16398400.78342  21514591.307    21514586.335
  23631561.297    -2009223.39243  -1554570.52442  23631563.343    23631558.083
  22010119.897   -19098972.59943 -14826795.86042  22010121.862    22010116.528
  20236357.327   -28292843.41544 -22032291.54942  20236358.685    20236353.043
  21669142.009    -5546104.30943  -4308907.75742  21669144.474    21669138.521
  22481140.370   -13629015.98543 -10607363.79242  22481142.229    22481136.738
  20837938.272   -24447375.40244 -18866838.14742  20837940.240    20837933.190
  23454305.452   -10401718.75743  -8091741.01842  23454307.812    23454302.884
 03  2 28  2 38  0.0000000  0  8G17G31G 3G15G14G23G18G 9
  21524111.481   -21051391.51343 -16359412.37442  21524112.702    21524107.701
  23617915.440    -2080932.45743  -1610447.65342  23617917.486    23617912.318
  22005146.847   -19125106.08343 -14847159.58942  22005148.792    22005143.474
  20237146.322   -28288697.11544 -22029060.64442  20237147.673    20237142.044
  21653129.834    -5630248.59843  -4374474.67042  21653132.299    21653126.328
  22492255.890   -13570603.54243 -10561847.58642  22492257.783    22492252.264
  20843978.828   -24415631.92244 -18842102.95442  20843980.802    20843973.771
  23447269.886   -10438690.36043  -8120549.96942  23447272.321    23447267.316
 03  2 28  2 38 30.0000000  0  8G17G31G 3G15G14G23G18G 9
  21533699.272   -21001007.41743 -16320152.04342  21533700.475    21533695.465
  23604351.940    -2152208.72543  -1665987.53842  23604353.952    23604348.863
  22000279.598   -19150683.66343 -14867090.15042  22000281.535    22000276.222
  20238008.816   -28284164.51744 -22025528.72942  20238010.185    20238004.575
  21637191.856    -5714003.05243  -4439737.82142  21637194.313    21637188.324
  22503380.442   -13512143.77943 -10516294.50542  22503382.324    22503376.770
  20850059.431   -24383678.09344 -18817203.85042  20850061.375    20850054.373
  23440325.461   -10475183.43643  -8148986.04742  23440327.871    23440322.794
 03  2 28  2 39  0.0000000  0  8G17G31G 3G15G14G23G18G 9
  21543352.566   -20950279.09643 -16280623.49042  21543353.746    21543348.743
  23590870.209    -2223055.36643  -1721192.65142  23590872.242    23590867.051
  21995517.209   -19175709.95843 -14886591.13242  21995519.153    21995513.873
  20238944.013   -28279249.93744 -22021699.16542  20238945.379    20238939.789
  21621327.435    -5797370.87243  -4504699.69942  21621329.877    21621323.896
  22514512.801   -13453642.82343 -10470709.33042  22514514.700    22514509.134
  20856178.843   -24351520.22844 -18792145.75142  20856180.800    20856173.775
  23433471.498   -10511200.89543  -8177051.52342  23433473.894    23433468.760
 03  2 28  2 39 30.0000000  0  8G17G31G 3G15G14G23G18G 9
  21553074.252   -20899191.33343 -16240814.84942  21553075.417    21553070.421
  23577473.505    -2293455.11343  -1776049.53942  23577475.590    23577470.385
  21990862.716   -19200169.28243 -14905650.32642  21990864.683    21990859.395
  20239954.936   -28273937.39344 -22017559.50042  20239956.303    20239950.714
  21605539.847    -5880334.92543  -4569346.95042  21605542.292    21605536.272
  22525655.700   -13395086.39143 -10425080.92342  22525657.600    22525652.003
  20862339.779   -24319144.15944 -18766917.63142  20862341.750    20862334.707
  23426711.347   -10546725.28943  -8204732.80142  23426713.752    23426708.595
 03  2 28  2 40  0.0000000  0  8G17G31G 3G15G14G23G18G 9
  21562862.113   -20847755.78643 -16200735.21042  21562863.230    21562858.285
  23564159.990    -2363417.78943  -1830565.85442  23564162.070    23564156.885
  21986313.946   -19224073.12343 -14924276.67342  21986315.916    21986310.619
  20241039.473   -28268238.03444 -22013118.42442  20241040.836    20241035.237
  21589827.201    -5962905.21343  -4633687.37642  21589829.645    21589823.612
  22536806.776   -13336487.02143 -10379419.05842  22536808.670    22536803.075
  20868539.772   -24286563.05044 -18741529.73842  20868541.723    20868534.662
  23420043.198   -10581766.48243  -8232037.56542  23420045.570    23420040.415
 03  2 28  2 40 30.0000000  0  8G17G31G 3G15G14G23G18G 9
  21572710.408   -20796002.71443 -16160408.14242  21572711.514    21572706.608
  23550924.218    -2432971.84143  -1884763.75542  23550926.414    23550921.150
  21981865.176   -19247451.43643 -14942493.51742  21981867.171    21981861.851
  20242191.994   -28262181.43844 -22008398.98142  20242193.349    20242187.753
  21574184.051    -6045110.29143  -4697743.22042  21574186.492    21574180.432
  22547960.016   -13277876.13943 -10333748.22842  22547961.911    22547956.357
  20874772.703   -24253808.72644 -18716006.86942  20874774.670    20874767.574
  23413461.598   -10616352.73543  -8258987.82942  23413463.918    23413458.726
 03  2 28  2 41  0.0000000  0  8G17G31G 3G15G14G23G18G 9
  21582624.364   -20743904.68443 -16119812.29042  21582625.476    21582620.561
  23537771.841    -2502087.90243  -1938620.37442  23537774.002    23537768.780
  21977521.799   -19270276.11143 -14960278.95442  21977523.742    21977518.436
  20243417.898   -28255739.24344 -22003379.07042  20243419.258    20243413.644
  21558615.988    -6126920.70943  -4761491.53942  21558618.451    21558612.369
  22559120.545   -13219227.05643 -10288047.62942  22559122.423    22559116.928
  20881043.583   -24220854.95144 -18690328.58542  20881045.548    20881038.448
  23406972.226   -10650454.41943  -8285560.52142  23406974.498    23406969.266
 03  2 28  2 41 30.0000000  0  8G17G31G 3G15G14G23G18G 9
  21592603.990   -20691461.45843 -16078947.44642  21592605.117    21592600.176
  23524703.361    -2570763.20643  -1992133.53942  23524705.518    23524700.323
  21973283.937   -19292546.18843 -14977632.23542  21973285.894    21973280.545
  20244717.485   -28248909.82044 -21998057.42542  20244718.818    20244713.228
  21543123.490    -6208333.96243  -4824930.37642  21543125.989    21543119.888
  22570288.256   -13160540.10643 -10242317.51942  22570290.157    22570284.671
  20887352.352   -24187702.05944 -18664495.14342  20887354.335    20887347.210
  23400575.581   -10684068.59943  -8311753.33142  23400577.837    23400572.595
 03  2 28  2 42  0.0000000  0  8G17G31G 3G15G14G23G18G 9
  21602649.110   -20638673.86843 -16037814.26742  21602650.285    21602645.341
  23511718.847    -2638996.85743  -2045302.57242  23511721.043    23511715.869
  21969151.518   -19314262.22243 -14994553.79942  21969153.498    21969148.105
  20246090.769   -28241693.22144 -21992434.08642  20246092.080    20246086.476
  21527706.714    -6289349.45743  -4888059.27242  21527709.178    21527703.095
  22581462.800   -13101817.36643 -10196559.52542  22581464.706    22581459.189
  20893698.585   -24154352.30244 -18638508.29942  20893700.562    20893693.419
  23394271.814   -10717194.50043  -8337565.66542  23394274.075    23394268.919
 03  2 28  2 42 30.0000000  0  8G17G31G 3G15G14G23G18G 9
  21612761.805   -20585531.34143 -15996404.51542  21612762.979    21612758.037
  23498820.705    -2706776.66643  -2098117.96242  23498822.912    23498817.748
  21965126.536   -19335413.70943 -15011035.45442  21965128.493    21965123.084
  20247539.794   -28234078.44144 -21986500.47442  20247541.128    20247535.494
  21512367.933    -6369954.95343  -4950868.69142  21512370.390    21512364.343
  22592645.955   -13043049.21243 -10150766.14142  22592647.905    22592642.357
  20900083.960   -24120796.71044 -18612361.06242  20900085.972    20900078.802
  23388063.406   -10749819.67743  -8362987.83542  23388065.621    23388060.516
 03  2 28  2 43  0.0000000  0  8G17G31G 3G15G14G23G18G 9
  21622938.202   -20532054.04043 -15954733.89642  21622939.365    21622934.446
  23486005.683    -2774120.14143  -2150593.34642  23486007.792    23486002.681
  21961205.329   -19356019.65443 -15027092.00642  21961207.325    21961201.866
  20249061.019   -28226084.32544 -21980271.27642  20249062.343    20249056.698
  21497103.835    -6450168.22643  -5013372.47942  21497106.253    21497100.229
  22603833.915   -12984255.98043 -10104953.21542  22603835.851    22603830.288
  20906504.567   -24087056.10044 -18586069.65742  20906506.563    20906499.403
  23381946.941   -10781961.53143  -8388033.37542  23381949.234    23381944.080
 03  2 28  2 43 30.0000000  0  8G17G31G 3G15G14G23G18G 9
  21633183.534   -20478214.53443 -15912781.04442  21633184.686    21633179.743
  23473279.180    -2840998.27243  -2202706.13442  23473281.271    23473276.162
  21957393.187   -19376052.62843 -15042702.09442  21957395.168    21957389.679
  20250659.792   -28217682.60144 -21973724.46242  20250661.151    20250655.458
  21481919.895    -6529960.16343  -5075547.95642  21481922.302    21481916.272
  22615031.724   -12925411.21443 -10059100.13942  22615033.616    22615028.068
  20912965.385   -24053104.13944 -18559613.56442  20912967.375    20912960.214
  23375928.065   -10813590.85243  -8412679.53342  23375930.352    23375925.227
 03  2 28  2 44  0.0000000  0  8G17G31G 3G15G14G23G18G 9
  21643487.647   -20424066.09943 -15870587.46842  21643488.836    21643483.859
  23460631.465    -2907462.25243  -2254496.20242  23460633.559    23460628.448
  21953679.964   -19395565.54743 -15057906.94742  21953681.960    21953676.480
  20252326.133   -28208925.95944 -21966901.09142  20252327.481    20252321.774
  21466806.371    -6609382.08843  -5137435.11042  21466808.753    21466802.721
  22626228.980   -12866569.05743 -10013249.09342  22626230.894    22626225.362
  20919456.070   -24018995.36344 -18533035.27642  20919458.045    20919450.898
  23369996.917   -10844759.01843  -8436966.36442  23369999.260    23369994.047
 03  2 28  2 44 30.0000000  0  8G17G31G 3G15G14G23G18G 9
  21653858.636   -20369566.30543 -15828120.10542  21653859.812    21653854.823
  23448071.047    -2973467.71443  -2305928.99442  23448073.098    23448067.943
  21950073.830   -19414515.67943 -15072673.26242  21950075.841    21950070.387
  20254068.204   -28199771.23944 -21959767.52542  20254069.554    20254063.838
  21451771.666    -6688389.67443  -5198999.40142  21451774.057    21451768.031
  22637433.702   -12807687.89543  -9967367.65342  22637435.593    22637430.029
  20925984.452   -23984688.48644 -18506302.62642  20925986.418    20925979.262
  23364162.070   -10875421.29343  -8460858.99242  23364164.404    23364159.174
 03  2 28  2 45  0.0000000  0  8G17G31G 3G15G14G23G18G 9
  21664299.763   -20314697.80243 -15785365.44242  21664300.932    21664295.986
  23435601.517    -3038995.46743  -2356989.53342  23435603.579    23435598.322
  21946578.207   -19432885.17543 -15086987.13442  21946580.202    21946574.757
  20255889.490   -28190200.19744 -21952309.55342  20255890.839    20255885.121
  21436819.401    -6766963.98343  -5260226.07242  21436821.805    21436815.785
  22648648.985   -12748751.04143  -9921442.81342  22648650.904    22648645.328
  20932553.590   -23950167.31544 -18479402.99242  20932555.558    20932548.406
  23358427.051   -10905558.47143  -8484342.44042  23358429.474    23358424.227
 03  2 28  2 45 30.0000000  0  8G17G31G 3G15G14G23G18G 9
  21674808.719   -20259472.89043 -15742333.05642  21674809.907    21674804.915
  23423220.966    -3104055.75443  -2407685.81342  23423222.961    23423217.680
  21943190.822   -19450685.96343 -15100857.86042  21943192.787    21943187.368
  20257787.883   -28180224.12144 -21944535.97142  20257789.206    20257783.478
  21421947.655    -6845115.22443  -5321123.08742  21421950.085    21421944.042
  22659872.429   -12689771.54843  -9875484.75442  22659874.303    22659868.736
  20939161.029   -23915444.94544 -18452346.58142  20939163.010    20939155.827
  23352790.110   -10935180.75943  -8507424.67442  23352792.527    23352787.274
 03  2 28  2 46  0.0000000  0  8G17G31G 3G15G14G23G18G 9
  21685380.555   -20203917.59943 -15699043.23542  21685381.727    21685376.740
  23410924.666    -3168672.67043  -2458036.60342  23410926.664    23410921.463
  21939906.714   -19467944.06743 -15114305.70942  21939908.654    21939903.233
  20259758.577   -28169867.89644 -21936466.17342  20259759.901    20259754.181
  21407151.768    -6922867.86543  -5381709.50542  21407154.218    21407148.151
  22671098.862   -12630776.18543  -9829514.33042  22671100.730    22671095.184
  20945801.554   -23880548.65144 -18425154.64742  20945803.546    20945796.366
  23347246.476   -10964312.36243  -8530124.55542  23347248.905    23347243.657
 03  2 28  2 46 30.0000000  0  8G17G31G 3G15G14G23G18G 9
  21696014.982   -20148033.24843 -15655497.00642  21696016.132    21696011.188
  23398712.959    -3232845.58543  -2508041.43342  23398714.947    23398709.695
  21936725.701   -19484660.41943 -15127331.41942  21936727.619    21936722.195
  20261801.483   -28159132.24244 -21928100.71242  20261802.809    20261797.096
  21392431.863    -7000221.28543  -5441984.83942  21392434.319    21392428.256
  22682327.978   -12571766.88143  -9783533.04542  22682329.825    22682324.298
  20952474.751   -23845480.69944 -18397828.95342  20952476.741    20952469.584
  23341796.455   -10992952.36943  -8552441.38442  23341798.868    23341793.616
 03  2 28  2 47  0.0000000  0  8G17G31G 3G15G14G23G18G 9
  21706712.490   -20091817.45943 -15611692.50942  21706713.631    21706708.712
  23386586.547    -3296570.11843  -2557696.87142  23386588.543    23386583.183
  21933648.293   -19500832.25743 -15139932.83242  21933650.217    21933644.790
  20263917.196   -28148014.03544 -21919437.15642  20263918.519    20263912.809
  21377788.742    -7077171.09743  -5501945.67542  21377791.204    21377785.135
  22693560.063   -12512741.89543  -9737539.53242  22693561.897    22693556.381
  20959180.849   -23810239.88244 -18370368.56242  20959182.845    20959175.681
  23336440.824   -11021096.28443  -8574371.63942  23336443.233    23336437.883
 03  2 28  2 47 30.0000000  0  8G17G31G 3G15G14G23G18G 9
  21717477.769   -20035245.46743 -15567610.45242  21717478.902    21717474.009
  23374550.502    -3359819.86743  -2606982.34842  23374552.516    23374547.112
  21930679.222   -19516434.72743 -15152090.58542  21930681.148    21930675.720
  20266110.555   -28136487.76044 -21910455.62742  20266111.886    20266106.155
  21363227.429    -7153691.09943  -5561571.59442  21363229.900    21363223.792
  22704799.623   -12453677.42743  -9691515.25442  22704801.491    22704795.970
  20965924.371   -23774802.55644 -18342755.04842  20965926.349    20965919.151
  23331184.572   -11048717.67643  -8595894.72842  23331186.964    23331181.620
 03  2 28  2 48  0.0000000  0  8G17G31G 3G15G14G23G18G 9
  21728311.344   -19978314.62943 -15523248.76942  21728312.475    21728307.591
  23362605.696    -3422590.13943  -2655894.20142  23362607.744    23362602.310
  21927819.064   -19531464.78543 -15163802.29742  21927821.007    21927815.586
  20268382.292   -28124549.61844 -21901153.16242  20268383.613    20268377.877
  21348748.814    -7229776.55943  -5620858.90842  21348751.278    21348745.159
  22716047.139   -12394571.27343  -9645458.49242  22716048.983    22716043.484
  20972705.572   -23739167.07144 -18314987.12242  20972707.536    20972700.350
  23326028.700   -11075811.60943  -8617006.81142  23326031.063    23326025.714
 03  2 28  2 48 30.0000000  0  8G17G31G 3G15G14G23G18G 9
  21739212.815   -19921027.11843 -15478609.16742  21739213.923    21739209.007
  23350752.180    -3484880.67343  -2704432.23042  23350754.237    23350748.762
  21925067.536   -19545923.89543 -15175069.11942  21925069.497    21925064.095
  20270732.184   -28112200.70544 -21891530.61542  20270733.519    20270727.772
  21334352.903    -7305427.25643  -5679807.45042  21334355.389    21334349.229
  22727302.082   -12335425.79943  -9599371.09742  22727303.939    22727298.488
  20979523.931   -23703336.12044 -18287066.88542  20979525.916    20979518.732
  23320973.075   -11102378.23243  -8637708.00142  23320975.488    23320970.184
 03  2 28  2 49  0.0000000  0  8G17G31G 3G15G14G23G18G 9
  21750177.798   -19863405.74443 -15433709.40242  21750178.895    21750173.995
  23338985.889    -3546713.04943  -2752613.26442  23338987.888    23338982.415
  21922420.253   -19559835.37943 -15185909.21942  21922422.200    21922416.807
  20273155.948   -28099463.67944 -21881605.64642  20273157.304    20273151.524
  21320035.561    -7380665.18743  -5738434.35542  21320038.066    21320031.891
  22738559.984   -12276265.05643  -9553271.80742  22738561.823    22738556.406
  20986374.915   -23667334.10444 -18259013.35442  20986376.873    20986369.680
  23316013.747   -11128438.96043  -8658014.99242  23316016.187    23316010.942
 03  2 28  2 49 30.0000000  0  8G17G31G 3G15G14G23G18G 9
  21761207.519   -19805444.29643 -15388544.65442  21761208.600    21761203.688
  23327308.270    -3608079.03143  -2800430.85942  23327310.349    23327304.846
  21919878.456   -19573192.63443 -15196317.45042  21919880.389    21919874.982
  20275654.998   -28086331.10444 -21871372.45742  20275656.328    20275650.553
  21305798.337    -7455482.19043  -5796733.26342  21305800.819    21305794.620
  22749821.925   -12217083.30843  -9507156.14042  22749823.738    22749818.287
  20993259.487   -23631155.41144 -18230822.14842  20993261.434    20993254.232
  23311152.341   -11153985.59143  -8677921.40642  23311154.791    23311149.498
 03  2 28  2 50  0.0000000  0  8G17G31G 3G15G14G23G18G 9
  21772297.703   -19747165.01743 -15343132.25042  21772298.773    21772293.845
  23315715.677    -3668998.44843  -2847900.49842  23315717.749    23315712.206
  21917437.984   -19586017.32743 -15206310.69942  21917439.938    21917434.536
  20278225.328   -28072823.97444 -21860847.40542  20278226.657    20278220.859
  21291637.430    -7529898.09143  -5854719.62242  21291639.892    21291633.689
  22761083.570   -12157902.76743  -9461041.42442  22761085.425    22761079.936
  21000173.282   -23594823.00544 -18202511.16642  21000175.247    21000168.021
  23306385.048   -11179037.69043  -8697442.46542  23306387.513    23306382.208
 03  2 28  2 50 30.0000000  0  8G17G31G 3G15G14G23G18G 9
  21783462.956   -19688491.49343 -15297412.63242  21783464.013    21783459.047
  23304222.941    -3729393.06843  -2894961.20042  23304224.988    23304219.458
  21915113.410   -19598233.10643 -15215829.47142  21915115.352    21915109.943
  20280881.505   -28058865.48244 -21849970.64042  20280882.854    20280877.070
  21277567.702    -7603834.85443  -5912332.63042  21277570.150    21277563.935
  22772359.411   -12098647.85343  -9414868.74842  22772361.262    22772355.747
  21007130.684   -23558261.60844 -18174021.74542  21007132.630    21007125.409
  23301726.702   -11203517.21043  -8716517.34842  23301729.183    23301723.852
 03  2 28  2 51  0.0000000  0  8G17G31G 3G15G14G23G18G 9
  21794692.831   -19629478.29143 -15251428.33142  21794693.889    21794688.933
  23292820.018    -3789315.51743  -2941653.97042  23292822.113    23292816.561
  21912894.392   -19609894.14243 -15224915.98042  21912896.327    21912890.900
  20283613.474   -28044508.81744 -21838783.61442  20283614.811    20283609.048
  21263579.099    -7677345.10843  -5969613.28942  21263581.545    21263575.345
  22783638.931   -12039373.35843  -9368680.81442  22783640.802    22783635.285
  21014121.076   -23521526.63744 -18145397.07442  21014123.041    21014115.826
  23297167.359   -11227476.62543  -8735186.95542  23297169.828    23297164.450
 03  2 28  2 51 30.0000000  0  8G17G31G 3G15G14G23G18G 9
  21805984.344   -19570141.02143 -15205191.51442  21805985.416    21805980.454
  23281504.259    -3848780.02743  -2987989.91442  23281506.388    23281500.798
  21910777.856   -19621016.54943 -15233582.77042  21910779.802    21910774.374
  20286418.297   -28029769.38544 -21827298.32742  20286419.624    20286413.879
  21249668.906    -7750443.24443  -6026572.81742  21249671.375    21249665.181
  22794919.007   -11980095.92843  -9322490.59542  22794920.890    22794915.417
  21021141.316   -23484634.78444 -18116650.15742  21021143.313    21021136.118
  23292704.301   -11250930.17243  -8753462.38842  23292706.758    23292701.364
 03  2 28  2 52  0.0000000  0  8G17G31G 3G15G14G23G18G 9
  21817341.771   -19510457.23443 -15158684.67442  21817342.893    21817337.952
  23270280.334    -3907762.02043  -3033949.87142  23270282.453    23270276.883
  21908768.178   -19631577.29943 -15241811.91242  21908770.145    21908764.695
  20289300.420   -28014623.60744 -21815496.41242  20289301.757    20289296.007
  21235841.805    -7823104.86343  -6083192.20642  21235844.290    21235838.064
  22806203.848   -11920793.47243  -9276280.88642  22806205.752    22806200.280
  21028195.516   -23447564.60044 -18087764.28142  21028197.506    21028190.318
  23288342.172   -11273853.44743  -8771324.62942  23288344.577    23288339.135
 03  2 28  2 52 30.0000000  0  8G17G31G 3G15G14G23G18G 9
  21828762.025   -19450443.44943 -15111920.69742  21828763.141    21828758.244
  23259145.483    -3966276.06343  -3079545.18042  23259147.617    23259141.976
  21906862.303   -19641592.58143 -15249616.01142  21906864.285    21906858.826
  20292256.932   -27999086.97644 -21803389.93542  20292258.282    20292252.512
  21222095.041    -7895344.38643  -6139482.68742  21222097.518    21222091.271
  22817490.301   -11861482.74143  -9230064.72242  22817492.193    22817486.736
  21035280.473   -23410332.96444 -18058752.60142  21035282.441    21035275.229
  23284078.204   -11296260.83543  -8788784.87242  23284080.603    23284075.060
 03  2 28  2 53  0.0000000  0  8G17G31G 3G15G14G23G18G 9
  21840248.807   -19390079.92043 -15064884.18742  21840249.914    21840245.059
  23248103.817    -4024300.51443  -3124758.99042  23248105.889    23248100.238
  21905064.002   -19651042.71143 -15256979.72842  21905065.957    21905060.517
  20295291.701   -27983138.99444 -21790962.92242  20295293.064    20295287.304
  21208432.621    -7967140.65043  -6195427.77242  21208435.093    21208428.828
  22828781.997   -11802144.42343  -9183827.05842  22828783.924    22828778.434
  21042399.669   -23372921.32044 -18029600.65242  21042401.646    21042394.387
  23279916.473   -11318130.78443  -8805826.34242  23279918.869    23279913.306
 03  2 28  2 53 30.0000000  0  8G17G31G 3G15G14G23G18G 9
  21851802.917   -19329362.48843 -15017571.91442  21851804.022    21851799.231
  23237156.432    -4081829.32943  -3169586.59842  23237158.530    23237152.806
  21903374.037   -19659923.42543 -15263899.74542  21903375.989    21903370.576
  20298405.725   -27966774.62344 -21778211.45042  20298407.091    20298401.308
  21194855.751    -8038487.44343  -6251022.62042  21194858.205    21194851.911
  22840079.674   -11742774.72843  -9137564.94142  22840081.606    22840076.089
  21049553.795   -23335326.09044 -18000305.65242  21049555.776    21049548.497
  23275858.090   -11339457.44643  -8822444.47742  23275860.543    23275854.963
 03  2 28  2 54  0.0000000  0  8G17G31G 3G15G14G23G18G 9
  21863422.244   -19268302.67643 -14969992.85142  21863423.325    21863418.506
  23226301.514    -4138872.05443  -3214035.41442  23226303.624    23226297.895
  21901790.286   -19668246.05043 -15270384.88942  21901792.220    21901786.804
  20301597.026   -27950004.31844 -21765143.66742  20301598.360    20301592.596
  21181362.548    -8109394.51543  -6306274.83242  21181364.993    21181358.682
  22851381.103   -11683385.53243  -9091287.63842  22851383.003    22851377.464
  21056740.528   -23297559.58544 -17970877.19342  21056742.490    21056735.190
  23271901.294   -11360250.33643  -8838646.68142  23271903.778    23271898.127
 03  2 28  2 54 30.0000000  0  8G17G31G 3G15G14G23G18G 9
  21875110.088   -19206882.68743 -14922133.12642  21875111.196    21875106.332
  23215542.861    -4195408.93543  -3258090.08442  23215544.965    23215539.256
  21900316.184   -19675992.63243 -15276421.16842  21900318.079    21900312.657
  20304869.149   -27932809.25644 -21751744.90542  20304870.468    20304864.696
  21167956.803    -8179842.01444  -6361168.93042  21167959.249    21167952.923
  22862689.561   -11623959.44643  -9044981.58742  22862691.389    22862685.846
  21063963.083   -23259604.67544 -17941301.92442  21063965.062    21063957.742
  23268049.860   -11380489.85843  -8854417.69942  23268052.258    23268046.638
 03  2 28  2 55  0.0000000  0  8G17G31G 3G15G14G23G18G 9
  21886857.487   -19145149.69743 -14874029.50242  21886858.609    21886853.749
  23204871.804    -4251485.45343  -3301786.02442  23204873.911    23204868.201
  21898942.682   -19683210.25943 -15282045.27542  21898944.614    21898939.136
  20308213.223   -27915236.04444 -21738051.48142  20308214.516    20308208.784
  21154629.802    -8249875.67543  -6415740.55842  21154632.244    21154625.913
  22873995.897   -11564543.96343  -8998683.79342  22873997.783    22873992.194
  21071212.348   -23221509.56444 -17911617.40142  21071214.293    21071206.974
  23264295.046   -11400221.34443  -8869792.83042  23264297.423    23264291.772
 03  2 28  2 55 30.0000000  0  8G17G31G 3G15G14G23G18G 9
  21898674.272   -19083052.09743 -14825641.76642  21898675.379    21898670.530
  23194298.545    -4307048.03443  -3345081.49042  23194300.612    23194294.973
  21897679.656   -19689847.22943 -15287216.92442  21897681.610    21897676.115
  20311639.234   -27897232.11444 -21724022.43542  20311640.538    20311634.810
  21141391.738    -8319442.02844  -6469948.05242  21141394.164    21141387.831
  22885309.985   -11505087.80943  -8952354.31242  22885311.886    22885306.281
  21078497.990   -23183223.19544 -17881783.85142  21078499.938    21078492.595
  23260647.084   -11419391.29043  -8884730.39642  23260649.424    23260643.823
 03  2 28  2 56  0.0000000  0  8G17G31G 3G15G14G23G18G 9
  21910555.729   -19020614.69143 -14776989.25742  21910556.857    21910551.972
  23183818.703    -4362119.90043  -3387994.59442  23183820.684    23183815.124
  21896522.392   -19695928.50143 -15291955.56342  21896524.337    21896518.845
  20315142.678   -27878821.38444 -21709676.40042  20315143.992    20315138.248
  21128238.140    -8388564.37644  -6523809.56842  21128240.576    21128234.251
  22896627.035   -11445616.23943  -8906012.81842  22896628.963    22896623.334
  21085815.135   -23144771.21144 -17851821.25042  21085817.107    21085809.749
  23257101.563   -11438022.85143  -8899248.45842  23257103.871    23257098.302
 03  2 28  2 56 30.0000000  0  8G17G31G 3G15G14G23G18G 9
  21922504.824   -18957821.78743 -14728059.73042  21922505.935    21922501.041
  23173435.677    -4416682.89843  -3430511.17042  23173437.579    23173432.122
  21895473.943   -19701437.91343 -15296248.59942  21895475.922    21895470.381
  20318726.741   -27859986.98644 -21695000.23242  20318728.054    20318722.282
  21115172.508    -8457224.68444  -6577311.05042  21115174.923    21115168.564
  22907950.054   -11386113.45743  -8859647.01142  22907951.972    22907946.359
  21093166.734   -23106138.22244 -17821717.60742  21093168.713    21093161.351
  23253661.939   -11456098.05743  -8913332.98742  23253664.222    23253658.640
 03  2 28  2 57  0.0000000  0  8G17G31G 3G15G14G23G18G 9
  21934519.117   -18894686.19843 -14678863.17842  21934520.281    21934515.354
  23163147.333    -4470748.23743  -3472639.96742  23163149.247    23163143.813
  21894531.883   -19706388.51143 -15300106.19142  21894533.833    21894528.268
  20322389.113   -27840741.02844 -21680003.36642  20322390.447    20322384.664
  21102192.659    -8525434.14344  -6630461.22542  21102195.073    21102188.681
  22919276.494   -11326592.70443  -8813267.19542  22919278.376    22919272.757
  21100550.135   -23067338.00344 -17791483.65642  21100552.123    21100544.798
  23250325.998   -11473628.14543  -8926992.75242  23250328.297    23250322.662
 03  2 28  2 57 30.0000000  0  8G17G31G 3G15G14G23G18G 9
  21946599.061   -18831205.87943 -14629398.00542  21946600.225    21946595.231
  23152954.361    -4524312.41643  -3514378.24342  23152956.244    23152950.787
  21893696.516   -19710778.51043 -15303526.96342  21893698.445    21893692.845
  20326130.287   -27821081.04544 -21664683.88842  20326131.620    20326125.829
  21089299.209    -8593189.53044  -6683257.57942  21089301.630    21089295.196
  22930606.632   -11267052.49843  -8766872.22542  22930608.500    22930602.885
  21107965.614   -23028369.37244 -17761118.47642  21107967.596    21107960.272
  23247094.474   -11490609.67843  -8940225.07642  23247096.766    23247091.113
 03  2 28  2 58  0.0000000  0  8G17G31G 3G15G14G23G18G 9
  21958742.242   -18767393.03043 -14579673.70942  21958743.416    21958738.414
  23142854.763    -4577386.00143  -3555734.24942  23142856.624    23142851.211
  21892965.408   -19714620.40143 -15306520.63042  21892967.369    21892961.724
  20329948.063   -27801018.36744 -21649050.61942  20329949.396    20329943.638
  21076490.127    -8660501.53044  -6735708.43642  21076492.539    21076486.099
  22941938.033   -11207505.51843  -8720471.97642  22941939.919    22941934.316
  21115410.570   -22989245.66244 -17730632.45242  21115412.560    21115405.247
  23243965.322   -11507053.39143  -8953038.31142  23243967.650    23243961.959
 03  2 28  2 58 30.0000000  0  8G17G31G 3G15G14G23G18G 9
  21970951.452   -18703233.02743 -14529678.91742  21970952.650    21970947.645
  23132851.772    -4629951.59243  -3596694.40942  23132853.767    23132848.242
  21892341.605   -19717898.52643 -15309075.00342  21892343.565    21892337.906
  20333845.616   -27780536.58644 -21633090.78042  20333846.928    20333841.177
  21063768.735    -8727352.59944  -6787800.12642  21063771.180    21063764.723
  22953273.692   -11147936.25643  -8674054.36942  22953275.582    22953269.933
  21122887.936   -22949951.73443 -17700013.79342  21122889.925    21122882.601
  23240941.896   -11522941.85543  -8965418.89842  23240944.146    23240938.420
 03  2 28  2 59  0.0000000  0  8G17G31G 3G15G14G23G18G 9
  21983221.990   -18638751.02943 -14479433.22242  21983223.146    21983218.200
  23122941.007    -4682032.99443  -3637277.28742  23122943.000    23122937.408
  21891820.215   -19720638.51043 -15311210.04242  21891822.195    21891816.510
  20337818.211   -27759660.40844 -21616823.61542  20337819.506    20337813.763
  21051130.504    -8793766.73544  -6839551.35242  21051132.951    21051126.481
  22964608.672   -11088370.79143  -8627639.72042  22964610.519    22964604.856
  21130392.696   -22910513.91144 -17669283.00642  21130394.659    21130387.372
  23238019.473   -11538299.13943  -8977385.57742  23238021.739    23238015.992
 03  2 28  2 59 30.0000000  0  8G17G31G 3G15G14G23G18G 9
  21995558.868   -18573920.49243 -14428915.93542  21995559.997    21995555.051
  23113127.773    -4733601.83043  -3677460.75142  23113129.764    23113124.096
  21891406.278   -19722813.80143 -15312905.06542  21891408.262    21891402.598
  20341871.084   -27738362.44144 -21600227.78142  20341872.383    20341866.615
  21038580.808    -8859715.71044  -6890940.11542  21038583.242    21038576.757
  22975947.934   -11028782.59843  -8581207.35042  22975949.790    22975944.161
  21137929.776   -22870906.11544 -17638419.77242  21137931.737    21137924.456
  23235203.443   -11553096.94643  -8988916.30142  23235205.798    23235200.000
 03  2 28  3  0  0.0000000  0  8G17G31G 3G15G14G23G18G 9
  22007959.259   -18508756.13443 -14378138.52242  22007960.413    22007955.441
  23103409.613    -4784671.05343  -3717254.91942  23103411.612    23103405.854
  21891096.929   -19724439.25843 -15314171.64142  21891098.921    21891093.298
  20346001.566   -27716656.63244 -21583314.14842  20346002.846    20345997.058
  21026117.138    -8925212.54944  -6941976.56442  21026119.566    21026113.057
  22987288.684   -10969186.54243  -8534768.85542  22987290.577    22987284.934
  21145496.310   -22831143.65944 -17607436.02642  21145498.261    21145491.015
  23232491.416   -11567348.44143  -9000021.31142  23232493.772    23232487.999
 03  2 28  3  0 30.0000000  0  8G17G31G 3G15G14G23G18G 9
  22020427.513   -18443235.00943 -14327083.11642  22020428.721    22020423.728
  23093791.178    -4835215.98143  -3756640.53542  23093793.222    23093787.444
  21890896.583   -19725492.00643 -15314991.95842  21890898.576    21890892.998
  20350214.166   -27694519.11244 -21566064.11842  20350215.465    20350209.664
  21013744.193    -8990232.60744  -6992641.49842  21013746.618    21013740.087
  22998635.300   -10909559.71943  -8488306.38342  22998637.178    22998631.549
  21153096.517   -22791204.27743 -17576314.41142  21153098.453    21153091.233
  23229888.122   -11581028.78143  -9010681.26742  23229890.360    23229884.653
 03  2 28  3  1  0.0000000  0  8G17G31G 3G15G14G23G18G 9
  22032961.420   -18377368.98743 -14275758.95642  22032962.655    22032957.616
  23084270.723    -4885246.30643  -3795625.16542  23084272.734    23084266.947
  21890803.010   -19725983.61943 -15315375.02042  21890805.016    21890799.467
  20354506.918   -27671960.40044 -21548485.88842  20354508.238    20354502.424
  21001460.096    -9054785.66344  -7042942.53442  21001462.551    21001455.994
  23009985.541   -10849913.80143  -8441829.04042  23009987.407    23009981.775
  21160728.101   -22751099.90343 -17545064.23642  21160730.049    21160722.834
  23227391.587   -11594147.95443  -9020903.94642  23227393.863    23227388.134
 03  2 28  3  1 30.0000000  0  8G17G31G 3G15G14G23G18G 9
  22045559.442   -18311165.94443 -14224172.18342  22045560.693    22045555.660
  23074846.961    -4934768.31243  -3834213.70742  23074848.973    23074843.192
  21890814.659   -19725922.49643 -15315327.38142  21890816.655    21890811.089
  20358878.475   -27648987.64544 -21530585.02342  20358879.803    20358873.985
  20989263.684    -9118878.09644  -7092884.64542  20989266.126    20989259.542
  23021337.836   -10790257.04043  -8395343.24242  23021339.709    23021334.103
  21168389.433   -22710839.43143 -17513692.43242  21168391.334    21168384.136
  23225000.672   -11606712.43143  -9030694.40042  23225002.914    23224997.142
 03  2 28  3  2  0.0000000  0  8G17G31G 3G15G14G23G18G 9
  22058221.625   -18244625.75243 -14172322.70442  22058222.858    22058217.823
  23065520.314    -4983780.06843  -3872404.64942  23065522.333    23065516.506
  21890931.549   -19725308.36243 -15314848.82242  21890933.537    21890927.946
  20363329.012   -27625599.81944 -21512360.73242  20363330.362    20363324.532
  20977155.298    -9182507.94644  -7142466.30042  20977157.728    20977151.125
  23032692.160   -10730589.23043  -8348848.84142  23032694.077    23032688.555
  21176080.371   -22670423.07544 -17482199.14942  21176082.294    21176075.102
  23222715.695   -11618720.02043  -9040050.92042  23222717.969    23222712.160
 03  2 28  3  2 30.0000000  0  8G17G31G 3G15G14G23G18G 9
  22070946.544   -18177755.81143 -14120216.27342  22070947.780    22070942.749
  23056289.606    -5032287.48143  -3910202.59542  23056291.638    23056285.842
  21891152.127   -19724148.98243 -15313945.39542  21891154.134    21891148.587
  20367857.224   -27601803.78944 -21493818.36142  20367858.565    20367852.773
  20965133.727    -9245681.43244  -7191692.35042  20965136.174    20965129.555
  23044047.210   -10670918.11643  -8302351.86742  23044049.069    23044043.611
  21183799.477   -22629859.07244 -17450590.82342  21183801.368    21183794.160
  23220535.476   -11630177.04143  -9048978.43542  23220537.769    23220531.906
 03  2 28  3  3  0.0000000  0  8G17G31G 3G15G14G23G18G 9
  22083738.892   -18110531.63943 -14067833.81342  22083740.104    22083735.132
  23047159.888    -5080264.27443  -3947587.06942  23047161.893    23047156.130
  21891481.159   -19722419.77243 -15312597.94842  21891483.153    21891477.625
  20372467.989   -27577574.11544 -21474938.08442  20372469.322    20372463.520
  20953204.050    -9308372.15044  -7240542.21342  20953206.480    20953199.854
  23055407.490   -10611219.24443  -8255833.25942  23055409.348    23055403.955
  21191551.231   -22589123.32244 -17418848.66542  21191553.130    21191545.909
  23218464.969   -11641057.30143  -9057456.49842  23218467.302    23218461.418
 03  2 28  3  3 30.0000000  0  8G17G31G 3G15G14G23G18G 9
  22096595.007   -18042972.58843 -14015190.41142  22096596.135    22096591.230
  23038127.881    -5127727.78743  -3984571.58742  23038129.845    23038124.107
  21891914.933   -19720140.05943 -15310821.54042  21891916.923    21891911.432
  20377157.733   -27552929.20344 -21455734.24042  20377159.082    20377153.286
  20941362.891    -9370597.63944  -7289029.56342  20941365.311    20941358.679
  23066769.435   -10551511.76743  -8209307.93842  23066771.319    23066765.872
  21199331.976   -22548235.29144 -17386987.84942  21199333.886    21199326.618
  23216500.870   -11651378.46143  -9065498.93042  23216503.194    23216497.316
 03  2 28  3  4  0.0000000  0  8G17G31G 3G15G14G23G18G 9
  22109518.165   -17975060.99343 -13962272.30542  22109519.281    22109514.424
  23029197.195    -5174658.85843  -4021141.21742  23029199.143    23029193.419
  21892456.791   -19717292.56643 -15308602.70342  21892458.754    21892453.257
  20381930.047   -27527850.45844 -21436192.35242  20381931.401    20381925.581
  20929613.916    -9432338.77744  -7337139.49542  20929616.325    20929609.675
  23078136.350   -10491778.28043  -8162762.35042  23078138.266    23078132.693
  21207144.862   -22507178.08744 -17354995.20542  21207146.785    21207139.525
  23214646.812   -11661121.56943  -9073090.93042  23214649.147    23214643.211
 03  2 28  3  4 30.0000000  0  8G17G31G 3G15G14G23G18G 9
  22122511.454   -17906780.94643 -13909067.09142  22122512.548    22122507.714
  23020371.164    -5221039.67843  -4057282.08042  23020373.149    23020367.421
  21893109.691   -19713861.69543 -15305929.28542  21893111.655    21893106.110
  20386788.135   -27502320.94644 -21416299.21342  20386789.497    20386783.667
  20917960.512    -9493577.74844  -7384858.12742  20917962.898    20917956.247
  23089511.278   -10432002.65843  -8116183.93242  23089513.229    23089507.566
  21214992.966   -22465935.90543 -17322858.42642  21214994.903    21214987.608
  23212906.123   -11670268.87543  -9080218.66642  23212908.444    23212902.497
 03  2 28  3  5  0.0000000  0  8G17G31G 3G15G14G23G18G 9
  22135563.351   -17838192.74343 -13855621.75942  22135564.452    22135559.634
  23011638.762    -5266928.58043  -4093039.64142  23011640.762    23011635.042
  21893862.111   -19709907.67143 -15302848.21442  21893864.100    21893858.499
  20391720.742   -27476399.83344 -21396100.93642  20391722.083    20391716.249
  20906391.543    -9554372.93844  -7432230.95942  20906393.927    20906387.273
  23100882.814   -10372244.94043  -8069619.47642  23100884.727    23100879.050
  21222864.702   -22424569.58644 -17290624.91642  21222866.635    21222859.348
  23211267.735   -11678878.68543  -9086927.57942  23211270.020    23211264.014
 03  2 28  3  5 30.0000000  0  8G17G31G 3G15G14G23G18G 9
  22148685.270   -17769236.56843 -13801889.69642  22148686.396    22148681.568
  23003011.575    -5312264.34243  -4128366.16342  23003013.653    23003007.894
  21894725.419   -19705370.94343 -15299313.08942  21894727.412    21894721.762
  20396739.382   -27450026.74244 -21375550.46242  20396740.698    20396734.876
  20894918.645    -9614663.27844  -7479210.40042  20894921.046    20894914.339
  23112262.271   -10312445.38943  -8023022.41942  23112264.202    23112258.499
  21230771.358   -22383019.69944 -17258248.36342  21230773.320    21230766.024
  23209743.175   -11686890.07743  -9093170.17842  23209745.505    23209739.475
 03  2 28  3  6  0.0000000  0  8G17G31G 3G15G14G23G18G 9
  22161863.376   -17699985.24743 -13747927.64042  22161864.472    22161859.642
  22994476.210    -5357117.88043  -4163316.95342  22994478.299    22994472.521
  21895685.735   -19700324.37843 -15295380.68842  21895687.729    21895682.045
  20401830.294   -27423273.75644 -21354703.96742  20401831.620    20401825.773
  20883528.328    -9674519.73844  -7525851.74942  20883530.711    20883523.994
  23123635.850   -10252676.66343  -7976449.38142  23123637.764    23123632.106
  21238699.071   -22341359.23343 -17225785.65342  21238701.020    21238693.746
  23208318.977   -11694374.36943  -9099002.05442  23208321.268    23208315.246
 03  2 28  3  6 30.0000000  0  8G17G31G 3G15G14G23G18G 9
  22175109.154   -17630378.22843 -13693688.41542  22175110.257    22175105.431
  22986044.512    -5401426.85743  -4197843.38842  22986046.547    22986040.741
  21896754.523   -19694707.83343 -15291004.14942  21896756.504    21896750.800
  20407005.240   -27396079.21744 -21333513.41342  20407006.547    20407000.698
  20872232.381    -9733880.08244  -7572106.51542  20872234.784    20872228.056
  23135015.165   -10192878.05943  -7929853.05642  23135017.054    23135011.370
  21246659.286   -22299527.92944 -17193189.81742  21246661.249    21246653.955
  23207006.867   -11701269.26443  -9104374.65842  23207009.144    23207003.171
 03  2 28  3  7  0.0000000  0  8G17G31G 3G15G14G23G18G 9
  22188415.040   -17560455.32543 -13639203.05942  22188416.182    22188411.290
  22977709.183    -5445229.41743  -4231975.21742  22977711.188    22977705.356
  21897924.174   -19688561.11643 -15286214.49042  21897926.155    21897920.432
  20412256.803   -27368482.02744 -21312009.10742  20412258.113    20412252.251
  20861023.586    -9792782.45144  -7618004.42142  20861025.995    20861019.250
  23146392.615   -10133089.20243  -7883264.33242  23146394.475    23146388.789
  21254644.388   -22257565.90244 -17160492.11742  21254646.332    21254639.025
  23205799.610   -11707613.09343  -9109317.86142  23205801.922    23205795.961
 03  2 28  3  7 30.0000000  0  8G17G31G 3G15G14G23G18G 9
  22201785.124   -17490195.08443 -13584454.83342  22201786.285    22201781.348
  22969474.582    -5488502.60443  -4265694.54942  22969476.566    22969470.715
  21899198.758   -19681863.12243 -15280995.26442  21899200.747    21899195.000
  20417589.250   -27340459.94444 -21290173.71442  20417590.533    20417584.672
  20849906.305    -9851203.97244  -7663527.64242  20849908.701    20849901.951
  23157772.285   -10073288.66343  -7836666.50242  23157774.115    23157768.422
  21262658.321   -22215452.40344 -17127676.38942  21262660.243    21262652.941
  23204701.597   -11713382.98743  -9113813.85142  23204703.920    23204697.936
 03  2 28  3  8  0.0000000  0  8G17G31G 3G15G14G23G18G 9
  22215219.402   -17419597.62943 -13529443.85042  22215220.550    22215215.617
  22961341.023    -5531244.56743  -4298999.94542  22961343.023    22961337.137
  21900578.223   -19674614.04643 -15275346.62142  21900580.188    21900574.424
  20423002.695   -27312012.00744 -21268006.48242  20423004.005    20422998.132
  20838880.871    -9909142.83744  -7708674.76642  20838883.267    20838876.506
  23169154.199   -10013476.16243  -7790059.35342  23169156.053    23169150.325
  21270701.064   -22173187.50144 -17094742.68442  21270703.011    21270695.681
  23203713.100   -11718577.36443  -9117861.37442  23203715.393    23203709.398
 03  2 28  3  8 30.0000000  0  8G17G31G 3G15G14G23G18G 9
  22228718.357   -17348660.25843 -13474168.00042  22228719.437    22228714.600
  22953309.357    -5573451.18743  -4331888.18942  22953311.344    22953305.415
  21902062.923   -19666811.74043 -15269266.89242  21902064.902    21902059.144
  20428497.821   -27283134.85244 -21245504.80042  20428499.131    20428493.265
  20827948.053    -9966595.00344  -7753442.64742  20827950.438    20827943.683
  23180538.904    -9953649.13243  -7743440.87542  23180540.753    23180535.021
  21278773.052   -22130768.86744 -17061689.18542  21278775.006    21278767.664
  23202834.928   -11723192.35943  -9121457.45742  23202837.154    23202831.172
 03  2 28  3  9  0.0000000  0  8G17G31G 3G15G14G23G18G 9
  22242286.821   -17277357.65943 -13418607.55042  22242287.896    22242283.055
  22945384.700    -5615095.39543  -4364338.19542  22945386.680    22945380.717
  21903657.750   -19658430.65943 -15262736.16842  21903659.733    21903654.004
  20434079.646   -27253802.17144 -21222648.16342  20434080.965    20434075.081
  20817112.993   -10023533.38444  -7797810.17842  20817115.398    20817108.632
  23191931.250    -9893781.90543  -7696791.08042  23191933.124    23191927.327
  21286879.039   -22088171.45943 -17028496.38642  21286881.011    21286873.688
  23202071.986   -11727201.18543  -9124581.18542  23202074.305    23202068.263
 03  2 28  3  9 30.0000000  0  8G17G31G 3G15G14G23G18G 9
  22255915.613   -17205737.97143 -13362800.02342  22255916.681    22255911.840
  22937558.198    -5656223.61643  -4396386.12242  22937560.215    22937554.236
  21905353.410   -19649519.59343 -15255792.46842  21905355.426    21905349.706
  20439739.181   -27224061.07044 -21199473.26642  20439740.502    20439734.632
  20806366.843   -10080004.60844  -7841813.68742  20806369.226    20806362.464
  23203322.109    -9833922.42043  -7650147.31742  23203323.961    23203318.237
  21295009.865   -22045443.53744 -16995201.88842  21295011.844    21295004.537
  23201415.602   -11730650.59543  -9127269.01142  23201417.874    23201411.865
 03  2 28  3 10  0.0000000  0  8G17G31G 3G15G14G23G18G 9
  22269609.484   -17133776.45543 -13306726.13542  22269610.511    22269605.670
  22929834.922    -5696809.57243  -4428011.51142  22929836.942    22929830.961
  21907154.610   -19640054.27743 -15248416.88342  21907156.596    21907150.898
  20445481.254   -27193886.20444 -21175960.37742  20445482.559    20445476.707
  20795714.617   -10135982.31044  -7885432.63442  20795717.002    20795710.232
  23214716.202    -9774045.68843  -7603490.12442  23214718.075    23214712.405
  21303170.236   -22002560.63543 -16961786.62842  21303172.194    21303164.884
  23200870.610   -11733514.39643  -9129500.51342  23200872.866    23200866.866
 03  2 28  3 10 30.0000000  0  8G17G31G 3G15G14G23G18G 9
  22283364.326   -17061494.42943 -13250402.49442  22283365.293    22283360.501
  22922211.127    -5736872.79143  -4459229.57842  22922213.128    22922207.142
  21909057.215   -19630055.99143 -15240625.99842  21909059.194    21909053.474
  20451302.038   -27163297.76444 -21152125.22642  20451303.331    20451297.495
  20785152.521   -10191486.31144  -7928682.46242  20785154.916    20785148.128
  23226109.671    -9714172.47843  -7556835.66242  23226111.543    23226105.929
  21311355.949   -21959544.32043 -16928267.40442  21311357.939    21311350.606
  23200433.373   -11735812.19043  -9131290.97542  23200435.608    23200429.611
 03  2 28  3 11  0.0000000  0  8G17G31G 3G15G14G23G18G 9
  22297180.568   -16988889.45243 -13193827.20542  22297181.585    22297176.791
  22914687.542    -5776409.41543  -4490037.30642  22914689.547    22914683.539
  21911061.672   -19619522.64543 -15232418.18142  21911063.637    21911057.894
  20457202.094   -27132292.66944 -21127965.40842  20457203.388    20457197.570
  20774681.392   -10246512.41344  -7971559.90642  20774683.770    20774676.955
  23237502.939    -9654300.26543  -7510181.98442  23237504.805    23237499.239
  21319567.483   -21916392.27643 -16894642.41642  21319569.485    21319562.147
  23200104.544   -11737540.28143  -9132637.50642  23200106.791    23200100.705
 03  2 28  3 11 30.0000000  0  8G17G31G 3G15G14G23G18G 9
  22311063.948   -16915931.91943 -13136977.20642  22311064.964    22311060.176
  22907270.133    -5815388.02043  -4520410.20442  22907272.141    22907266.168
  21913173.487   -19608424.96343 -15223770.62542  21913175.440    21913169.702
  20463187.198   -27100840.57844 -21103457.28242  20463188.514    20463182.705
  20764307.115   -10301029.38944  -8014040.62642  20764309.511    20764302.667
  23248901.751    -9594399.11443  -7463505.75242  23248903.625    23248898.016
  21327810.454   -21873075.07343 -16860888.73842  21327812.437    21327805.114
  23199890.009   -11738667.73243  -9133516.00842  23199892.268    23199886.150
 03  2 28  3 12  0.0000000  0  8G17G31G 3G15G14G23G18G 9
  22325006.722   -16842662.31843 -13079884.02842  22325007.753    22325002.946
  22899951.556    -5853847.42143  -4550378.54942  22899953.538    22899947.574
  21915384.916   -19596803.78843 -15214715.15242  21915386.865    21915381.129
  20469249.949   -27068980.69544 -21078631.39342  20469251.246    20469245.458
  20754022.318   -10355076.07844  -8056154.89042  20754024.717    20754017.883
  23260298.446    -9534509.10643  -7416838.20242  23260300.306    23260294.688
  21336077.153   -21829633.20343 -16827037.91542  21336079.115    21336071.817
  23199782.281   -11739233.55043  -9133956.87642  23199784.592    23199778.450
 03  2 28  3 12 30.0000000  0  8G17G31G 3G15G14G23G18G 9
  22339015.183   -16769047.35443 -13022521.74842  22339016.255    22339011.431
  22892738.336    -5891752.72943  -4579915.12142  22892740.338    22892734.401
  21917702.270   -19584626.01443 -15205225.96442  21917704.219    21917698.470
  20475396.791   -27036678.71844 -21053461.02042  20475398.084    20475392.314
  20743833.668   -10408617.54044  -8097875.47142  20743836.065    20743829.253
  23271699.455    -9474596.47643  -7370153.03142  23271701.313    23271695.680
  21344373.953   -21786033.24043 -16793063.90342  21344375.891    21344368.589
  23199788.055   -11739202.94743  -9133933.00042  23199790.392    23199784.266
 03  2 28  3 13  0.0000000  0  8G17G31G 3G15G14G23G18G 9
  22353087.304   -16695097.77643 -12964898.71042  22353088.418    22353083.625
  22885628.822    -5929113.43043  -4609027.33942  22885630.814    22885624.872
  21920123.357   -19571903.06143 -15195311.96342  21920125.298    21920119.575
  20481625.820   -27003944.90044 -21027954.14542  20481627.102    20481621.346
  20733739.348   -10461663.43444  -8139209.89442  20733741.743    20733734.898
  23283102.696    -9414672.01543  -7323458.63442  23283104.546    23283098.939
  21352698.588   -21742286.78143 -16758975.74442  21352700.536    21352693.248
  23199905.479   -11738585.90243  -9133452.15142  23199907.694    23199901.655
 03  2 28  3 13 30.0000000  0  8G17G31G 3G15G14G23G18G 9
  22367221.367   -16620822.65643 -12907022.01242  22367222.507    22367217.718
  22878621.515    -5965936.91743  -4637720.93742  22878623.489    22878617.555
  21922646.438   -19558644.21943 -15184980.38842  21922648.383    21922642.645
  20487935.513   -26970787.25444 -21002117.01042  20487936.795    20487931.026
  20723737.911   -10514221.24444  -8180163.99142  20723740.291    20723733.451
  23294506.555    -9354744.30043  -7276761.70042  23294508.421    23294502.779
  21361049.412   -21698402.76143 -16724780.39342  21361051.365    21361044.070
  23200132.950   -11737390.04843  -9132520.29442  23200135.266    23200129.182
 03  2 28  3 14  0.0000000  0  8G17G31G 3G15G14G23G18G 9
  22381422.138   -16546196.98143 -12848872.16442  22381423.336    22381418.574
  22871721.575    -6002196.23443  -4665974.91942  22871723.575    22871717.627
  21925276.190   -19544824.69543 -15174211.91842  21925278.159    21925272.425
  20494330.798   -26937179.86444 -20975929.43742  20494332.047    20494326.297
  20713834.514   -10566263.80444  -8220716.59542  20713836.883    20713830.041
  23305915.952    -9294787.55643  -7230042.15942  23305917.786    23305912.152
  21369431.308   -21654355.63943 -16690457.94342  21369433.249    21369425.912
  23200475.700   -11735588.65343  -9131116.56542  23200477.998    23200471.969
 03  2 28  3 14 30.0000000  0  8G17G31G 3G15G14G23G18G 9
  22395683.435   -16471253.39043 -12790474.57042  22395684.632    22395679.909
  22864923.044    -6037922.80943  -4693813.77842  22864924.995    22864919.066
  21928006.286   -19530477.76243 -15163032.48042  21928008.272    21928002.567
  20500805.564   -26903154.75844 -20949416.35942  20500806.832    20500801.057
  20704023.160   -10617822.66544  -8260892.29242  20704025.527    20704018.699
  23317324.668    -9234834.33743  -7183325.35642  23317326.508    23317320.858
  21377837.900   -21610178.59943 -16656034.26542  21377839.850    21377832.458
  23200927.638   -11733213.50643  -9129265.76442  23200929.905    23200923.932
 03  2 28  3 15  0.0000000  0  8G17G31G 3G15G14G23G18G 9
  22410011.583   -16395958.55243 -12731803.30142  22410012.751    22410008.060
  22858232.541    -6073081.47743  -4721210.11542  22858234.486    22858228.525
  21930843.121   -19515570.04843 -15151416.07342  21930845.088    21930839.416
  20507366.369   -26868677.34044 -20922550.82542  20507367.664    20507361.888
  20694310.542   -10668862.82044  -8300663.80942  20694312.891    20694306.039
  23328739.211    -9174850.59643  -7136584.77842  23328741.028    23328735.412
  21386275.599   -21565838.09943 -16621483.21542  21386277.570    21386270.160
  23201495.290   -11730229.56643  -9126940.58042  23201497.661    23201491.706
 03  2 28  3 15 30.0000000  0  8G17G31G 3G15G14G23G18G 9
  22424400.283   -16320345.53943 -12672884.08642  22424401.461    22424396.787
  22851644.094    -6107703.79543  -4748188.52242  22851646.021    22851640.104
  21933780.254   -19500135.11643 -15139388.84742  21933782.229    21933776.596
  20514007.183   -26833779.63944 -20895357.80342  20514008.485    20514002.688
  20684690.653   -10719415.63144  -8340055.57442  20684693.008    20684686.152
  23340153.317    -9114868.76343  -7089845.67042  23340155.196    23340149.590
  21394738.102   -21521367.23043 -16586830.57542  21394740.068    21394732.687
  23202172.838   -11726668.72643  -9124165.87442  23202175.155    23202169.308
 03  2 28  3 16  0.0000000  0  8G17G31G 3G15G14G23G18G 9
  22438847.673   -16244424.01243 -12613724.46742  22438848.890    22438844.206
  22845156.125    -6141798.07643  -4774755.46142  22845158.045    22845152.137
  21936815.744   -19484183.30143 -15126958.85742  21936817.718    21936812.121
  20520726.219   -26798470.93544 -20867844.52542  20520727.504    20520721.701
  20675161.871   -10769489.70444  -8379074.29442  20675164.196    20675157.336
  23351565.343    -9054898.42843  -7043115.54242  23351567.210    23351561.624
  21403223.565   -21476775.80843 -16552083.99942  21403225.524    21403218.159
  23202958.547   -11722539.62243  -9120948.34242  23202960.807    23202955.018
